<?xml version="1.0" encoding="UTF-8" standalone="no" ?>
<gpx xmlns="http://www.topografix.com/GPX/1/1" xmlns:xsi="http://www.w3.org/2001/XMLSchema-instance" xsi:schemaLocation="http://www.topografix.com/GPX/1/1 http://www.topografix.com/GPX/1/1/gpx.xsd" version="1.1" creator="VisuGPX - https://www.visugpx.com">
  <metadata>
    <name>Trace Salon du Gravel 45 kms</name>
  </metadata>
  <trk>
    <name><![CDATA[Trace Salon du Gravel 45 kms]]></name>
    <trkseg>
      <trkpt lat="48.5084" lon="-2.73362">
        <ele>80.768736</ele>
        <time>2024-04-08T14:16:28.938Z</time>
      </trkpt>
      <trkpt lat="48.5084" lon="-2.73363">
        <ele>80.768736</ele>
        <time>2024-04-08T14:16:29.153Z</time>
      </trkpt>
      <trkpt lat="48.50853" lon="-2.73375">
        <ele>80.768736</ele>
        <time>2024-04-08T14:16:32.911Z</time>
      </trkpt>
      <trkpt lat="48.50901" lon="-2.73261">
        <ele>80.567179</ele>
        <time>2024-04-08T14:16:53.653Z</time>
      </trkpt>
      <trkpt lat="48.50904" lon="-2.73253">
        <ele>80.479378</ele>
        <time>2024-04-08T14:16:55.156Z</time>
      </trkpt>
      <trkpt lat="48.50891" lon="-2.73241">
        <ele>80.2724</ele>
        <time>2024-04-08T14:16:58.327Z</time>
      </trkpt>
      <trkpt lat="48.50848" lon="-2.73199">
        <ele>79.560286</ele>
        <time>2024-04-08T14:17:10.846Z</time>
      </trkpt>
      <trkpt lat="48.50841" lon="-2.73196">
        <ele>79.465285</ele>
        <time>2024-04-08T14:17:13.159Z</time>
      </trkpt>
      <trkpt lat="48.50837" lon="-2.73187">
        <ele>79.372184</ele>
        <time>2024-04-08T14:17:15.150Z</time>
      </trkpt>
      <trkpt lat="48.5081" lon="-2.7316">
        <ele>78.919961</ele>
        <time>2024-04-08T14:17:25.556Z</time>
      </trkpt>
      <trkpt lat="48.50797" lon="-2.73154">
        <ele>78.732084</ele>
        <time>2024-04-08T14:17:29.427Z</time>
      </trkpt>
      <trkpt lat="48.50777" lon="-2.7315">
        <ele>78.456959</ele>
        <time>2024-04-08T14:17:36.025Z</time>
      </trkpt>
      <trkpt lat="48.50797" lon="-2.73154">
        <ele>78.185737</ele>
        <time>2024-04-08T14:17:41.744Z</time>
      </trkpt>
      <trkpt lat="48.5081" lon="-2.7316">
        <ele>78.003875</ele>
        <time>2024-04-08T14:17:46.298Z</time>
      </trkpt>
      <trkpt lat="48.50837" lon="-2.73187">
        <ele>77.56613</ele>
        <time>2024-04-08T14:17:56.244Z</time>
      </trkpt>
      <trkpt lat="48.50841" lon="-2.73196">
        <ele>77.476008</ele>
        <time>2024-04-08T14:17:58.570Z</time>
      </trkpt>
      <trkpt lat="48.50807" lon="-2.73166">
        <ele>76.951712</ele>
        <time>2024-04-08T14:18:07.684Z</time>
      </trkpt>
      <trkpt lat="48.50791" lon="-2.73158">
        <ele>76.726139</ele>
        <time>2024-04-08T14:18:11.667Z</time>
      </trkpt>
      <trkpt lat="48.50595" lon="-2.73126">
        <ele>74.522675</ele>
        <time>2024-04-08T14:18:58.699Z</time>
      </trkpt>
      <trkpt lat="48.5056" lon="-2.73096">
        <ele>74.109499</ele>
        <time>2024-04-08T14:19:08.028Z</time>
      </trkpt>
      <trkpt lat="48.50548" lon="-2.73092">
        <ele>74.072922</ele>
        <time>2024-04-08T14:19:10.960Z</time>
      </trkpt>
      <trkpt lat="48.50529" lon="-2.73093">
        <ele>74.079481</ele>
        <time>2024-04-08T14:19:15.407Z</time>
      </trkpt>
      <trkpt lat="48.50517" lon="-2.73099">
        <ele>74.083833</ele>
        <time>2024-04-08T14:19:18.372Z</time>
      </trkpt>
      <trkpt lat="48.50505" lon="-2.73112">
        <ele>74.088777</ele>
        <time>2024-04-08T14:19:21.818Z</time>
      </trkpt>
      <trkpt lat="48.5047" lon="-2.73165">
        <ele>74.106129</ele>
        <time>2024-04-08T14:19:34.305Z</time>
      </trkpt>
      <trkpt lat="48.5046" lon="-2.73185">
        <ele>74.111731</ele>
        <time>2024-04-08T14:19:38.742Z</time>
      </trkpt>
      <trkpt lat="48.50457" lon="-2.73186">
        <ele>74.112754</ele>
        <time>2024-04-08T14:19:39.608Z</time>
      </trkpt>
      <trkpt lat="48.50454" lon="-2.73188">
        <ele>74.114143</ele>
        <time>2024-04-08T14:19:40.794Z</time>
      </trkpt>
      <trkpt lat="48.50437" lon="-2.73175">
        <ele>74.120681</ele>
        <time>2024-04-08T14:19:46.298Z</time>
      </trkpt>
      <trkpt lat="48.50376" lon="-2.73109">
        <ele>75.610354</ele>
        <time>2024-04-08T14:20:14.305Z</time>
      </trkpt>
      <trkpt lat="48.50322" lon="-2.73041">
        <ele>78.14341</ele>
        <time>2024-04-08T14:20:48.010Z</time>
      </trkpt>
      <trkpt lat="48.50318" lon="-2.73036">
        <ele>78.338317</ele>
        <time>2024-04-08T14:20:50.925Z</time>
      </trkpt>
      <trkpt lat="48.50189" lon="-2.72868">
        <ele>85.640597</ele>
        <time>2024-04-08T14:22:28.407Z</time>
      </trkpt>
      <trkpt lat="48.50167" lon="-2.7282">
        <ele>87.445875</ele>
        <time>2024-04-08T14:22:49.894Z</time>
      </trkpt>
      <trkpt lat="48.50162" lon="-2.72787">
        <ele>88.500091</ele>
        <time>2024-04-08T14:23:01.790Z</time>
      </trkpt>
      <trkpt lat="48.5016" lon="-2.72747">
        <ele>89.479171</ele>
        <time>2024-04-08T14:23:14.594Z</time>
      </trkpt>
      <trkpt lat="48.50146" lon="-2.72712">
        <ele>90.224154</ele>
        <time>2024-04-08T14:23:27.496Z</time>
      </trkpt>
      <trkpt lat="48.50115" lon="-2.72686">
        <ele>91.216456</ele>
        <time>2024-04-08T14:23:43.341Z</time>
      </trkpt>
      <trkpt lat="48.50067" lon="-2.72649">
        <ele>92.689228</ele>
        <time>2024-04-08T14:24:05.772Z</time>
      </trkpt>
      <trkpt lat="48.5008" lon="-2.72615">
        <ele>93.395754</ele>
        <time>2024-04-08T14:24:15.767Z</time>
      </trkpt>
      <trkpt lat="48.50084" lon="-2.72576">
        <ele>94.081286</ele>
        <time>2024-04-08T14:24:26.877Z</time>
      </trkpt>
      <trkpt lat="48.50081" lon="-2.72534">
        <ele>94.495589</ele>
        <time>2024-04-08T14:24:38.115Z</time>
      </trkpt>
      <trkpt lat="48.50057" lon="-2.72425">
        <ele>95.604691</ele>
        <time>2024-04-08T14:25:05.213Z</time>
      </trkpt>
      <trkpt lat="48.50033" lon="-2.72322">
        <ele>96.673423</ele>
        <time>2024-04-08T14:25:30.829Z</time>
      </trkpt>
      <trkpt lat="48.50027" lon="-2.72302">
        <ele>96.80507</ele>
        <time>2024-04-08T14:25:35.893Z</time>
      </trkpt>
      <trkpt lat="48.50017" lon="-2.72269">
        <ele>97.019561</ele>
        <time>2024-04-08T14:25:44.131Z</time>
      </trkpt>
      <trkpt lat="48.49985" lon="-2.72167">
        <ele>97.697372</ele>
        <time>2024-04-08T14:26:09.942Z</time>
      </trkpt>
      <trkpt lat="48.49974" lon="-2.72143">
        <ele>97.871827</ele>
        <time>2024-04-08T14:26:16.237Z</time>
      </trkpt>
      <trkpt lat="48.49958" lon="-2.72119">
        <ele>98.076844</ele>
        <time>2024-04-08T14:26:23.664Z</time>
      </trkpt>
      <trkpt lat="48.49952" lon="-2.72111">
        <ele>98.145964</ele>
        <time>2024-04-08T14:26:25.983Z</time>
      </trkpt>
      <trkpt lat="48.49921" lon="-2.72074">
        <ele>98.213695</ele>
        <time>2024-04-08T14:26:37.898Z</time>
      </trkpt>
      <trkpt lat="48.4986" lon="-2.7203">
        <ele>97.950443</ele>
        <time>2024-04-08T14:26:56.692Z</time>
      </trkpt>
      <trkpt lat="48.49837" lon="-2.71999">
        <ele>97.827492</ele>
        <time>2024-04-08T14:27:04.980Z</time>
      </trkpt>
      <trkpt lat="48.49824" lon="-2.71976">
        <ele>97.750898</ele>
        <time>2024-04-08T14:27:09.892Z</time>
      </trkpt>
      <trkpt lat="48.49807" lon="-2.7194">
        <ele>97.636473</ele>
        <time>2024-04-08T14:27:17.340Z</time>
      </trkpt>
      <trkpt lat="48.49782" lon="-2.71873">
        <ele>96.480261</ele>
        <time>2024-04-08T14:27:29.368Z</time>
      </trkpt>
      <trkpt lat="48.49768" lon="-2.71833">
        <ele>95.667667</ele>
        <time>2024-04-08T14:27:36.172Z</time>
      </trkpt>
      <trkpt lat="48.49761" lon="-2.71803">
        <ele>95.099477</ele>
        <time>2024-04-08T14:27:40.795Z</time>
      </trkpt>
      <trkpt lat="48.49758" lon="-2.71778">
        <ele>94.650914</ele>
        <time>2024-04-08T14:27:44.376Z</time>
      </trkpt>
      <trkpt lat="48.49757" lon="-2.71772">
        <ele>94.543545</ele>
        <time>2024-04-08T14:27:45.229Z</time>
      </trkpt>
      <trkpt lat="48.49779" lon="-2.71773">
        <ele>93.951518</ele>
        <time>2024-04-08T14:27:49.913Z</time>
      </trkpt>
      <trkpt lat="48.49783" lon="-2.71686">
        <ele>92.256395</ele>
        <time>2024-04-08T14:28:10.736Z</time>
      </trkpt>
      <trkpt lat="48.49786" lon="-2.71621">
        <ele>90.607052</ele>
        <time>2024-04-08T14:28:19.778Z</time>
      </trkpt>
      <trkpt lat="48.49786" lon="-2.71609">
        <ele>90.300553</ele>
        <time>2024-04-08T14:28:21.442Z</time>
      </trkpt>
      <trkpt lat="48.498" lon="-2.71611">
        <ele>89.756225</ele>
        <time>2024-04-08T14:28:24.306Z</time>
      </trkpt>
      <trkpt lat="48.49827" lon="-2.71599">
        <ele>88.684726</ele>
        <time>2024-04-08T14:28:34.270Z</time>
      </trkpt>
      <trkpt lat="48.49829" lon="-2.71543">
        <ele>87.235621</ele>
        <time>2024-04-08T14:28:42.060Z</time>
      </trkpt>
      <trkpt lat="48.49833" lon="-2.71541">
        <ele>87.067095</ele>
        <time>2024-04-08T14:28:43.291Z</time>
      </trkpt>
      <trkpt lat="48.49858" lon="-2.7153">
        <ele>86.076542</ele>
        <time>2024-04-08T14:28:50.344Z</time>
      </trkpt>
      <trkpt lat="48.49855" lon="-2.71506">
        <ele>85.508039</ele>
        <time>2024-04-08T14:28:54.664Z</time>
      </trkpt>
      <trkpt lat="48.49859" lon="-2.7148">
        <ele>84.90178</ele>
        <time>2024-04-08T14:28:59.667Z</time>
      </trkpt>
      <trkpt lat="48.49861" lon="-2.71469">
        <ele>84.65313</ele>
        <time>2024-04-08T14:29:01.613Z</time>
      </trkpt>
      <trkpt lat="48.49853" lon="-2.71422">
        <ele>83.566292</ele>
        <time>2024-04-08T14:29:10.619Z</time>
      </trkpt>
      <trkpt lat="48.49852" lon="-2.71415">
        <ele>83.400088</ele>
        <time>2024-04-08T14:29:11.906Z</time>
      </trkpt>
      <trkpt lat="48.49844" lon="-2.71383">
        <ele>82.642336</ele>
        <time>2024-04-08T14:29:27.515Z</time>
      </trkpt>
      <trkpt lat="48.49841" lon="-2.71369">
        <ele>82.300116</ele>
        <time>2024-04-08T14:29:34.555Z</time>
      </trkpt>
      <trkpt lat="48.49835" lon="-2.71344">
        <ele>81.718819</ele>
        <time>2024-04-08T14:29:46.504Z</time>
      </trkpt>
      <trkpt lat="48.49835" lon="-2.71336">
        <ele>81.530741</ele>
        <time>2024-04-08T14:29:50.393Z</time>
      </trkpt>
      <trkpt lat="48.49844" lon="-2.71305">
        <ele>80.79282</ele>
        <time>2024-04-08T14:29:58.263Z</time>
      </trkpt>
      <trkpt lat="48.49845" lon="-2.71302">
        <ele>80.714997</ele>
        <time>2024-04-08T14:29:59.143Z</time>
      </trkpt>
      <trkpt lat="48.49849" lon="-2.7129">
        <ele>80.414634</ele>
        <time>2024-04-08T14:30:02.471Z</time>
      </trkpt>
      <trkpt lat="48.49851" lon="-2.71281">
        <ele>80.194077</ele>
        <time>2024-04-08T14:30:04.911Z</time>
      </trkpt>
      <trkpt lat="48.49861" lon="-2.71273">
        <ele>79.813318</ele>
        <time>2024-04-08T14:30:08.928Z</time>
      </trkpt>
      <trkpt lat="48.49866" lon="-2.71269">
        <ele>79.666511</ele>
        <time>2024-04-08T14:30:10.752Z</time>
      </trkpt>
      <trkpt lat="48.49884" lon="-2.7124">
        <ele>78.952018</ele>
        <time>2024-04-08T14:30:20.746Z</time>
      </trkpt>
      <trkpt lat="48.49894" lon="-2.71222">
        <ele>78.538535</ele>
        <time>2024-04-08T14:30:26.518Z</time>
      </trkpt>
      <trkpt lat="48.49904" lon="-2.71207">
        <ele>78.146284</ele>
        <time>2024-04-08T14:30:32.174Z</time>
      </trkpt>
      <trkpt lat="48.49926" lon="-2.71187">
        <ele>77.455228</ele>
        <time>2024-04-08T14:30:41.848Z</time>
      </trkpt>
      <trkpt lat="48.49956" lon="-2.71145">
        <ele>76.348115</ele>
        <time>2024-04-08T14:30:57.534Z</time>
      </trkpt>
      <trkpt lat="48.49957" lon="-2.71144">
        <ele>76.325795</ele>
        <time>2024-04-08T14:30:57.859Z</time>
      </trkpt>
      <trkpt lat="48.49973" lon="-2.71114">
        <ele>75.658899</ele>
        <time>2024-04-08T14:31:07.390Z</time>
      </trkpt>
      <trkpt lat="48.50004" lon="-2.7108">
        <ele>74.683645</ele>
        <time>2024-04-08T14:31:22.031Z</time>
      </trkpt>
      <trkpt lat="48.5001" lon="-2.71077">
        <ele>74.55358</ele>
        <time>2024-04-08T14:31:24.370Z</time>
      </trkpt>
      <trkpt lat="48.50054" lon="-2.71035">
        <ele>73.47129</ele>
        <time>2024-04-08T14:31:43.960Z</time>
      </trkpt>
      <trkpt lat="48.50071" lon="-2.7101">
        <ele>72.977344</ele>
        <time>2024-04-08T14:31:53.157Z</time>
      </trkpt>
      <trkpt lat="48.50075" lon="-2.7098">
        <ele>72.556927</ele>
        <time>2024-04-08T14:31:57.671Z</time>
      </trkpt>
      <trkpt lat="48.50086" lon="-2.70886">
        <ele>71.239615</ele>
        <time>2024-04-08T14:32:12.871Z</time>
      </trkpt>
      <trkpt lat="48.50086" lon="-2.70859">
        <ele>70.917013</ele>
        <time>2024-04-08T14:32:17.234Z</time>
      </trkpt>
      <trkpt lat="48.50098" lon="-2.70848">
        <ele>70.682423</ele>
        <time>2024-04-08T14:32:20.607Z</time>
      </trkpt>
      <trkpt lat="48.50133" lon="-2.70832">
        <ele>70.052759</ele>
        <time>2024-04-08T14:32:29.505Z</time>
      </trkpt>
      <trkpt lat="48.50175" lon="-2.708">
        <ele>69.244976</ele>
        <time>2024-04-08T14:32:40.481Z</time>
      </trkpt>
      <trkpt lat="48.50228" lon="-2.70731">
        <ele>68.035524</ele>
        <time>2024-04-08T14:32:56.640Z</time>
      </trkpt>
      <trkpt lat="48.50252" lon="-2.70705">
        <ele>67.472277</ele>
        <time>2024-04-08T14:33:03.428Z</time>
      </trkpt>
      <trkpt lat="48.50268" lon="-2.70676">
        <ele>66.986501</ele>
        <time>2024-04-08T14:33:09.169Z</time>
      </trkpt>
      <trkpt lat="48.50278" lon="-2.70641">
        <ele>66.49096</ele>
        <time>2024-04-08T14:33:15.139Z</time>
      </trkpt>
      <trkpt lat="48.50292" lon="-2.70579">
        <ele>65.655111</ele>
        <time>2024-04-08T14:33:24.917Z</time>
      </trkpt>
      <trkpt lat="48.50394" lon="-2.70605">
        <ele>64.518461</ele>
        <time>2024-04-08T14:33:48.950Z</time>
      </trkpt>
      <trkpt lat="48.50486" lon="-2.70614">
        <ele>64.345359</ele>
        <time>2024-04-08T14:34:15.347Z</time>
      </trkpt>
      <trkpt lat="48.50486" lon="-2.70623">
        <ele>64.334897</ele>
        <time>2024-04-08T14:34:17.214Z</time>
      </trkpt>
      <trkpt lat="48.50519" lon="-2.7066">
        <ele>64.421947</ele>
        <time>2024-04-08T14:34:38.342Z</time>
      </trkpt>
      <trkpt lat="48.50527" lon="-2.70675">
        <ele>64.637421</ele>
        <time>2024-04-08T14:34:44.735Z</time>
      </trkpt>
      <trkpt lat="48.50537" lon="-2.70714">
        <ele>65.121154</ele>
        <time>2024-04-08T14:34:59.423Z</time>
      </trkpt>
      <trkpt lat="48.50539" lon="-2.70769">
        <ele>65.75656</ele>
        <time>2024-04-08T14:35:19.414Z</time>
      </trkpt>
      <trkpt lat="48.50544" lon="-2.70759">
        <ele>65.899554</ele>
        <time>2024-04-08T14:35:23.137Z</time>
      </trkpt>
      <trkpt lat="48.50539" lon="-2.70769">
        <ele>66.042548</ele>
        <time>2024-04-08T14:35:26.906Z</time>
      </trkpt>
      <trkpt lat="48.50526" lon="-2.70804">
        <ele>66.505418</ele>
        <time>2024-04-08T14:35:39.695Z</time>
      </trkpt>
      <trkpt lat="48.50515" lon="-2.70826">
        <ele>66.826023</ele>
        <time>2024-04-08T14:35:48.464Z</time>
      </trkpt>
      <trkpt lat="48.50584" lon="-2.70922">
        <ele>68.095255</ele>
        <time>2024-04-08T14:36:42.690Z</time>
      </trkpt>
      <trkpt lat="48.50595" lon="-2.70926">
        <ele>68.228272</ele>
        <time>2024-04-08T14:36:49.110Z</time>
      </trkpt>
      <trkpt lat="48.50608" lon="-2.70927">
        <ele>68.37661</ele>
        <time>2024-04-08T14:36:56.168Z</time>
      </trkpt>
      <trkpt lat="48.50608" lon="-2.70927">
        <ele>68.37661</ele>
        <time>2024-04-08T14:36:56.178Z</time>
      </trkpt>
      <trkpt lat="48.50623" lon="-2.70996">
        <ele>68.929602</ele>
        <time>2024-04-08T14:37:20.501Z</time>
      </trkpt>
      <trkpt lat="48.50612" lon="-2.71073">
        <ele>69.379246</ele>
        <time>2024-04-08T14:37:44.784Z</time>
      </trkpt>
      <trkpt lat="48.50626" lon="-2.71091">
        <ele>69.070375</ele>
        <time>2024-04-08T14:37:52.640Z</time>
      </trkpt>
      <trkpt lat="48.50736" lon="-2.71151">
        <ele>67.120228</ele>
        <time>2024-04-08T14:38:39.351Z</time>
      </trkpt>
      <trkpt lat="48.50784" lon="-2.71167">
        <ele>66.156377</ele>
        <time>2024-04-08T14:38:57.413Z</time>
      </trkpt>
      <trkpt lat="48.50832" lon="-2.71173">
        <ele>64.634368</ele>
        <time>2024-04-08T14:39:15.212Z</time>
      </trkpt>
      <trkpt lat="48.50844" lon="-2.71171">
        <ele>64.247168</ele>
        <time>2024-04-08T14:39:19.765Z</time>
      </trkpt>
      <trkpt lat="48.50877" lon="-2.71188">
        <ele>63.147913</ele>
        <time>2024-04-08T14:39:32.599Z</time>
      </trkpt>
      <trkpt lat="48.50941" lon="-2.71153">
        <ele>61.002251</ele>
        <time>2024-04-08T14:39:57.661Z</time>
      </trkpt>
      <trkpt lat="48.51028" lon="-2.7115">
        <ele>58.14886</ele>
        <time>2024-04-08T14:40:29.765Z</time>
      </trkpt>
      <trkpt lat="48.51057" lon="-2.71154">
        <ele>57.193001</ele>
        <time>2024-04-08T14:40:40.453Z</time>
      </trkpt>
      <trkpt lat="48.51087" lon="-2.7117">
        <ele>56.17239</ele>
        <time>2024-04-08T14:40:51.868Z</time>
      </trkpt>
      <trkpt lat="48.51122" lon="-2.71179">
        <ele>55.01171</ele>
        <time>2024-04-08T14:41:04.868Z</time>
      </trkpt>
      <trkpt lat="48.51167" lon="-2.71177">
        <ele>53.614598</ele>
        <time>2024-04-08T14:41:21.742Z</time>
      </trkpt>
      <trkpt lat="48.51212" lon="-2.71167">
        <ele>52.24295</ele>
        <time>2024-04-08T14:41:38.379Z</time>
      </trkpt>
      <trkpt lat="48.51219" lon="-2.71163">
        <ele>52.016109</ele>
        <time>2024-04-08T14:41:41.118Z</time>
      </trkpt>
      <trkpt lat="48.51226" lon="-2.71148">
        <ele>51.649067</ele>
        <time>2024-04-08T14:41:45.642Z</time>
      </trkpt>
      <trkpt lat="48.51234" lon="-2.71116">
        <ele>50.965682</ele>
        <time>2024-04-08T14:41:53.889Z</time>
      </trkpt>
      <trkpt lat="48.51242" lon="-2.71057">
        <ele>49.74952</ele>
        <time>2024-04-08T14:42:08.883Z</time>
      </trkpt>
      <trkpt lat="48.51248" lon="-2.70882">
        <ele>47.447702</ele>
        <time>2024-04-08T14:42:54.193Z</time>
      </trkpt>
      <trkpt lat="48.5125" lon="-2.70883">
        <ele>47.403235</ele>
        <time>2024-04-08T14:42:54.728Z</time>
      </trkpt>
      <trkpt lat="48.51255" lon="-2.70874">
        <ele>47.250972</ele>
        <time>2024-04-08T14:42:56.644Z</time>
      </trkpt>
      <trkpt lat="48.5127" lon="-2.7088">
        <ele>46.970241</ele>
        <time>2024-04-08T14:43:00.207Z</time>
      </trkpt>
      <trkpt lat="48.51327" lon="-2.70886">
        <ele>45.836025</ele>
        <time>2024-04-08T14:43:13.963Z</time>
      </trkpt>
      <trkpt lat="48.5133" lon="-2.70885">
        <ele>45.753358</ele>
        <time>2024-04-08T14:43:14.775Z</time>
      </trkpt>
      <trkpt lat="48.51333" lon="-2.7087">
        <ele>45.494184</ele>
        <time>2024-04-08T14:43:17.303Z</time>
      </trkpt>
      <trkpt lat="48.51338" lon="-2.70866">
        <ele>45.330246</ele>
        <time>2024-04-08T14:43:18.884Z</time>
      </trkpt>
      <trkpt lat="48.51332" lon="-2.70815">
        <ele>44.457401</ele>
        <time>2024-04-08T14:43:27.092Z</time>
      </trkpt>
      <trkpt lat="48.51328" lon="-2.70765">
        <ele>43.61267</ele>
        <time>2024-04-08T14:43:34.772Z</time>
      </trkpt>
      <trkpt lat="48.51316" lon="-2.70759">
        <ele>43.281314</ele>
        <time>2024-04-08T14:43:37.711Z</time>
      </trkpt>
      <trkpt lat="48.51241" lon="-2.70761">
        <ele>41.253176</ele>
        <time>2024-04-08T14:43:53.590Z</time>
      </trkpt>
      <trkpt lat="48.51236" lon="-2.70707">
        <ele>39.17063</ele>
        <time>2024-04-08T14:44:02.995Z</time>
      </trkpt>
      <trkpt lat="48.51223" lon="-2.7063">
        <ele>36.080489</ele>
        <time>2024-04-08T14:44:16.506Z</time>
      </trkpt>
      <trkpt lat="48.51224" lon="-2.70598">
        <ele>34.819224</ele>
        <time>2024-04-08T14:44:21.948Z</time>
      </trkpt>
      <trkpt lat="48.51225" lon="-2.70566">
        <ele>33.581474</ele>
        <time>2024-04-08T14:44:27.198Z</time>
      </trkpt>
      <trkpt lat="48.51219" lon="-2.70537">
        <ele>32.4131</ele>
        <time>2024-04-08T14:44:32.156Z</time>
      </trkpt>
      <trkpt lat="48.51197" lon="-2.70467">
        <ele>29.684942</ele>
        <time>2024-04-08T14:44:44.949Z</time>
      </trkpt>
      <trkpt lat="48.51188" lon="-2.70422">
        <ele>28.218779</ele>
        <time>2024-04-08T14:44:52.768Z</time>
      </trkpt>
      <trkpt lat="48.51192" lon="-2.70399">
        <ele>27.500852</ele>
        <time>2024-04-08T14:44:56.753Z</time>
      </trkpt>
      <trkpt lat="48.512" lon="-2.7038">
        <ele>26.787507</ele>
        <time>2024-04-08T14:45:00.640Z</time>
      </trkpt>
      <trkpt lat="48.512" lon="-2.7038">
        <ele>26.787507</ele>
        <time>2024-04-08T14:45:00.649Z</time>
      </trkpt>
      <trkpt lat="48.51253" lon="-2.70357">
        <ele>24.186809</ele>
        <time>2024-04-08T14:45:15.644Z</time>
      </trkpt>
      <trkpt lat="48.51267" lon="-2.70338">
        <ele>23.288469</ele>
        <time>2024-04-08T14:45:20.932Z</time>
      </trkpt>
      <trkpt lat="48.51284" lon="-2.70338">
        <ele>22.495657</ele>
        <time>2024-04-08T14:45:27.536Z</time>
      </trkpt>
      <trkpt lat="48.51305" lon="-2.70345">
        <ele>22.545284</ele>
        <time>2024-04-08T14:45:35.792Z</time>
      </trkpt>
      <trkpt lat="48.51324" lon="-2.70356">
        <ele>22.623746</ele>
        <time>2024-04-08T14:45:44.870Z</time>
      </trkpt>
      <trkpt lat="48.51325" lon="-2.70356">
        <ele>22.624639</ele>
        <time>2024-04-08T14:45:44.947Z</time>
      </trkpt>
      <trkpt lat="48.51347" lon="-2.70375">
        <ele>22.720255</ele>
        <time>2024-04-08T14:45:55.018Z</time>
      </trkpt>
      <trkpt lat="48.51379" lon="-2.70422">
        <ele>22.885744</ele>
        <time>2024-04-08T14:46:18.954Z</time>
      </trkpt>
      <trkpt lat="48.51414" lon="-2.70486">
        <ele>23.091028</ele>
        <time>2024-04-08T14:46:50.358Z</time>
      </trkpt>
      <trkpt lat="48.51427" lon="-2.70501">
        <ele>23.185064</ele>
        <time>2024-04-08T14:47:00.012Z</time>
      </trkpt>
      <trkpt lat="48.51453" lon="-2.70521">
        <ele>23.610826</ele>
        <time>2024-04-08T14:47:15.953Z</time>
      </trkpt>
      <trkpt lat="48.51463" lon="-2.70526">
        <ele>23.759208</ele>
        <time>2024-04-08T14:47:23.168Z</time>
      </trkpt>
      <trkpt lat="48.51474" lon="-2.70532">
        <ele>23.922635</ele>
        <time>2024-04-08T14:47:29.936Z</time>
      </trkpt>
      <trkpt lat="48.5151" lon="-2.70551">
        <ele>24.462316</ele>
        <time>2024-04-08T14:47:50.280Z</time>
      </trkpt>
      <trkpt lat="48.51533" lon="-2.70569">
        <ele>24.837992</ele>
        <time>2024-04-08T14:48:04.423Z</time>
      </trkpt>
      <trkpt lat="48.51547" lon="-2.70594">
        <ele>25.146968</ele>
        <time>2024-04-08T14:48:14.083Z</time>
      </trkpt>
      <trkpt lat="48.51556" lon="-2.70617">
        <ele>25.404535</ele>
        <time>2024-04-08T14:48:24.818Z</time>
      </trkpt>
      <trkpt lat="48.51585" lon="-2.70705">
        <ele>25.221071</ele>
        <time>2024-04-08T14:48:54.751Z</time>
      </trkpt>
      <trkpt lat="48.51596" lon="-2.70738">
        <ele>24.944901</ele>
        <time>2024-04-08T14:49:04.848Z</time>
      </trkpt>
      <trkpt lat="48.51626" lon="-2.70842">
        <ele>24.113525</ele>
        <time>2024-04-08T14:49:34.583Z</time>
      </trkpt>
      <trkpt lat="48.5163" lon="-2.70873">
        <ele>23.879108</ele>
        <time>2024-04-08T14:49:42.793Z</time>
      </trkpt>
      <trkpt lat="48.51632" lon="-2.70958">
        <ele>23.297914</ele>
        <time>2024-04-08T14:50:04.380Z</time>
      </trkpt>
      <trkpt lat="48.51632" lon="-2.71047">
        <ele>22.703337</ele>
        <time>2024-04-08T14:50:28.032Z</time>
      </trkpt>
      <trkpt lat="48.51632" lon="-2.71066">
        <ele>22.5819</ele>
        <time>2024-04-08T14:50:33.123Z</time>
      </trkpt>
      <trkpt lat="48.51636" lon="-2.7111">
        <ele>22.286389</ele>
        <time>2024-04-08T14:50:45.643Z</time>
      </trkpt>
      <trkpt lat="48.51649" lon="-2.71156">
        <ele>21.954842</ele>
        <time>2024-04-08T14:51:00.849Z</time>
      </trkpt>
      <trkpt lat="48.51663" lon="-2.71191">
        <ele>22.155967</ele>
        <time>2024-04-08T14:51:14.463Z</time>
      </trkpt>
      <trkpt lat="48.51681" lon="-2.71236">
        <ele>22.565998</ele>
        <time>2024-04-08T14:51:31.890Z</time>
      </trkpt>
      <trkpt lat="48.51719" lon="-2.71352">
        <ele>23.576884</ele>
        <time>2024-04-08T14:52:31.638Z</time>
      </trkpt>
      <trkpt lat="48.51719" lon="-2.71352">
        <ele>23.578441</ele>
        <time>2024-04-08T14:52:31.736Z</time>
      </trkpt>
      <trkpt lat="48.51723" lon="-2.71372">
        <ele>23.740047</ele>
        <time>2024-04-08T14:52:41.291Z</time>
      </trkpt>
      <trkpt lat="48.51739" lon="-2.71436">
        <ele>24.245231</ele>
        <time>2024-04-08T14:53:03.412Z</time>
      </trkpt>
      <trkpt lat="48.51755" lon="-2.71499">
        <ele>24.710551</ele>
        <time>2024-04-08T14:53:29.073Z</time>
      </trkpt>
      <trkpt lat="48.51761" lon="-2.71543">
        <ele>25.021842</ele>
        <time>2024-04-08T14:53:45.334Z</time>
      </trkpt>
      <trkpt lat="48.51769" lon="-2.71591">
        <ele>25.364881</ele>
        <time>2024-04-08T14:54:02.003Z</time>
      </trkpt>
      <trkpt lat="48.51769" lon="-2.7163">
        <ele>25.634102</ele>
        <time>2024-04-08T14:54:13.929Z</time>
      </trkpt>
      <trkpt lat="48.51764" lon="-2.71667">
        <ele>25.894915</ele>
        <time>2024-04-08T14:54:24.861Z</time>
      </trkpt>
      <trkpt lat="48.51759" lon="-2.71683">
        <ele>25.903558</ele>
        <time>2024-04-08T14:54:31.227Z</time>
      </trkpt>
      <trkpt lat="48.51746" lon="-2.71702">
        <ele>25.91515</ele>
        <time>2024-04-08T14:54:39.243Z</time>
      </trkpt>
      <trkpt lat="48.51759" lon="-2.71683">
        <ele>25.926742</ele>
        <time>2024-04-08T14:54:46.990Z</time>
      </trkpt>
      <trkpt lat="48.51748" lon="-2.71714">
        <ele>25.941492</ele>
        <time>2024-04-08T14:54:52.565Z</time>
      </trkpt>
      <trkpt lat="48.51705" lon="-2.71784">
        <ele>25.981936</ele>
        <time>2024-04-08T14:55:09.589Z</time>
      </trkpt>
      <trkpt lat="48.5168" lon="-2.71815">
        <ele>26.002573</ele>
        <time>2024-04-08T14:55:21.981Z</time>
      </trkpt>
      <trkpt lat="48.5168" lon="-2.71816">
        <ele>26.002785</ele>
        <time>2024-04-08T14:55:22.066Z</time>
      </trkpt>
      <trkpt lat="48.5167" lon="-2.71834">
        <ele>26.094699</ele>
        <time>2024-04-08T14:55:26.541Z</time>
      </trkpt>
      <trkpt lat="48.5166" lon="-2.71872">
        <ele>26.874171</ele>
        <time>2024-04-08T14:55:35.242Z</time>
      </trkpt>
      <trkpt lat="48.51656" lon="-2.71914">
        <ele>27.673102</ele>
        <time>2024-04-08T14:55:46.296Z</time>
      </trkpt>
      <trkpt lat="48.51658" lon="-2.71944">
        <ele>28.252928</ele>
        <time>2024-04-08T14:55:54.306Z</time>
      </trkpt>
      <trkpt lat="48.51667" lon="-2.71976">
        <ele>28.899164</ele>
        <time>2024-04-08T14:56:04.365Z</time>
      </trkpt>
      <trkpt lat="48.51669" lon="-2.71983">
        <ele>29.055624</ele>
        <time>2024-04-08T14:56:06.643Z</time>
      </trkpt>
      <trkpt lat="48.51681" lon="-2.72008">
        <ele>29.64546</ele>
        <time>2024-04-08T14:56:17.877Z</time>
      </trkpt>
      <trkpt lat="48.51738" lon="-2.7208">
        <ele>32.355324</ele>
        <time>2024-04-08T14:57:01.119Z</time>
      </trkpt>
      <trkpt lat="48.51756" lon="-2.72108">
        <ele>33.776834</ele>
        <time>2024-04-08T14:57:17.940Z</time>
      </trkpt>
      <trkpt lat="48.51765" lon="-2.72133">
        <ele>34.848268</ele>
        <time>2024-04-08T14:57:31.255Z</time>
      </trkpt>
      <trkpt lat="48.51768" lon="-2.72163">
        <ele>35.957647</ele>
        <time>2024-04-08T14:57:46.292Z</time>
      </trkpt>
      <trkpt lat="48.51768" lon="-2.72165">
        <ele>36.043072</ele>
        <time>2024-04-08T14:57:47.451Z</time>
      </trkpt>
      <trkpt lat="48.51766" lon="-2.723">
        <ele>41.080847</ele>
        <time>2024-04-08T14:58:44.898Z</time>
      </trkpt>
      <trkpt lat="48.51773" lon="-2.7233">
        <ele>41.926049</ele>
        <time>2024-04-08T14:58:56.300Z</time>
      </trkpt>
      <trkpt lat="48.51784" lon="-2.72357">
        <ele>42.727538</ele>
        <time>2024-04-08T14:59:07.645Z</time>
      </trkpt>
      <trkpt lat="48.51801" lon="-2.72376">
        <ele>43.520508</ele>
        <time>2024-04-08T14:59:18.365Z</time>
      </trkpt>
      <trkpt lat="48.51832" lon="-2.72407">
        <ele>44.937688</ele>
        <time>2024-04-08T14:59:36.348Z</time>
      </trkpt>
      <trkpt lat="48.51847" lon="-2.72422">
        <ele>45.631721</ele>
        <time>2024-04-08T14:59:44.351Z</time>
      </trkpt>
      <trkpt lat="48.51864" lon="-2.72445">
        <ele>46.492259</ele>
        <time>2024-04-08T14:59:57.443Z</time>
      </trkpt>
      <trkpt lat="48.51876" lon="-2.72467">
        <ele>47.20311</ele>
        <time>2024-04-08T15:00:07.831Z</time>
      </trkpt>
      <trkpt lat="48.51888" lon="-2.72506">
        <ele>48.301823</ele>
        <time>2024-04-08T15:00:20.153Z</time>
      </trkpt>
      <trkpt lat="48.5189" lon="-2.72534">
        <ele>49.105156</ele>
        <time>2024-04-08T15:00:31.086Z</time>
      </trkpt>
      <trkpt lat="48.5189" lon="-2.72622">
        <ele>51.575467</ele>
        <time>2024-04-08T15:01:00.487Z</time>
      </trkpt>
      <trkpt lat="48.5189" lon="-2.72622">
        <ele>51.575467</ele>
        <time>2024-04-08T15:01:00.586Z</time>
      </trkpt>
      <trkpt lat="48.5189" lon="-2.72622">
        <ele>51.575467</ele>
        <time>2024-04-08T15:01:00.586Z</time>
      </trkpt>
      <trkpt lat="48.51967" lon="-2.72642">
        <ele>54.86715</ele>
        <time>2024-04-08T15:01:20.710Z</time>
      </trkpt>
      <trkpt lat="48.52043" lon="-2.72661">
        <ele>56.971653</ele>
        <time>2024-04-08T15:01:40.836Z</time>
      </trkpt>
      <trkpt lat="48.52056" lon="-2.72664">
        <ele>57.244645</ele>
        <time>2024-04-08T15:01:46.359Z</time>
      </trkpt>
      <trkpt lat="48.52053" lon="-2.72625">
        <ele>57.81922</ele>
        <time>2024-04-08T15:01:57.395Z</time>
      </trkpt>
      <trkpt lat="48.5206" lon="-2.72557">
        <ele>58.80955</ele>
        <time>2024-04-08T15:02:13.890Z</time>
      </trkpt>
      <trkpt lat="48.52066" lon="-2.72537">
        <ele>59.14172</ele>
        <time>2024-04-08T15:02:18.346Z</time>
      </trkpt>
      <trkpt lat="48.52077" lon="-2.72513">
        <ele>59.556408</ele>
        <time>2024-04-08T15:02:23.529Z</time>
      </trkpt>
      <trkpt lat="48.5209" lon="-2.72485">
        <ele>59.146485</ele>
        <time>2024-04-08T15:02:29.038Z</time>
      </trkpt>
      <trkpt lat="48.52109" lon="-2.72445">
        <ele>58.313951</ele>
        <time>2024-04-08T15:02:36.410Z</time>
      </trkpt>
      <trkpt lat="48.5211" lon="-2.72427">
        <ele>58.006405</ele>
        <time>2024-04-08T15:02:39.060Z</time>
      </trkpt>
      <trkpt lat="48.5212" lon="-2.72423">
        <ele>57.756249</ele>
        <time>2024-04-08T15:02:41.246Z</time>
      </trkpt>
      <trkpt lat="48.52182" lon="-2.72305">
        <ele>55.202867</ele>
        <time>2024-04-08T15:03:01.405Z</time>
      </trkpt>
      <trkpt lat="48.52207" lon="-2.72273">
        <ele>53.820998</ele>
        <time>2024-04-08T15:03:07.977Z</time>
      </trkpt>
      <trkpt lat="48.5222" lon="-2.72259">
        <ele>53.13301</ele>
        <time>2024-04-08T15:03:11.053Z</time>
      </trkpt>
      <trkpt lat="48.5222" lon="-2.72259">
        <ele>53.13301</ele>
        <time>2024-04-08T15:03:11.101Z</time>
      </trkpt>
      <trkpt lat="48.5222" lon="-2.72259">
        <ele>53.13301</ele>
        <time>2024-04-08T15:03:11.101Z</time>
      </trkpt>
      <trkpt lat="48.5228" lon="-2.72203">
        <ele>49.935703</ele>
        <time>2024-04-08T15:03:29.485Z</time>
      </trkpt>
      <trkpt lat="48.52313" lon="-2.72154">
        <ele>47.867336</ele>
        <time>2024-04-08T15:03:41.380Z</time>
      </trkpt>
      <trkpt lat="48.52345" lon="-2.72105">
        <ele>45.760258</ele>
        <time>2024-04-08T15:03:53.298Z</time>
      </trkpt>
      <trkpt lat="48.52353" lon="-2.72108">
        <ele>45.38059</ele>
        <time>2024-04-08T15:03:54.879Z</time>
      </trkpt>
      <trkpt lat="48.5241" lon="-2.72152">
        <ele>42.416462</ele>
        <time>2024-04-08T15:04:07.320Z</time>
      </trkpt>
      <trkpt lat="48.52473" lon="-2.72173">
        <ele>39.418123</ele>
        <time>2024-04-08T15:04:19.690Z</time>
      </trkpt>
      <trkpt lat="48.52486" lon="-2.72174">
        <ele>38.843047</ele>
        <time>2024-04-08T15:04:22.063Z</time>
      </trkpt>
      <trkpt lat="48.52523" lon="-2.72048">
        <ele>34.667002</ele>
        <time>2024-04-08T15:04:40.598Z</time>
      </trkpt>
      <trkpt lat="48.52531" lon="-2.72011">
        <ele>33.493137</ele>
        <time>2024-04-08T15:04:45.962Z</time>
      </trkpt>
      <trkpt lat="48.52551" lon="-2.71921">
        <ele>30.635935</ele>
        <time>2024-04-08T15:04:58.688Z</time>
      </trkpt>
      <trkpt lat="48.52556" lon="-2.71909">
        <ele>30.198554</ele>
        <time>2024-04-08T15:05:00.573Z</time>
      </trkpt>
      <trkpt lat="48.52562" lon="-2.71901">
        <ele>29.826148</ele>
        <time>2024-04-08T15:05:02.128Z</time>
      </trkpt>
      <trkpt lat="48.52568" lon="-2.71899">
        <ele>29.536266</ele>
        <time>2024-04-08T15:05:03.358Z</time>
      </trkpt>
      <trkpt lat="48.52624" lon="-2.71933">
        <ele>26.628098</ele>
        <time>2024-04-08T15:05:15.525Z</time>
      </trkpt>
      <trkpt lat="48.52625" lon="-2.71925">
        <ele>26.365377</ele>
        <time>2024-04-08T15:05:16.949Z</time>
      </trkpt>
      <trkpt lat="48.52624" lon="-2.71933">
        <ele>26.102656</ele>
        <time>2024-04-08T15:05:18.420Z</time>
      </trkpt>
      <trkpt lat="48.52642" lon="-2.71932">
        <ele>25.259688</ele>
        <time>2024-04-08T15:05:21.858Z</time>
      </trkpt>
      <trkpt lat="48.52649" lon="-2.71925">
        <ele>24.852777</ele>
        <time>2024-04-08T15:05:23.547Z</time>
      </trkpt>
      <trkpt lat="48.52657" lon="-2.71915">
        <ele>24.364803</ele>
        <time>2024-04-08T15:05:27.042Z</time>
      </trkpt>
      <trkpt lat="48.52658" lon="-2.71914">
        <ele>24.298478</ele>
        <time>2024-04-08T15:05:27.521Z</time>
      </trkpt>
      <trkpt lat="48.52662" lon="-2.71902">
        <ele>23.893524</ele>
        <time>2024-04-08T15:05:30.455Z</time>
      </trkpt>
      <trkpt lat="48.52664" lon="-2.71882">
        <ele>23.26174</ele>
        <time>2024-04-08T15:05:34.971Z</time>
      </trkpt>
      <trkpt lat="48.52672" lon="-2.71867">
        <ele>22.645841</ele>
        <time>2024-04-08T15:05:39.474Z</time>
      </trkpt>
      <trkpt lat="48.52721" lon="-2.7177">
        <ele>21.104547</ele>
        <time>2024-04-08T15:06:09.518Z</time>
      </trkpt>
      <trkpt lat="48.52733" lon="-2.71747">
        <ele>20.885622</ele>
        <time>2024-04-08T15:06:17.014Z</time>
      </trkpt>
      <trkpt lat="48.5274" lon="-2.71741">
        <ele>20.79051</ele>
        <time>2024-04-08T15:06:20.216Z</time>
      </trkpt>
      <trkpt lat="48.52779" lon="-2.7173">
        <ele>20.32619</ele>
        <time>2024-04-08T15:06:37.172Z</time>
      </trkpt>
      <trkpt lat="48.52788" lon="-2.71729">
        <ele>20.229961</ele>
        <time>2024-04-08T15:06:40.881Z</time>
      </trkpt>
      <trkpt lat="48.52792" lon="-2.71732">
        <ele>20.176622</ele>
        <time>2024-04-08T15:06:43.865Z</time>
      </trkpt>
      <trkpt lat="48.52794" lon="-2.71735">
        <ele>20.140145</ele>
        <time>2024-04-08T15:06:45.147Z</time>
      </trkpt>
      <trkpt lat="48.52794" lon="-2.71742">
        <ele>20.082015</ele>
        <time>2024-04-08T15:06:47.222Z</time>
      </trkpt>
      <trkpt lat="48.52776" lon="-2.71791">
        <ele>20.117054</ele>
        <time>2024-04-08T15:07:06.438Z</time>
      </trkpt>
      <trkpt lat="48.52769" lon="-2.71801">
        <ele>20.481581</ele>
        <time>2024-04-08T15:07:11.713Z</time>
      </trkpt>
      <trkpt lat="48.52754" lon="-2.71816">
        <ele>21.182613</ele>
        <time>2024-04-08T15:07:24.292Z</time>
      </trkpt>
      <trkpt lat="48.52714" lon="-2.71842">
        <ele>22.83491</ele>
        <time>2024-04-08T15:07:54.071Z</time>
      </trkpt>
      <trkpt lat="48.52672" lon="-2.71867">
        <ele>24.541755</ele>
        <time>2024-04-08T15:08:27.229Z</time>
      </trkpt>
      <trkpt lat="48.52664" lon="-2.71882">
        <ele>25.035293</ele>
        <time>2024-04-08T15:08:36.960Z</time>
      </trkpt>
      <trkpt lat="48.52662" lon="-2.71902">
        <ele>25.54156</ele>
        <time>2024-04-08T15:08:46.759Z</time>
      </trkpt>
      <trkpt lat="48.52658" lon="-2.71914">
        <ele>25.866061</ele>
        <time>2024-04-08T15:08:52.472Z</time>
      </trkpt>
      <trkpt lat="48.52657" lon="-2.71915">
        <ele>25.919209</ele>
        <time>2024-04-08T15:08:53.397Z</time>
      </trkpt>
      <trkpt lat="48.52649" lon="-2.71925">
        <ele>26.310237</ele>
        <time>2024-04-08T15:09:00.948Z</time>
      </trkpt>
      <trkpt lat="48.52642" lon="-2.71932">
        <ele>26.643659</ele>
        <time>2024-04-08T15:09:05.365Z</time>
      </trkpt>
      <trkpt lat="48.52651" lon="-2.7194">
        <ele>27.231734</ele>
        <time>2024-04-08T15:09:12.613Z</time>
      </trkpt>
      <trkpt lat="48.52652" lon="-2.7195">
        <ele>27.590892</ele>
        <time>2024-04-08T15:09:16.873Z</time>
      </trkpt>
      <trkpt lat="48.52642" lon="-2.72004">
        <ele>29.654823</ele>
        <time>2024-04-08T15:09:43.497Z</time>
      </trkpt>
      <trkpt lat="48.52642" lon="-2.72022">
        <ele>30.321326</ele>
        <time>2024-04-08T15:09:52.439Z</time>
      </trkpt>
      <trkpt lat="48.52641" lon="-2.72029">
        <ele>30.571252</ele>
        <time>2024-04-08T15:09:55.885Z</time>
      </trkpt>
      <trkpt lat="48.52699" lon="-2.72123">
        <ele>35.2822</ele>
        <time>2024-04-08T15:10:55.239Z</time>
      </trkpt>
      <trkpt lat="48.52706" lon="-2.72134">
        <ele>35.842203</ele>
        <time>2024-04-08T15:11:02.295Z</time>
      </trkpt>
      <trkpt lat="48.52745" lon="-2.7222">
        <ele>38.983564</ele>
        <time>2024-04-08T15:11:50.171Z</time>
      </trkpt>
      <trkpt lat="48.52748" lon="-2.72234">
        <ele>39.395981</ele>
        <time>2024-04-08T15:11:56.801Z</time>
      </trkpt>
      <trkpt lat="48.52749" lon="-2.7224">
        <ele>39.578896</ele>
        <time>2024-04-08T15:11:59.718Z</time>
      </trkpt>
      <trkpt lat="48.52761" lon="-2.72239">
        <ele>40.091716</ele>
        <time>2024-04-08T15:12:05.653Z</time>
      </trkpt>
      <trkpt lat="48.528" lon="-2.72248">
        <ele>41.82002</ele>
        <time>2024-04-08T15:12:26.815Z</time>
      </trkpt>
      <trkpt lat="48.52804" lon="-2.72256">
        <ele>42.105234</ele>
        <time>2024-04-08T15:12:30.222Z</time>
      </trkpt>
      <trkpt lat="48.52803" lon="-2.72271">
        <ele>42.535303</ele>
        <time>2024-04-08T15:12:36.600Z</time>
      </trkpt>
      <trkpt lat="48.52781" lon="-2.72362">
        <ele>43.935057</ele>
        <time>2024-04-08T15:13:03.215Z</time>
      </trkpt>
      <trkpt lat="48.52765" lon="-2.72406">
        <ele>43.285314</ele>
        <time>2024-04-08T15:13:11.828Z</time>
      </trkpt>
      <trkpt lat="48.52743" lon="-2.72444">
        <ele>42.62576</ele>
        <time>2024-04-08T15:13:19.264Z</time>
      </trkpt>
      <trkpt lat="48.52725" lon="-2.72464">
        <ele>42.188838</ele>
        <time>2024-04-08T15:13:23.891Z</time>
      </trkpt>
      <trkpt lat="48.52723" lon="-2.72484">
        <ele>41.932592</ele>
        <time>2024-04-08T15:13:26.539Z</time>
      </trkpt>
      <trkpt lat="48.52732" lon="-2.72504">
        <ele>41.623282</ele>
        <time>2024-04-08T15:13:29.681Z</time>
      </trkpt>
      <trkpt lat="48.52734" lon="-2.72517">
        <ele>41.438964</ele>
        <time>2024-04-08T15:13:31.512Z</time>
      </trkpt>
      <trkpt lat="48.52739" lon="-2.72579">
        <ele>40.062359</ele>
        <time>2024-04-08T15:13:39.429Z</time>
      </trkpt>
      <trkpt lat="48.52726" lon="-2.72635">
        <ele>37.291177</ele>
        <time>2024-04-08T15:13:46.801Z</time>
      </trkpt>
      <trkpt lat="48.52723" lon="-2.72668">
        <ele>35.698639</ele>
        <time>2024-04-08T15:13:50.720Z</time>
      </trkpt>
      <trkpt lat="48.52722" lon="-2.72708">
        <ele>33.830049</ele>
        <time>2024-04-08T15:13:55.312Z</time>
      </trkpt>
      <trkpt lat="48.52723" lon="-2.72825">
        <ele>28.293432</ele>
        <time>2024-04-08T15:14:08.985Z</time>
      </trkpt>
      <trkpt lat="48.52725" lon="-2.72854">
        <ele>26.932666</ele>
        <time>2024-04-08T15:14:12.284Z</time>
      </trkpt>
      <trkpt lat="48.52734" lon="-2.72875">
        <ele>25.777066</ele>
        <time>2024-04-08T15:14:15.744Z</time>
      </trkpt>
      <trkpt lat="48.52737" lon="-2.72886">
        <ele>25.166664</ele>
        <time>2024-04-08T15:14:17.102Z</time>
      </trkpt>
      <trkpt lat="48.5274" lon="-2.72922">
        <ele>23.481454</ele>
        <time>2024-04-08T15:14:21.430Z</time>
      </trkpt>
      <trkpt lat="48.5274" lon="-2.73005">
        <ele>19.567647</ele>
        <time>2024-04-08T15:14:30.997Z</time>
      </trkpt>
      <trkpt lat="48.52744" lon="-2.73043">
        <ele>17.759873</ele>
        <time>2024-04-08T15:14:35.641Z</time>
      </trkpt>
      <trkpt lat="48.52758" lon="-2.73096">
        <ele>15.213426</ele>
        <time>2024-04-08T15:14:42.598Z</time>
      </trkpt>
      <trkpt lat="48.52763" lon="-2.73117">
        <ele>14.866824</ele>
        <time>2024-04-08T15:14:45.687Z</time>
      </trkpt>
      <trkpt lat="48.52772" lon="-2.73131">
        <ele>14.563863</ele>
        <time>2024-04-08T15:14:48.582Z</time>
      </trkpt>
      <trkpt lat="48.52775" lon="-2.73135">
        <ele>14.468062</ele>
        <time>2024-04-08T15:14:49.546Z</time>
      </trkpt>
      <trkpt lat="48.52775" lon="-2.73221">
        <ele>13.125727</ele>
        <time>2024-04-08T15:15:03.540Z</time>
      </trkpt>
      <trkpt lat="48.52782" lon="-2.73277">
        <ele>12.235089</ele>
        <time>2024-04-08T15:15:11.763Z</time>
      </trkpt>
      <trkpt lat="48.52788" lon="-2.73339">
        <ele>11.235622</ele>
        <time>2024-04-08T15:15:20.369Z</time>
      </trkpt>
      <trkpt lat="48.52788" lon="-2.73378">
        <ele>10.767465</ele>
        <time>2024-04-08T15:15:26.384Z</time>
      </trkpt>
      <trkpt lat="48.52782" lon="-2.73477">
        <ele>9.783977</ele>
        <time>2024-04-08T15:15:42.715Z</time>
      </trkpt>
      <trkpt lat="48.52775" lon="-2.73516">
        <ele>9.388941</ele>
        <time>2024-04-08T15:15:48.960Z</time>
      </trkpt>
      <trkpt lat="48.5277" lon="-2.73535">
        <ele>9.181455</ele>
        <time>2024-04-08T15:15:52.173Z</time>
      </trkpt>
      <trkpt lat="48.5275" lon="-2.73577">
        <ele>8.673403</ele>
        <time>2024-04-08T15:15:59.650Z</time>
      </trkpt>
      <trkpt lat="48.52726" lon="-2.73617">
        <ele>8.201802</ele>
        <time>2024-04-08T15:16:07.298Z</time>
      </trkpt>
      <trkpt lat="48.52715" lon="-2.73631">
        <ele>8.05713</ele>
        <time>2024-04-08T15:16:10.555Z</time>
      </trkpt>
      <trkpt lat="48.52705" lon="-2.73635">
        <ele>7.961774</ele>
        <time>2024-04-08T15:16:12.697Z</time>
      </trkpt>
      <trkpt lat="48.52687" lon="-2.73637">
        <ele>7.78415</ele>
        <time>2024-04-08T15:16:16.701Z</time>
      </trkpt>
      <trkpt lat="48.5263" lon="-2.73665">
        <ele>7.206384</ele>
        <time>2024-04-08T15:16:30.725Z</time>
      </trkpt>
      <trkpt lat="48.52582" lon="-2.73683">
        <ele>6.717823</ele>
        <time>2024-04-08T15:16:44.085Z</time>
      </trkpt>
      <trkpt lat="48.52564" lon="-2.7369">
        <ele>6.608836</ele>
        <time>2024-04-08T15:16:49.549Z</time>
      </trkpt>
      <trkpt lat="48.52545" lon="-2.73703">
        <ele>6.824621</ele>
        <time>2024-04-08T15:16:55.566Z</time>
      </trkpt>
      <trkpt lat="48.52527" lon="-2.73722">
        <ele>7.045179</ele>
        <time>2024-04-08T15:17:02.200Z</time>
      </trkpt>
      <trkpt lat="48.52483" lon="-2.73782">
        <ele>7.65232</ele>
        <time>2024-04-08T15:17:19.898Z</time>
      </trkpt>
      <trkpt lat="48.52451" lon="-2.7384">
        <ele>8.168751</ele>
        <time>2024-04-08T15:17:36.616Z</time>
      </trkpt>
      <trkpt lat="48.5241" lon="-2.73943">
        <ele>10.19882</ele>
        <time>2024-04-08T15:18:10.053Z</time>
      </trkpt>
      <trkpt lat="48.52396" lon="-2.74032">
        <ele>12.15199</ele>
        <time>2024-04-08T15:18:40.081Z</time>
      </trkpt>
      <trkpt lat="48.52396" lon="-2.74046">
        <ele>12.453695</ele>
        <time>2024-04-08T15:18:44.383Z</time>
      </trkpt>
      <trkpt lat="48.5239" lon="-2.74055">
        <ele>12.734735</ele>
        <time>2024-04-08T15:18:49.373Z</time>
      </trkpt>
      <trkpt lat="48.52385" lon="-2.74056">
        <ele>12.877883</ele>
        <time>2024-04-08T15:18:51.581Z</time>
      </trkpt>
      <trkpt lat="48.52385" lon="-2.74055">
        <ele>12.900019</ele>
        <time>2024-04-08T15:18:51.878Z</time>
      </trkpt>
      <trkpt lat="48.52378" lon="-2.7405">
        <ele>13.159753</ele>
        <time>2024-04-08T15:18:55.259Z</time>
      </trkpt>
      <trkpt lat="48.52353" lon="-2.74051">
        <ele>13.954571</ele>
        <time>2024-04-08T15:19:07.895Z</time>
      </trkpt>
      <trkpt lat="48.52301" lon="-2.74061">
        <ele>15.542674</ele>
        <time>2024-04-08T15:19:32.251Z</time>
      </trkpt>
      <trkpt lat="48.523" lon="-2.74048">
        <ele>15.811395</ele>
        <time>2024-04-08T15:19:35.951Z</time>
      </trkpt>
      <trkpt lat="48.52245" lon="-2.74059">
        <ele>17.481595</ele>
        <time>2024-04-08T15:20:11.423Z</time>
      </trkpt>
      <trkpt lat="48.52194" lon="-2.74083">
        <ele>19.072738</ele>
        <time>2024-04-08T15:20:43.818Z</time>
      </trkpt>
      <trkpt lat="48.52127" lon="-2.7412">
        <ele>21.515951</ele>
        <time>2024-04-08T15:21:23.263Z</time>
      </trkpt>
      <trkpt lat="48.52097" lon="-2.74164">
        <ele>23.035392</ele>
        <time>2024-04-08T15:21:55.146Z</time>
      </trkpt>
      <trkpt lat="48.52085" lon="-2.74165">
        <ele>23.467445</ele>
        <time>2024-04-08T15:22:01.533Z</time>
      </trkpt>
      <trkpt lat="48.52076" lon="-2.74147">
        <ele>23.988529</ele>
        <time>2024-04-08T15:22:09.627Z</time>
      </trkpt>
      <trkpt lat="48.52054" lon="-2.74119">
        <ele>25.024292</ele>
        <time>2024-04-08T15:22:31.613Z</time>
      </trkpt>
      <trkpt lat="48.52045" lon="-2.74115">
        <ele>25.361895</ele>
        <time>2024-04-08T15:22:37.165Z</time>
      </trkpt>
      <trkpt lat="48.52038" lon="-2.74117">
        <ele>25.628293</ele>
        <time>2024-04-08T15:22:47.270Z</time>
      </trkpt>
      <trkpt lat="48.52032" lon="-2.74133">
        <ele>26.073515</ele>
        <time>2024-04-08T15:22:53.976Z</time>
      </trkpt>
      <trkpt lat="48.52008" lon="-2.7427">
        <ele>29.006042</ele>
        <time>2024-04-08T15:23:57.357Z</time>
      </trkpt>
      <trkpt lat="48.52009" lon="-2.74313">
        <ele>29.902994</ele>
        <time>2024-04-08T15:24:12.273Z</time>
      </trkpt>
      <trkpt lat="48.52017" lon="-2.74364">
        <ele>31.005268</ele>
        <time>2024-04-08T15:24:36.767Z</time>
      </trkpt>
      <trkpt lat="48.52036" lon="-2.74426">
        <ele>31.87486</ele>
        <time>2024-04-08T15:25:00.319Z</time>
      </trkpt>
      <trkpt lat="48.52037" lon="-2.74452">
        <ele>31.998653</ele>
        <time>2024-04-08T15:25:08.842Z</time>
      </trkpt>
      <trkpt lat="48.52035" lon="-2.7447">
        <ele>32.085726</ele>
        <time>2024-04-08T15:25:15.006Z</time>
      </trkpt>
      <trkpt lat="48.52019" lon="-2.74507">
        <ele>32.291803</ele>
        <time>2024-04-08T15:25:28.184Z</time>
      </trkpt>
      <trkpt lat="48.51999" lon="-2.7453">
        <ele>32.469758</ele>
        <time>2024-04-08T15:25:39.638Z</time>
      </trkpt>
      <trkpt lat="48.51962" lon="-2.74541">
        <ele>32.741549</ele>
        <time>2024-04-08T15:25:56.897Z</time>
      </trkpt>
      <trkpt lat="48.51927" lon="-2.74557">
        <ele>33.000355</ele>
        <time>2024-04-08T15:26:13.951Z</time>
      </trkpt>
      <trkpt lat="48.51892" lon="-2.74565">
        <ele>33.112884</ele>
        <time>2024-04-08T15:26:31.051Z</time>
      </trkpt>
      <trkpt lat="48.51885" lon="-2.74567">
        <ele>33.137069</ele>
        <time>2024-04-08T15:26:34.463Z</time>
      </trkpt>
      <trkpt lat="48.51879" lon="-2.74574">
        <ele>33.158673</ele>
        <time>2024-04-08T15:26:37.929Z</time>
      </trkpt>
      <trkpt lat="48.51877" lon="-2.74576">
        <ele>33.166425</ele>
        <time>2024-04-08T15:26:39.234Z</time>
      </trkpt>
      <trkpt lat="48.51869" lon="-2.74592">
        <ele>33.209246</ele>
        <time>2024-04-08T15:26:45.969Z</time>
      </trkpt>
      <trkpt lat="48.51852" lon="-2.74639">
        <ele>33.322933</ele>
        <time>2024-04-08T15:27:02.064Z</time>
      </trkpt>
      <trkpt lat="48.51843" lon="-2.74657">
        <ele>33.369949</ele>
        <time>2024-04-08T15:27:08.312Z</time>
      </trkpt>
      <trkpt lat="48.51786" lon="-2.74736">
        <ele>33.92422</ele>
        <time>2024-04-08T15:27:43.011Z</time>
      </trkpt>
      <trkpt lat="48.51769" lon="-2.74753">
        <ele>34.425546</ele>
        <time>2024-04-08T15:27:53.643Z</time>
      </trkpt>
      <trkpt lat="48.51763" lon="-2.74762">
        <ele>34.644906</ele>
        <time>2024-04-08T15:27:57.616Z</time>
      </trkpt>
      <trkpt lat="48.51761" lon="-2.74764">
        <ele>34.711313</ele>
        <time>2024-04-08T15:27:58.703Z</time>
      </trkpt>
      <trkpt lat="48.51761" lon="-2.74774">
        <ele>34.866309</ele>
        <time>2024-04-08T15:28:01.888Z</time>
      </trkpt>
      <trkpt lat="48.51758" lon="-2.74761">
        <ele>35.088618</ele>
        <time>2024-04-08T15:28:06.715Z</time>
      </trkpt>
      <trkpt lat="48.51754" lon="-2.74757">
        <ele>35.195177</ele>
        <time>2024-04-08T15:28:09.267Z</time>
      </trkpt>
      <trkpt lat="48.51752" lon="-2.74752">
        <ele>35.302433</ele>
        <time>2024-04-08T15:28:11.816Z</time>
      </trkpt>
      <trkpt lat="48.51748" lon="-2.74746">
        <ele>35.441584</ele>
        <time>2024-04-08T15:28:14.081Z</time>
      </trkpt>
      <trkpt lat="48.51745" lon="-2.74738">
        <ele>35.60713</ele>
        <time>2024-04-08T15:28:17.134Z</time>
      </trkpt>
      <trkpt lat="48.51732" lon="-2.74757">
        <ele>36.062387</ele>
        <time>2024-04-08T15:28:27.952Z</time>
      </trkpt>
      <trkpt lat="48.51701" lon="-2.74777">
        <ele>36.902691</ele>
        <time>2024-04-08T15:28:49.023Z</time>
      </trkpt>
      <trkpt lat="48.51658" lon="-2.74836">
        <ele>38.744057</ele>
        <time>2024-04-08T15:29:21.175Z</time>
      </trkpt>
      <trkpt lat="48.51639" lon="-2.74844">
        <ele>39.868933</ele>
        <time>2024-04-08T15:29:33.034Z</time>
      </trkpt>
      <trkpt lat="48.51629" lon="-2.74858">
        <ele>40.67755</ele>
        <time>2024-04-08T15:29:42.496Z</time>
      </trkpt>
      <trkpt lat="48.51618" lon="-2.74875">
        <ele>41.574163</ele>
        <time>2024-04-08T15:29:52.382Z</time>
      </trkpt>
      <trkpt lat="48.51599" lon="-2.74914">
        <ele>43.465152</ele>
        <time>2024-04-08T15:30:15.079Z</time>
      </trkpt>
      <trkpt lat="48.51575" lon="-2.74937">
        <ele>45.133222</ele>
        <time>2024-04-08T15:30:36.207Z</time>
      </trkpt>
      <trkpt lat="48.5154" lon="-2.74957">
        <ele>47.356541</ele>
        <time>2024-04-08T15:31:04.554Z</time>
      </trkpt>
      <trkpt lat="48.51499" lon="-2.74997">
        <ele>49.792795</ele>
        <time>2024-04-08T15:31:29.769Z</time>
      </trkpt>
      <trkpt lat="48.51429" lon="-2.75096">
        <ele>54.020178</ele>
        <time>2024-04-08T15:32:26.389Z</time>
      </trkpt>
      <trkpt lat="48.51433" lon="-2.75104">
        <ele>54.317859</ele>
        <time>2024-04-08T15:32:28.716Z</time>
      </trkpt>
      <trkpt lat="48.51445" lon="-2.7514">
        <ele>55.487543</ele>
        <time>2024-04-08T15:32:50.520Z</time>
      </trkpt>
      <trkpt lat="48.51429" lon="-2.75162">
        <ele>56.425191</ele>
        <time>2024-04-08T15:32:59.424Z</time>
      </trkpt>
      <trkpt lat="48.51421" lon="-2.75177">
        <ele>56.879376</ele>
        <time>2024-04-08T15:33:06.427Z</time>
      </trkpt>
      <trkpt lat="48.51408" lon="-2.75231">
        <ele>58.168834</ele>
        <time>2024-04-08T15:33:24.218Z</time>
      </trkpt>
      <trkpt lat="48.51384" lon="-2.75372">
        <ele>61.443817</ele>
        <time>2024-04-08T15:34:07.065Z</time>
      </trkpt>
      <trkpt lat="48.51367" lon="-2.75407">
        <ele>62.429929</ele>
        <time>2024-04-08T15:34:21.853Z</time>
      </trkpt>
      <trkpt lat="48.51355" lon="-2.75423">
        <ele>62.853664</ele>
        <time>2024-04-08T15:34:32.117Z</time>
      </trkpt>
      <trkpt lat="48.51345" lon="-2.75434">
        <ele>63.119667</ele>
        <time>2024-04-08T15:34:36.955Z</time>
      </trkpt>
      <trkpt lat="48.51328" lon="-2.75441">
        <ele>63.484854</ele>
        <time>2024-04-08T15:34:45.595Z</time>
      </trkpt>
      <trkpt lat="48.51308" lon="-2.75442">
        <ele>63.937558</ele>
        <time>2024-04-08T15:34:53.639Z</time>
      </trkpt>
      <trkpt lat="48.51292" lon="-2.75439">
        <ele>64.267515</ele>
        <time>2024-04-08T15:35:00.429Z</time>
      </trkpt>
      <trkpt lat="48.51231" lon="-2.75398">
        <ele>65.72712</ele>
        <time>2024-04-08T15:35:23.974Z</time>
      </trkpt>
      <trkpt lat="48.51213" lon="-2.75392">
        <ele>66.124851</ele>
        <time>2024-04-08T15:35:31.632Z</time>
      </trkpt>
      <trkpt lat="48.5115" lon="-2.7538">
        <ele>66.939311</ele>
        <time>2024-04-08T15:35:51.766Z</time>
      </trkpt>
      <trkpt lat="48.51132" lon="-2.75385">
        <ele>67.107486</ele>
        <time>2024-04-08T15:35:57.527Z</time>
      </trkpt>
      <trkpt lat="48.51097" lon="-2.75398">
        <ele>67.447603</ele>
        <time>2024-04-08T15:36:09.041Z</time>
      </trkpt>
      <trkpt lat="48.51082" lon="-2.75406">
        <ele>67.592015</ele>
        <time>2024-04-08T15:36:15.194Z</time>
      </trkpt>
      <trkpt lat="48.51072" lon="-2.75417">
        <ele>67.709634</ele>
        <time>2024-04-08T15:36:19.123Z</time>
      </trkpt>
      <trkpt lat="48.51069" lon="-2.75413">
        <ele>67.748899</ele>
        <time>2024-04-08T15:36:20.070Z</time>
      </trkpt>
      <trkpt lat="48.5106" lon="-2.75401">
        <ele>67.863408</ele>
        <time>2024-04-08T15:36:23.243Z</time>
      </trkpt>
      <trkpt lat="48.51057" lon="-2.75398">
        <ele>67.894382</ele>
        <time>2024-04-08T15:36:24.711Z</time>
      </trkpt>
      <trkpt lat="48.51034" lon="-2.75422">
        <ele>68.15474</ele>
        <time>2024-04-08T15:36:44.130Z</time>
      </trkpt>
      <trkpt lat="48.51016" lon="-2.75429">
        <ele>68.499625</ele>
        <time>2024-04-08T15:36:57.373Z</time>
      </trkpt>
      <trkpt lat="48.51" lon="-2.75421">
        <ele>68.840664</ele>
        <time>2024-04-08T15:37:08.784Z</time>
      </trkpt>
      <trkpt lat="48.50983" lon="-2.75423">
        <ele>69.202703</ele>
        <time>2024-04-08T15:37:20.956Z</time>
      </trkpt>
      <trkpt lat="48.50963" lon="-2.75438">
        <ele>69.664317</ele>
        <time>2024-04-08T15:37:36.385Z</time>
      </trkpt>
      <trkpt lat="48.50956" lon="-2.75453">
        <ele>69.913031</ele>
        <time>2024-04-08T15:37:43.153Z</time>
      </trkpt>
      <trkpt lat="48.50936" lon="-2.75483">
        <ele>70.493873</ele>
        <time>2024-04-08T15:37:53.035Z</time>
      </trkpt>
      <trkpt lat="48.50931" lon="-2.75572">
        <ele>71.730106</ele>
        <time>2024-04-08T15:38:19.753Z</time>
      </trkpt>
      <trkpt lat="48.50944" lon="-2.75595">
        <ele>72.136885</ele>
        <time>2024-04-08T15:38:29.734Z</time>
      </trkpt>
      <trkpt lat="48.50947" lon="-2.756">
        <ele>72.230037</ele>
        <time>2024-04-08T15:38:31.541Z</time>
      </trkpt>
      <trkpt lat="48.50906" lon="-2.75659">
        <ele>73.390708</ele>
        <time>2024-04-08T15:39:03.822Z</time>
      </trkpt>
      <trkpt lat="48.50849" lon="-2.75689">
        <ele>74.62404</ele>
        <time>2024-04-08T15:39:36.198Z</time>
      </trkpt>
      <trkpt lat="48.5083" lon="-2.75703">
        <ele>75.057582</ele>
        <time>2024-04-08T15:39:50.030Z</time>
      </trkpt>
      <trkpt lat="48.50811" lon="-2.75748">
        <ele>75.698603</ele>
        <time>2024-04-08T15:40:09.278Z</time>
      </trkpt>
      <trkpt lat="48.50764" lon="-2.75801">
        <ele>76.425504</ele>
        <time>2024-04-08T15:40:39.323Z</time>
      </trkpt>
      <trkpt lat="48.50733" lon="-2.75824">
        <ele>76.852857</ele>
        <time>2024-04-08T15:40:56.856Z</time>
      </trkpt>
      <trkpt lat="48.50707" lon="-2.7583">
        <ele>77.173391</ele>
        <time>2024-04-08T15:41:09.076Z</time>
      </trkpt>
      <trkpt lat="48.50709" lon="-2.75836">
        <ele>77.229269</ele>
        <time>2024-04-08T15:41:09.849Z</time>
      </trkpt>
      <trkpt lat="48.50696" lon="-2.7587">
        <ele>77.552145</ele>
        <time>2024-04-08T15:41:20.931Z</time>
      </trkpt>
      <trkpt lat="48.50662" lon="-2.75897">
        <ele>77.816911</ele>
        <time>2024-04-08T15:41:39.662Z</time>
      </trkpt>
      <trkpt lat="48.50639" lon="-2.75922">
        <ele>77.818169</ele>
        <time>2024-04-08T15:41:51.689Z</time>
      </trkpt>
      <trkpt lat="48.50607" lon="-2.75972">
        <ele>77.82026</ele>
        <time>2024-04-08T15:42:15.230Z</time>
      </trkpt>
      <trkpt lat="48.50607" lon="-2.75972">
        <ele>77.820283</ele>
        <time>2024-04-08T15:42:15.501Z</time>
      </trkpt>
      <trkpt lat="48.50612" lon="-2.75979">
        <ele>77.820577</ele>
        <time>2024-04-08T15:42:16.630Z</time>
      </trkpt>
      <trkpt lat="48.50605" lon="-2.7599">
        <ele>77.821037</ele>
        <time>2024-04-08T15:42:19.652Z</time>
      </trkpt>
      <trkpt lat="48.50595" lon="-2.75995">
        <ele>77.821504</ele>
        <time>2024-04-08T15:42:23.213Z</time>
      </trkpt>
      <trkpt lat="48.50578" lon="-2.75999">
        <ele>77.822283</ele>
        <time>2024-04-08T15:42:27.519Z</time>
      </trkpt>
      <trkpt lat="48.50564" lon="-2.75998">
        <ele>77.82291</ele>
        <time>2024-04-08T15:42:31.726Z</time>
      </trkpt>
      <trkpt lat="48.50546" lon="-2.75999">
        <ele>77.823702</ele>
        <time>2024-04-08T15:42:36.201Z</time>
      </trkpt>
      <trkpt lat="48.50523" lon="-2.76009">
        <ele>77.777894</ele>
        <time>2024-04-08T15:42:42.431Z</time>
      </trkpt>
      <trkpt lat="48.50505" lon="-2.76023">
        <ele>77.699601</ele>
        <time>2024-04-08T15:42:47.141Z</time>
      </trkpt>
      <trkpt lat="48.50493" lon="-2.76039">
        <ele>77.637682</ele>
        <time>2024-04-08T15:42:51.848Z</time>
      </trkpt>
      <trkpt lat="48.50482" lon="-2.76046">
        <ele>77.591301</ele>
        <time>2024-04-08T15:42:54.860Z</time>
      </trkpt>
      <trkpt lat="48.50476" lon="-2.76046">
        <ele>77.567859</ele>
        <time>2024-04-08T15:42:56.250Z</time>
      </trkpt>
      <trkpt lat="48.50374" lon="-2.76013">
        <ele>77.159495</ele>
        <time>2024-04-08T15:43:22.569Z</time>
      </trkpt>
      <trkpt lat="48.50363" lon="-2.7601">
        <ele>77.120345</ele>
        <time>2024-04-08T15:43:25.464Z</time>
      </trkpt>
      <trkpt lat="48.5035" lon="-2.76013">
        <ele>77.10844</ele>
        <time>2024-04-08T15:43:29.154Z</time>
      </trkpt>
      <trkpt lat="48.50334" lon="-2.76001">
        <ele>77.093069</ele>
        <time>2024-04-08T15:43:36.752Z</time>
      </trkpt>
      <trkpt lat="48.50322" lon="-2.75983">
        <ele>77.078243</ele>
        <time>2024-04-08T15:43:43.888Z</time>
      </trkpt>
      <trkpt lat="48.50306" lon="-2.75971">
        <ele>77.06256</ele>
        <time>2024-04-08T15:43:51.885Z</time>
      </trkpt>
      <trkpt lat="48.50283" lon="-2.75948">
        <ele>77.038786</ele>
        <time>2024-04-08T15:44:03.896Z</time>
      </trkpt>
      <trkpt lat="48.5026" lon="-2.75906">
        <ele>77.007071</ele>
        <time>2024-04-08T15:44:20.349Z</time>
      </trkpt>
      <trkpt lat="48.50238" lon="-2.75852">
        <ele>76.970036</ele>
        <time>2024-04-08T15:44:39.638Z</time>
      </trkpt>
      <trkpt lat="48.502" lon="-2.75797">
        <ele>77.027027</ele>
        <time>2024-04-08T15:45:02.655Z</time>
      </trkpt>
      <trkpt lat="48.502" lon="-2.7579">
        <ele>77.033198</ele>
        <time>2024-04-08T15:45:04.574Z</time>
      </trkpt>
      <trkpt lat="48.50199" lon="-2.75777">
        <ele>77.04554</ele>
        <time>2024-04-08T15:45:08.530Z</time>
      </trkpt>
      <trkpt lat="48.50184" lon="-2.75779">
        <ele>77.066949</ele>
        <time>2024-04-08T15:45:15.408Z</time>
      </trkpt>
      <trkpt lat="48.50154" lon="-2.75753">
        <ele>77.115168</ele>
        <time>2024-04-08T15:45:30.884Z</time>
      </trkpt>
      <trkpt lat="48.50121" lon="-2.75745">
        <ele>77.16019</ele>
        <time>2024-04-08T15:45:45.073Z</time>
      </trkpt>
      <trkpt lat="48.50119" lon="-2.75745">
        <ele>77.163139</ele>
        <time>2024-04-08T15:45:45.994Z</time>
      </trkpt>
      <trkpt lat="48.50107" lon="-2.75747">
        <ele>77.179735</ele>
        <time>2024-04-08T15:45:51.805Z</time>
      </trkpt>
      <trkpt lat="48.50099" lon="-2.75754">
        <ele>77.193465</ele>
        <time>2024-04-08T15:45:56.592Z</time>
      </trkpt>
      <trkpt lat="48.50102" lon="-2.75774">
        <ele>77.212219</ele>
        <time>2024-04-08T15:46:02.592Z</time>
      </trkpt>
      <trkpt lat="48.50098" lon="-2.75782">
        <ele>77.300237</ele>
        <time>2024-04-08T15:46:05.928Z</time>
      </trkpt>
      <trkpt lat="48.50092" lon="-2.75786">
        <ele>77.400397</ele>
        <time>2024-04-08T15:46:09.153Z</time>
      </trkpt>
      <trkpt lat="48.50083" lon="-2.75786">
        <ele>77.536193</ele>
        <time>2024-04-08T15:46:13.636Z</time>
      </trkpt>
      <trkpt lat="48.50058" lon="-2.75798">
        <ele>77.944536</ele>
        <time>2024-04-08T15:46:26.726Z</time>
      </trkpt>
      <trkpt lat="48.50048" lon="-2.75808">
        <ele>78.130542</ele>
        <time>2024-04-08T15:46:33.193Z</time>
      </trkpt>
      <trkpt lat="48.50037" lon="-2.75859">
        <ele>78.67517</ele>
        <time>2024-04-08T15:46:52.560Z</time>
      </trkpt>
      <trkpt lat="48.50034" lon="-2.75868">
        <ele>78.786584</ele>
        <time>2024-04-08T15:46:56.041Z</time>
      </trkpt>
      <trkpt lat="48.50032" lon="-2.75875">
        <ele>78.861162</ele>
        <time>2024-04-08T15:46:58.255Z</time>
      </trkpt>
      <trkpt lat="48.49968" lon="-2.75887">
        <ele>79.852598</ele>
        <time>2024-04-08T15:47:23.638Z</time>
      </trkpt>
      <trkpt lat="48.49961" lon="-2.75896">
        <ele>79.992686</ele>
        <time>2024-04-08T15:47:26.650Z</time>
      </trkpt>
      <trkpt lat="48.49937" lon="-2.75962">
        <ele>80.981625</ele>
        <time>2024-04-08T15:47:48.392Z</time>
      </trkpt>
      <trkpt lat="48.49944" lon="-2.75971">
        <ele>81.172356</ele>
        <time>2024-04-08T15:47:54.474Z</time>
      </trkpt>
      <trkpt lat="48.49955" lon="-2.76005">
        <ele>81.667208</ele>
        <time>2024-04-08T15:48:09.576Z</time>
      </trkpt>
      <trkpt lat="48.49959" lon="-2.76043">
        <ele>82.174804</ele>
        <time>2024-04-08T15:48:24.505Z</time>
      </trkpt>
      <trkpt lat="48.49991" lon="-2.76127">
        <ele>83.449715</ele>
        <time>2024-04-08T15:48:59.171Z</time>
      </trkpt>
      <trkpt lat="48.50001" lon="-2.76144">
        <ele>83.570525</ele>
        <time>2024-04-08T15:49:06.919Z</time>
      </trkpt>
      <trkpt lat="48.5003" lon="-2.76178">
        <ele>83.643893</ele>
        <time>2024-04-08T15:49:24.269Z</time>
      </trkpt>
      <trkpt lat="48.5008" lon="-2.76217">
        <ele>83.756774</ele>
        <time>2024-04-08T15:49:48.969Z</time>
      </trkpt>
      <trkpt lat="48.50089" lon="-2.76224">
        <ele>83.777826</ele>
        <time>2024-04-08T15:49:54.191Z</time>
      </trkpt>
      <trkpt lat="48.50099" lon="-2.76244">
        <ele>83.810045</ele>
        <time>2024-04-08T15:50:00.662Z</time>
      </trkpt>
      <trkpt lat="48.50101" lon="-2.76262">
        <ele>83.833808</ele>
        <time>2024-04-08T15:50:06.046Z</time>
      </trkpt>
      <trkpt lat="48.50099" lon="-2.76283">
        <ele>83.86298</ele>
        <time>2024-04-08T15:50:13.440Z</time>
      </trkpt>
      <trkpt lat="48.50094" lon="-2.76319">
        <ele>83.911748</ele>
        <time>2024-04-08T15:50:23.792Z</time>
      </trkpt>
      <trkpt lat="48.50094" lon="-2.7635">
        <ele>83.997841</ele>
        <time>2024-04-08T15:50:32.436Z</time>
      </trkpt>
      <trkpt lat="48.50094" lon="-2.76355">
        <ele>84.01041</ele>
        <time>2024-04-08T15:50:33.624Z</time>
      </trkpt>
      <trkpt lat="48.5011" lon="-2.76352">
        <ele>84.078242</ele>
        <time>2024-04-08T15:50:41.744Z</time>
      </trkpt>
      <trkpt lat="48.5011" lon="-2.76357">
        <ele>84.092789</ele>
        <time>2024-04-08T15:50:43.403Z</time>
      </trkpt>
      <trkpt lat="48.50115" lon="-2.76357">
        <ele>84.113491</ele>
        <time>2024-04-08T15:50:44.921Z</time>
      </trkpt>
      <trkpt lat="48.50115" lon="-2.76373">
        <ele>84.159033</ele>
        <time>2024-04-08T15:50:48.151Z</time>
      </trkpt>
      <trkpt lat="48.50116" lon="-2.76385">
        <ele>84.192122</ele>
        <time>2024-04-08T15:50:51.494Z</time>
      </trkpt>
      <trkpt lat="48.50112" lon="-2.76404">
        <ele>84.249933</ele>
        <time>2024-04-08T15:50:57.721Z</time>
      </trkpt>
      <trkpt lat="48.50121" lon="-2.76407">
        <ele>84.291782</ele>
        <time>2024-04-08T15:51:01.029Z</time>
      </trkpt>
      <trkpt lat="48.50113" lon="-2.76492">
        <ele>84.531566</ele>
        <time>2024-04-08T15:51:23.468Z</time>
      </trkpt>
      <trkpt lat="48.50117" lon="-2.76497">
        <ele>84.553502</ele>
        <time>2024-04-08T15:51:26.098Z</time>
      </trkpt>
      <trkpt lat="48.50083" lon="-2.76547">
        <ele>84.929513</ele>
        <time>2024-04-08T15:51:48.196Z</time>
      </trkpt>
      <trkpt lat="48.50054" lon="-2.76587">
        <ele>85.434304</ele>
        <time>2024-04-08T15:52:09.453Z</time>
      </trkpt>
      <trkpt lat="48.50026" lon="-2.76649">
        <ele>86.068703</ele>
        <time>2024-04-08T15:52:36.854Z</time>
      </trkpt>
      <trkpt lat="48.50026" lon="-2.7665">
        <ele>86.085777</ele>
        <time>2024-04-08T15:52:37.586Z</time>
      </trkpt>
      <trkpt lat="48.49954" lon="-2.76704">
        <ele>87.103902</ele>
        <time>2024-04-08T15:53:19.427Z</time>
      </trkpt>
      <trkpt lat="48.49919" lon="-2.76722">
        <ele>87.509705</ele>
        <time>2024-04-08T15:53:37.466Z</time>
      </trkpt>
      <trkpt lat="48.49874" lon="-2.76769">
        <ele>88.124036</ele>
        <time>2024-04-08T15:54:04.866Z</time>
      </trkpt>
      <trkpt lat="48.49842" lon="-2.76812">
        <ele>88.599556</ele>
        <time>2024-04-08T15:54:26.017Z</time>
      </trkpt>
      <trkpt lat="48.49846" lon="-2.76846">
        <ele>88.857344</ele>
        <time>2024-04-08T15:54:37.532Z</time>
      </trkpt>
      <trkpt lat="48.49828" lon="-2.76848">
        <ele>89.110483</ele>
        <time>2024-04-08T15:54:44.069Z</time>
      </trkpt>
      <trkpt lat="48.4973" lon="-2.76928">
        <ele>91.36917</ele>
        <time>2024-04-08T15:55:26.824Z</time>
      </trkpt>
      <trkpt lat="48.49687" lon="-2.76963">
        <ele>92.380458</ele>
        <time>2024-04-08T15:55:48.908Z</time>
      </trkpt>
      <trkpt lat="48.49579" lon="-2.77042">
        <ele>93.930568</ele>
        <time>2024-04-08T15:56:34.953Z</time>
      </trkpt>
      <trkpt lat="48.49548" lon="-2.77059">
        <ele>94.319474</ele>
        <time>2024-04-08T15:56:45.113Z</time>
      </trkpt>
      <trkpt lat="48.49564" lon="-2.77073">
        <ele>94.533797</ele>
        <time>2024-04-08T15:56:53.389Z</time>
      </trkpt>
      <trkpt lat="48.49582" lon="-2.77071">
        <ele>94.747483</ele>
        <time>2024-04-08T15:57:00.708Z</time>
      </trkpt>
      <trkpt lat="48.49613" lon="-2.77073">
        <ele>94.690407</ele>
        <time>2024-04-08T15:57:13.857Z</time>
      </trkpt>
      <trkpt lat="48.49619" lon="-2.77076">
        <ele>94.660621</ele>
        <time>2024-04-08T15:57:16.389Z</time>
      </trkpt>
      <trkpt lat="48.49626" lon="-2.77085">
        <ele>94.614987</ele>
        <time>2024-04-08T15:57:21.223Z</time>
      </trkpt>
      <trkpt lat="48.49642" lon="-2.77123">
        <ele>94.471115</ele>
        <time>2024-04-08T15:57:33.044Z</time>
      </trkpt>
      <trkpt lat="48.49642" lon="-2.77123">
        <ele>94.471115</ele>
        <time>2024-04-08T15:57:33.104Z</time>
      </trkpt>
      <trkpt lat="48.49642" lon="-2.77123">
        <ele>94.471115</ele>
        <time>2024-04-08T15:57:33.104Z</time>
      </trkpt>
      <trkpt lat="48.49682" lon="-2.77187">
        <ele>94.188154</ele>
        <time>2024-04-08T15:57:48.220Z</time>
      </trkpt>
      <trkpt lat="48.49693" lon="-2.77208">
        <ele>94.10419</ele>
        <time>2024-04-08T15:57:55.875Z</time>
      </trkpt>
      <trkpt lat="48.49698" lon="-2.77231">
        <ele>94.025473</ele>
        <time>2024-04-08T15:58:02.620Z</time>
      </trkpt>
      <trkpt lat="48.49702" lon="-2.7728">
        <ele>94.043528</ele>
        <time>2024-04-08T15:58:11.896Z</time>
      </trkpt>
      <trkpt lat="48.49702" lon="-2.77282">
        <ele>94.051551</ele>
        <time>2024-04-08T15:58:12.227Z</time>
      </trkpt>
      <trkpt lat="48.4971" lon="-2.77295">
        <ele>94.124877</ele>
        <time>2024-04-08T15:58:15.086Z</time>
      </trkpt>
      <trkpt lat="48.49726" lon="-2.77328">
        <ele>94.295173</ele>
        <time>2024-04-08T15:58:24.449Z</time>
      </trkpt>
      <trkpt lat="48.49729" lon="-2.77334">
        <ele>94.327831</ele>
        <time>2024-04-08T15:58:25.894Z</time>
      </trkpt>
      <trkpt lat="48.49717" lon="-2.77348">
        <ele>94.425722</ele>
        <time>2024-04-08T15:58:30.728Z</time>
      </trkpt>
      <trkpt lat="48.49744" lon="-2.77406">
        <ele>94.726277</ele>
        <time>2024-04-08T15:58:46.324Z</time>
      </trkpt>
      <trkpt lat="48.49747" lon="-2.77411">
        <ele>94.755539</ele>
        <time>2024-04-08T15:58:47.645Z</time>
      </trkpt>
      <trkpt lat="48.49762" lon="-2.77435">
        <ele>94.891843</ele>
        <time>2024-04-08T15:58:55.047Z</time>
      </trkpt>
      <trkpt lat="48.49777" lon="-2.77474">
        <ele>95.082054</ele>
        <time>2024-04-08T15:59:04.769Z</time>
      </trkpt>
      <trkpt lat="48.49802" lon="-2.77533">
        <ele>95.535602</ele>
        <time>2024-04-08T15:59:20.026Z</time>
      </trkpt>
      <trkpt lat="48.4982" lon="-2.77587">
        <ele>95.929012</ele>
        <time>2024-04-08T15:59:32.883Z</time>
      </trkpt>
      <trkpt lat="48.49821" lon="-2.7761">
        <ele>96.076551</ele>
        <time>2024-04-08T15:59:37.139Z</time>
      </trkpt>
      <trkpt lat="48.49817" lon="-2.77646">
        <ele>96.317279</ele>
        <time>2024-04-08T15:59:45.907Z</time>
      </trkpt>
      <trkpt lat="48.49814" lon="-2.77656">
        <ele>96.384646</ele>
        <time>2024-04-08T15:59:49.044Z</time>
      </trkpt>
      <trkpt lat="48.49802" lon="-2.77708">
        <ele>96.745931</ele>
        <time>2024-04-08T16:00:07.886Z</time>
      </trkpt>
      <trkpt lat="48.49801" lon="-2.77714">
        <ele>96.786121</ele>
        <time>2024-04-08T16:00:09.801Z</time>
      </trkpt>
      <trkpt lat="48.49799" lon="-2.77725">
        <ele>96.869187</ele>
        <time>2024-04-08T16:00:14.344Z</time>
      </trkpt>
      <trkpt lat="48.49797" lon="-2.77732">
        <ele>96.968415</ele>
        <time>2024-04-08T16:00:17.060Z</time>
      </trkpt>
      <trkpt lat="48.49728" lon="-2.77829">
        <ele>98.785387</ele>
        <time>2024-04-08T16:01:09.916Z</time>
      </trkpt>
      <trkpt lat="48.4971" lon="-2.77854">
        <ele>99.261551</ele>
        <time>2024-04-08T16:01:23.905Z</time>
      </trkpt>
      <trkpt lat="48.49688" lon="-2.77889">
        <ele>99.873388</ele>
        <time>2024-04-08T16:01:41.932Z</time>
      </trkpt>
      <trkpt lat="48.49678" lon="-2.77934">
        <ele>100.502615</ele>
        <time>2024-04-08T16:02:00.027Z</time>
      </trkpt>
      <trkpt lat="48.49671" lon="-2.77945">
        <ele>100.701178</ele>
        <time>2024-04-08T16:02:05.892Z</time>
      </trkpt>
      <trkpt lat="48.49663" lon="-2.7795">
        <ele>100.884264</ele>
        <time>2024-04-08T16:02:10.866Z</time>
      </trkpt>
      <trkpt lat="48.49653" lon="-2.77952">
        <ele>101.110803</ele>
        <time>2024-04-08T16:02:17.009Z</time>
      </trkpt>
      <trkpt lat="48.49648" lon="-2.77954">
        <ele>101.218749</ele>
        <time>2024-04-08T16:02:19.529Z</time>
      </trkpt>
      <trkpt lat="48.49631" lon="-2.78011">
        <ele>102.104796</ele>
        <time>2024-04-08T16:02:43.757Z</time>
      </trkpt>
      <trkpt lat="48.49606" lon="-2.78075">
        <ele>103.155504</ele>
        <time>2024-04-08T16:03:12.807Z</time>
      </trkpt>
      <trkpt lat="48.4958" lon="-2.78177">
        <ele>104.5304</ele>
        <time>2024-04-08T16:03:53.262Z</time>
      </trkpt>
      <trkpt lat="48.4956" lon="-2.78236">
        <ele>105.186169</ele>
        <time>2024-04-08T16:04:17.146Z</time>
      </trkpt>
      <trkpt lat="48.4955" lon="-2.78284">
        <ele>105.682047</ele>
        <time>2024-04-08T16:04:34.618Z</time>
      </trkpt>
      <trkpt lat="48.49552" lon="-2.78292">
        <ele>105.767864</ele>
        <time>2024-04-08T16:04:37.508Z</time>
      </trkpt>
      <trkpt lat="48.49555" lon="-2.78294">
        <ele>105.809709</ele>
        <time>2024-04-08T16:04:38.885Z</time>
      </trkpt>
      <trkpt lat="48.49563" lon="-2.78304">
        <ele>105.969106</ele>
        <time>2024-04-08T16:04:44.475Z</time>
      </trkpt>
      <trkpt lat="48.49528" lon="-2.78397">
        <ele>107.012793</ele>
        <time>2024-04-08T16:05:08.414Z</time>
      </trkpt>
      <trkpt lat="48.49524" lon="-2.78408">
        <ele>107.138658</ele>
        <time>2024-04-08T16:05:11.537Z</time>
      </trkpt>
      <trkpt lat="48.49484" lon="-2.78468">
        <ele>107.934667</ele>
        <time>2024-04-08T16:05:30.605Z</time>
      </trkpt>
      <trkpt lat="48.4947" lon="-2.78502">
        <ele>108.312909</ele>
        <time>2024-04-08T16:05:39.486Z</time>
      </trkpt>
      <trkpt lat="48.49414" lon="-2.78585">
        <ele>109.437931</ele>
        <time>2024-04-08T16:06:07.984Z</time>
      </trkpt>
      <trkpt lat="48.49342" lon="-2.78725">
        <ele>111.712035</ele>
        <time>2024-04-08T16:06:54.426Z</time>
      </trkpt>
      <trkpt lat="48.49333" lon="-2.78733">
        <ele>111.909893</ele>
        <time>2024-04-08T16:06:58.387Z</time>
      </trkpt>
      <trkpt lat="48.49332" lon="-2.78735">
        <ele>111.941641</ele>
        <time>2024-04-08T16:06:59.020Z</time>
      </trkpt>
      <trkpt lat="48.49326" lon="-2.78735">
        <ele>112.059795</ele>
        <time>2024-04-08T16:07:01.254Z</time>
      </trkpt>
      <trkpt lat="48.49294" lon="-2.78733">
        <ele>112.678872</ele>
        <time>2024-04-08T16:07:18.865Z</time>
      </trkpt>
      <trkpt lat="48.49282" lon="-2.78765">
        <ele>113.144209</ele>
        <time>2024-04-08T16:07:27.692Z</time>
      </trkpt>
      <trkpt lat="48.49277" lon="-2.78792">
        <ele>113.497482</ele>
        <time>2024-04-08T16:07:34.603Z</time>
      </trkpt>
      <trkpt lat="48.49268" lon="-2.78793">
        <ele>113.670746</ele>
        <time>2024-04-08T16:07:37.998Z</time>
      </trkpt>
      <trkpt lat="48.49248" lon="-2.78804">
        <ele>114.082208</ele>
        <time>2024-04-08T16:07:46.249Z</time>
      </trkpt>
      <trkpt lat="48.49209" lon="-2.78834">
        <ele>114.921593</ele>
        <time>2024-04-08T16:08:03.172Z</time>
      </trkpt>
      <trkpt lat="48.4919" lon="-2.78849">
        <ele>115.330749</ele>
        <time>2024-04-08T16:08:11.687Z</time>
      </trkpt>
      <trkpt lat="48.49122" lon="-2.78869">
        <ele>116.673702</ele>
        <time>2024-04-08T16:08:37.479Z</time>
      </trkpt>
      <trkpt lat="48.49054" lon="-2.7891">
        <ele>118.129861</ele>
        <time>2024-04-08T16:09:06.027Z</time>
      </trkpt>
      <trkpt lat="48.49047" lon="-2.78913">
        <ele>118.277457</ele>
        <time>2024-04-08T16:09:09.399Z</time>
      </trkpt>
      <trkpt lat="48.49043" lon="-2.78898">
        <ele>118.492624</ele>
        <time>2024-04-08T16:09:14.015Z</time>
      </trkpt>
      <trkpt lat="48.49044" lon="-2.78893">
        <ele>118.571373</ele>
        <time>2024-04-08T16:09:15.442Z</time>
      </trkpt>
      <trkpt lat="48.49044" lon="-2.78891">
        <ele>118.588386</ele>
        <time>2024-04-08T16:09:15.757Z</time>
      </trkpt>
      <trkpt lat="48.4905" lon="-2.78875">
        <ele>118.830511</ele>
        <time>2024-04-08T16:09:20.072Z</time>
      </trkpt>
      <trkpt lat="48.49047" lon="-2.78868">
        <ele>118.938966</ele>
        <time>2024-04-08T16:09:22.533Z</time>
      </trkpt>
      <trkpt lat="48.49036" lon="-2.78872">
        <ele>119.161477</ele>
        <time>2024-04-08T16:09:27.356Z</time>
      </trkpt>
      <trkpt lat="48.49024" lon="-2.78876">
        <ele>119.403139</ele>
        <time>2024-04-08T16:09:31.331Z</time>
      </trkpt>
      <trkpt lat="48.49012" lon="-2.78868">
        <ele>119.669171</ele>
        <time>2024-04-08T16:09:36.826Z</time>
      </trkpt>
      <trkpt lat="48.48999" lon="-2.78865">
        <ele>119.923574</ele>
        <time>2024-04-08T16:09:42.101Z</time>
      </trkpt>
      <trkpt lat="48.48996" lon="-2.78866">
        <ele>119.976857</ele>
        <time>2024-04-08T16:09:43.297Z</time>
      </trkpt>
      <trkpt lat="48.48994" lon="-2.78868">
        <ele>120.016611</ele>
        <time>2024-04-08T16:09:44.077Z</time>
      </trkpt>
      <trkpt lat="48.48993" lon="-2.78869">
        <ele>120.027255</ele>
        <time>2024-04-08T16:09:44.263Z</time>
      </trkpt>
      <trkpt lat="48.48987" lon="-2.78874">
        <ele>120.127805</ele>
        <time>2024-04-08T16:09:47.739Z</time>
      </trkpt>
      <trkpt lat="48.48975" lon="-2.78895">
        <ele>120.399091</ele>
        <time>2024-04-08T16:09:58.289Z</time>
      </trkpt>
      <trkpt lat="48.48964" lon="-2.78902">
        <ele>120.573559</ele>
        <time>2024-04-08T16:10:03.921Z</time>
      </trkpt>
      <trkpt lat="48.48957" lon="-2.78908">
        <ele>120.691326</ele>
        <time>2024-04-08T16:10:07.969Z</time>
      </trkpt>
      <trkpt lat="48.48941" lon="-2.78922">
        <ele>120.973198</ele>
        <time>2024-04-08T16:10:18.479Z</time>
      </trkpt>
      <trkpt lat="48.48921" lon="-2.78947">
        <ele>121.343661</ele>
        <time>2024-04-08T16:10:31.054Z</time>
      </trkpt>
      <trkpt lat="48.48885" lon="-2.78979">
        <ele>121.972659</ele>
        <time>2024-04-08T16:10:53.888Z</time>
      </trkpt>
      <trkpt lat="48.48862" lon="-2.7899">
        <ele>122.325226</ele>
        <time>2024-04-08T16:11:05.580Z</time>
      </trkpt>
      <trkpt lat="48.48808" lon="-2.79038">
        <ele>123.4547</ele>
        <time>2024-04-08T16:11:39.844Z</time>
      </trkpt>
      <trkpt lat="48.48804" lon="-2.79045">
        <ele>123.574735</ele>
        <time>2024-04-08T16:11:43.071Z</time>
      </trkpt>
      <trkpt lat="48.48798" lon="-2.79046">
        <ele>123.68462</ele>
        <time>2024-04-08T16:11:46.517Z</time>
      </trkpt>
      <trkpt lat="48.48791" lon="-2.79044">
        <ele>123.822972</ele>
        <time>2024-04-08T16:11:50.140Z</time>
      </trkpt>
      <trkpt lat="48.48782" lon="-2.79054">
        <ele>124.038246</ele>
        <time>2024-04-08T16:11:54.076Z</time>
      </trkpt>
      <trkpt lat="48.48776" lon="-2.79058">
        <ele>124.164726</ele>
        <time>2024-04-08T16:11:56.015Z</time>
      </trkpt>
      <trkpt lat="48.48762" lon="-2.79057">
        <ele>124.435313</ele>
        <time>2024-04-08T16:12:02.609Z</time>
      </trkpt>
      <trkpt lat="48.48755" lon="-2.79061">
        <ele>124.587084</ele>
        <time>2024-04-08T16:12:06.138Z</time>
      </trkpt>
      <trkpt lat="48.48741" lon="-2.79078">
        <ele>124.920796</ele>
        <time>2024-04-08T16:12:12.360Z</time>
      </trkpt>
      <trkpt lat="48.48735" lon="-2.79091">
        <ele>125.119577</ele>
        <time>2024-04-08T16:12:17.627Z</time>
      </trkpt>
      <trkpt lat="48.48727" lon="-2.79122">
        <ele>125.546283</ele>
        <time>2024-04-08T16:12:26.272Z</time>
      </trkpt>
      <trkpt lat="48.48722" lon="-2.79143">
        <ele>125.833314</ele>
        <time>2024-04-08T16:12:33.448Z</time>
      </trkpt>
      <trkpt lat="48.48712" lon="-2.79165">
        <ele>126.198537</ele>
        <time>2024-04-08T16:12:40.597Z</time>
      </trkpt>
      <trkpt lat="48.48694" lon="-2.79184">
        <ele>126.659383</ele>
        <time>2024-04-08T16:12:50.579Z</time>
      </trkpt>
      <trkpt lat="48.48684" lon="-2.79187">
        <ele>126.890181</ele>
        <time>2024-04-08T16:12:54.975Z</time>
      </trkpt>
      <trkpt lat="48.48676" lon="-2.79194">
        <ele>127.095253</ele>
        <time>2024-04-08T16:12:58.237Z</time>
      </trkpt>
      <trkpt lat="48.48644" lon="-2.79229">
        <ele>127.949656</ele>
        <time>2024-04-08T16:13:16.002Z</time>
      </trkpt>
      <trkpt lat="48.48624" lon="-2.79235">
        <ele>128.39109</ele>
        <time>2024-04-08T16:13:25.516Z</time>
      </trkpt>
      <trkpt lat="48.48608" lon="-2.79244">
        <ele>128.757171</ele>
        <time>2024-04-08T16:13:32.388Z</time>
      </trkpt>
      <trkpt lat="48.48577" lon="-2.79275">
        <ele>129.565671</ele>
        <time>2024-04-08T16:13:47.982Z</time>
      </trkpt>
      <trkpt lat="48.48552" lon="-2.79271">
        <ele>130.119012</ele>
        <time>2024-04-08T16:13:57.967Z</time>
      </trkpt>
      <trkpt lat="48.48535" lon="-2.79288">
        <ele>130.539538</ele>
        <time>2024-04-08T16:14:05.239Z</time>
      </trkpt>
      <trkpt lat="48.4852" lon="-2.79312">
        <ele>131.007136</ele>
        <time>2024-04-08T16:14:14.955Z</time>
      </trkpt>
      <trkpt lat="48.48509" lon="-2.79345">
        <ele>131.522744</ele>
        <time>2024-04-08T16:14:24.901Z</time>
      </trkpt>
      <trkpt lat="48.48491" lon="-2.7941">
        <ele>132.508166</ele>
        <time>2024-04-08T16:14:45.699Z</time>
      </trkpt>
      <trkpt lat="48.48488" lon="-2.79428">
        <ele>132.758733</ele>
        <time>2024-04-08T16:14:50.640Z</time>
      </trkpt>
      <trkpt lat="48.4848" lon="-2.79472">
        <ele>133.408801</ele>
        <time>2024-04-08T16:15:04.158Z</time>
      </trkpt>
      <trkpt lat="48.48477" lon="-2.79477">
        <ele>133.500032</ele>
        <time>2024-04-08T16:15:05.933Z</time>
      </trkpt>
      <trkpt lat="48.48467" lon="-2.79473">
        <ele>133.70644</ele>
        <time>2024-04-08T16:15:09.281Z</time>
      </trkpt>
      <trkpt lat="48.48458" lon="-2.79469">
        <ele>133.884936</ele>
        <time>2024-04-08T16:15:14.174Z</time>
      </trkpt>
      <trkpt lat="48.48365" lon="-2.79477">
        <ele>135.646909</ele>
        <time>2024-04-08T16:15:50.460Z</time>
      </trkpt>
      <trkpt lat="48.48358" lon="-2.79447">
        <ele>136.045058</ele>
        <time>2024-04-08T16:15:58.894Z</time>
      </trkpt>
      <trkpt lat="48.48351" lon="-2.79417">
        <ele>136.439064</ele>
        <time>2024-04-08T16:16:07.288Z</time>
      </trkpt>
      <trkpt lat="48.48344" lon="-2.79385">
        <ele>136.853709</ele>
        <time>2024-04-08T16:16:16.318Z</time>
      </trkpt>
      <trkpt lat="48.48333" lon="-2.79338">
        <ele>137.079437</ele>
        <time>2024-04-08T16:16:27.330Z</time>
      </trkpt>
      <trkpt lat="48.4833" lon="-2.79329">
        <ele>137.076595</ele>
        <time>2024-04-08T16:16:29.846Z</time>
      </trkpt>
      <trkpt lat="48.48308" lon="-2.79328">
        <ele>137.06677</ele>
        <time>2024-04-08T16:16:37.093Z</time>
      </trkpt>
      <trkpt lat="48.48308" lon="-2.79328">
        <ele>137.06677</ele>
        <time>2024-04-08T16:16:37.128Z</time>
      </trkpt>
      <trkpt lat="48.48308" lon="-2.79328">
        <ele>137.06677</ele>
        <time>2024-04-08T16:16:37.128Z</time>
      </trkpt>
      <trkpt lat="48.48292" lon="-2.79249">
        <ele>137.043056</ele>
        <time>2024-04-08T16:16:51.241Z</time>
      </trkpt>
      <trkpt lat="48.48379" lon="-2.79156">
        <ele>136.689416</ele>
        <time>2024-04-08T16:17:17.088Z</time>
      </trkpt>
      <trkpt lat="48.48372" lon="-2.79138">
        <ele>136.543844</ele>
        <time>2024-04-08T16:17:22.733Z</time>
      </trkpt>
      <trkpt lat="48.48345" lon="-2.79079">
        <ele>136.05402</ele>
        <time>2024-04-08T16:17:42.241Z</time>
      </trkpt>
      <trkpt lat="48.48343" lon="-2.79075">
        <ele>136.021472</ele>
        <time>2024-04-08T16:17:43.574Z</time>
      </trkpt>
      <trkpt lat="48.48339" lon="-2.79078">
        <ele>135.974026</ele>
        <time>2024-04-08T16:17:45.549Z</time>
      </trkpt>
      <trkpt lat="48.48335" lon="-2.79067">
        <ele>135.887738</ele>
        <time>2024-04-08T16:17:47.640Z</time>
      </trkpt>
      <trkpt lat="48.48304" lon="-2.79003">
        <ele>135.3456</ele>
        <time>2024-04-08T16:18:00.593Z</time>
      </trkpt>
      <trkpt lat="48.48275" lon="-2.78938">
        <ele>134.815625</ele>
        <time>2024-04-08T16:18:13.479Z</time>
      </trkpt>
      <trkpt lat="48.48264" lon="-2.78886">
        <ele>134.446923</ele>
        <time>2024-04-08T16:18:22.473Z</time>
      </trkpt>
      <trkpt lat="48.48325" lon="-2.78848">
        <ele>133.774339</ele>
        <time>2024-04-08T16:18:39.138Z</time>
      </trkpt>
      <trkpt lat="48.48386" lon="-2.78821">
        <ele>132.878957</ele>
        <time>2024-04-08T16:18:55.146Z</time>
      </trkpt>
      <trkpt lat="48.48304" lon="-2.78726">
        <ele>130.400473</ele>
        <time>2024-04-08T16:19:18.290Z</time>
      </trkpt>
      <trkpt lat="48.48277" lon="-2.78658">
        <ele>129.126862</ele>
        <time>2024-04-08T16:19:37.798Z</time>
      </trkpt>
      <trkpt lat="48.48245" lon="-2.78538">
        <ele>126.24866</ele>
        <time>2024-04-08T16:20:09.246Z</time>
      </trkpt>
      <trkpt lat="48.48233" lon="-2.78524">
        <ele>125.737102</ele>
        <time>2024-04-08T16:20:14.646Z</time>
      </trkpt>
      <trkpt lat="48.48203" lon="-2.78525">
        <ele>124.738784</ele>
        <time>2024-04-08T16:20:25.122Z</time>
      </trkpt>
      <trkpt lat="48.48185" lon="-2.785">
        <ele>123.88394</ele>
        <time>2024-04-08T16:20:34.194Z</time>
      </trkpt>
      <trkpt lat="48.4818" lon="-2.7848">
        <ele>123.401207</ele>
        <time>2024-04-08T16:20:39.393Z</time>
      </trkpt>
      <trkpt lat="48.48208" lon="-2.78438">
        <ele>122.295562</ele>
        <time>2024-04-08T16:20:53.865Z</time>
      </trkpt>
      <trkpt lat="48.48257" lon="-2.7839">
        <ele>120.901789</ele>
        <time>2024-04-08T16:21:15.898Z</time>
      </trkpt>
      <trkpt lat="48.48256" lon="-2.7836">
        <ele>120.429123</ele>
        <time>2024-04-08T16:21:23.502Z</time>
      </trkpt>
      <trkpt lat="48.48398" lon="-2.7831">
        <ele>117.372805</ele>
        <time>2024-04-08T16:22:20.296Z</time>
      </trkpt>
      <trkpt lat="48.48418" lon="-2.78289">
        <ele>116.943285</ele>
        <time>2024-04-08T16:22:30.067Z</time>
      </trkpt>
      <trkpt lat="48.48432" lon="-2.7828">
        <ele>116.67374</ele>
        <time>2024-04-08T16:22:36.203Z</time>
      </trkpt>
      <trkpt lat="48.48443" lon="-2.7829">
        <ele>116.456292</ele>
        <time>2024-04-08T16:22:41.171Z</time>
      </trkpt>
      <trkpt lat="48.48457" lon="-2.78286">
        <ele>116.201458</ele>
        <time>2024-04-08T16:22:47.007Z</time>
      </trkpt>
      <trkpt lat="48.48499" lon="-2.78274">
        <ele>115.457576</ele>
        <time>2024-04-08T16:23:04.011Z</time>
      </trkpt>
      <trkpt lat="48.48533" lon="-2.78264">
        <ele>115.003559</ele>
        <time>2024-04-08T16:23:17.890Z</time>
      </trkpt>
      <trkpt lat="48.48548" lon="-2.78251">
        <ele>114.781254</ele>
        <time>2024-04-08T16:23:25.090Z</time>
      </trkpt>
      <trkpt lat="48.48615" lon="-2.78174">
        <ele>113.728379</ele>
        <time>2024-04-08T16:23:59.822Z</time>
      </trkpt>
      <trkpt lat="48.48642" lon="-2.78148">
        <ele>113.332663</ele>
        <time>2024-04-08T16:24:12.751Z</time>
      </trkpt>
      <trkpt lat="48.48648" lon="-2.78117">
        <ele>113.094584</ele>
        <time>2024-04-08T16:24:21.388Z</time>
      </trkpt>
      <trkpt lat="48.48648" lon="-2.78082">
        <ele>112.939001</ele>
        <time>2024-04-08T16:24:30.842Z</time>
      </trkpt>
      <trkpt lat="48.48643" lon="-2.78025">
        <ele>112.688225</ele>
        <time>2024-04-08T16:24:46.251Z</time>
      </trkpt>
      <trkpt lat="48.48645" lon="-2.77986">
        <ele>112.513369</ele>
        <time>2024-04-08T16:24:57.117Z</time>
      </trkpt>
      <trkpt lat="48.48665" lon="-2.77982">
        <ele>112.38155</ele>
        <time>2024-04-08T16:25:02.217Z</time>
      </trkpt>
      <trkpt lat="48.4872" lon="-2.77938">
        <ele>111.964836</ele>
        <time>2024-04-08T16:25:19.428Z</time>
      </trkpt>
      <trkpt lat="48.48737" lon="-2.77921">
        <ele>111.99696</ele>
        <time>2024-04-08T16:25:24.552Z</time>
      </trkpt>
      <trkpt lat="48.48727" lon="-2.77915">
        <ele>112.042399</ele>
        <time>2024-04-08T16:25:28.598Z</time>
      </trkpt>
      <trkpt lat="48.48717" lon="-2.77902">
        <ele>112.0984</ele>
        <time>2024-04-08T16:25:32.060Z</time>
      </trkpt>
      <trkpt lat="48.48647" lon="-2.77746">
        <ele>112.641093</ele>
        <time>2024-04-08T16:26:10.917Z</time>
      </trkpt>
      <trkpt lat="48.48606" lon="-2.77691">
        <ele>112.504119</ele>
        <time>2024-04-08T16:26:29.290Z</time>
      </trkpt>
      <trkpt lat="48.48594" lon="-2.77676">
        <ele>112.420425</ele>
        <time>2024-04-08T16:26:33.655Z</time>
      </trkpt>
      <trkpt lat="48.48564" lon="-2.77621">
        <ele>112.168395</ele>
        <time>2024-04-08T16:26:45.881Z</time>
      </trkpt>
      <trkpt lat="48.48546" lon="-2.77593">
        <ele>112.026586</ele>
        <time>2024-04-08T16:26:52.574Z</time>
      </trkpt>
      <trkpt lat="48.48531" lon="-2.77563">
        <ele>111.895506</ele>
        <time>2024-04-08T16:26:58.543Z</time>
      </trkpt>
      <trkpt lat="48.48526" lon="-2.77567">
        <ele>111.864456</ele>
        <time>2024-04-08T16:26:59.889Z</time>
      </trkpt>
      <trkpt lat="48.48502" lon="-2.77508">
        <ele>111.503348</ele>
        <time>2024-04-08T16:27:10.133Z</time>
      </trkpt>
      <trkpt lat="48.48492" lon="-2.77475">
        <ele>111.261855</ele>
        <time>2024-04-08T16:27:15.458Z</time>
      </trkpt>
      <trkpt lat="48.48454" lon="-2.77328">
        <ele>110.2007</ele>
        <time>2024-04-08T16:27:39.974Z</time>
      </trkpt>
      <trkpt lat="48.48445" lon="-2.77308">
        <ele>110.038354</ele>
        <time>2024-04-08T16:27:44.035Z</time>
      </trkpt>
      <trkpt lat="48.48433" lon="-2.77292">
        <ele>109.98334</ele>
        <time>2024-04-08T16:27:48.342Z</time>
      </trkpt>
      <trkpt lat="48.48433" lon="-2.77291">
        <ele>109.989576</ele>
        <time>2024-04-08T16:27:48.491Z</time>
      </trkpt>
      <trkpt lat="48.48422" lon="-2.77286">
        <ele>110.117193</ele>
        <time>2024-04-08T16:27:51.489Z</time>
      </trkpt>
      <trkpt lat="48.48365" lon="-2.77292">
        <ele>110.81145</ele>
        <time>2024-04-08T16:28:10.152Z</time>
      </trkpt>
      <trkpt lat="48.48343" lon="-2.77288">
        <ele>111.072717</ele>
        <time>2024-04-08T16:28:17.744Z</time>
      </trkpt>
      <trkpt lat="48.4831" lon="-2.77266">
        <ele>111.509475</ele>
        <time>2024-04-08T16:28:31.270Z</time>
      </trkpt>
      <trkpt lat="48.48251" lon="-2.77236">
        <ele>112.422077</ele>
        <time>2024-04-08T16:28:55.388Z</time>
      </trkpt>
      <trkpt lat="48.48239" lon="-2.77233">
        <ele>112.697007</ele>
        <time>2024-04-08T16:29:00.029Z</time>
      </trkpt>
      <trkpt lat="48.48227" lon="-2.77236">
        <ele>112.958143</ele>
        <time>2024-04-08T16:29:04.538Z</time>
      </trkpt>
      <trkpt lat="48.4817" lon="-2.77277">
        <ele>114.408841</ele>
        <time>2024-04-08T16:29:30.172Z</time>
      </trkpt>
      <trkpt lat="48.48127" lon="-2.77291">
        <ele>115.410194</ele>
        <time>2024-04-08T16:29:49.031Z</time>
      </trkpt>
      <trkpt lat="48.48089" lon="-2.77298">
        <ele>116.296881</ele>
        <time>2024-04-08T16:30:04.860Z</time>
      </trkpt>
      <trkpt lat="48.48064" lon="-2.77284">
        <ele>116.933313</ele>
        <time>2024-04-08T16:30:14.883Z</time>
      </trkpt>
      <trkpt lat="48.48039" lon="-2.77257">
        <ele>117.687487</ele>
        <time>2024-04-08T16:30:27.148Z</time>
      </trkpt>
      <trkpt lat="48.48004" lon="-2.77203">
        <ele>118.902315</ele>
        <time>2024-04-08T16:30:47.992Z</time>
      </trkpt>
      <trkpt lat="48.47964" lon="-2.77145">
        <ele>120.222922</ele>
        <time>2024-04-08T16:31:11.524Z</time>
      </trkpt>
      <trkpt lat="48.47947" lon="-2.77131">
        <ele>120.658894</ele>
        <time>2024-04-08T16:31:19.954Z</time>
      </trkpt>
      <trkpt lat="48.47926" lon="-2.77122">
        <ele>121.066766</ele>
        <time>2024-04-08T16:31:29.226Z</time>
      </trkpt>
      <trkpt lat="48.47905" lon="-2.77118">
        <ele>121.459576</ele>
        <time>2024-04-08T16:31:37.445Z</time>
      </trkpt>
      <trkpt lat="48.47911" lon="-2.77089">
        <ele>121.831212</ele>
        <time>2024-04-08T16:31:45.507Z</time>
      </trkpt>
      <trkpt lat="48.47917" lon="-2.7707">
        <ele>122.090331</ele>
        <time>2024-04-08T16:31:50.583Z</time>
      </trkpt>
      <trkpt lat="48.48003" lon="-2.76873">
        <ele>124.539399</ele>
        <time>2024-04-08T16:32:46.165Z</time>
      </trkpt>
      <trkpt lat="48.48013" lon="-2.76839">
        <ele>124.80252</ele>
        <time>2024-04-08T16:32:53.574Z</time>
      </trkpt>
      <trkpt lat="48.48016" lon="-2.76811">
        <ele>125.008002</ele>
        <time>2024-04-08T16:32:59.584Z</time>
      </trkpt>
      <trkpt lat="48.48015" lon="-2.7678">
        <ele>125.227003</ele>
        <time>2024-04-08T16:33:06.138Z</time>
      </trkpt>
      <trkpt lat="48.4801" lon="-2.76746">
        <ele>125.476042</ele>
        <time>2024-04-08T16:33:13.502Z</time>
      </trkpt>
      <trkpt lat="48.47994" lon="-2.76668">
        <ele>126.082574</ele>
        <time>2024-04-08T16:33:31.638Z</time>
      </trkpt>
      <trkpt lat="48.47983" lon="-2.7662">
        <ele>126.485412</ele>
        <time>2024-04-08T16:33:42.892Z</time>
      </trkpt>
      <trkpt lat="48.47974" lon="-2.76597">
        <ele>126.694059</ele>
        <time>2024-04-08T16:33:48.717Z</time>
      </trkpt>
      <trkpt lat="48.47964" lon="-2.76579">
        <ele>126.882917</ele>
        <time>2024-04-08T16:33:54.044Z</time>
      </trkpt>
      <trkpt lat="48.47907" lon="-2.76519">
        <ele>127.701788</ele>
        <time>2024-04-08T16:34:17.884Z</time>
      </trkpt>
      <trkpt lat="48.47897" lon="-2.76497">
        <ele>127.917793</ele>
        <time>2024-04-08T16:34:24.334Z</time>
      </trkpt>
      <trkpt lat="48.47889" lon="-2.76469">
        <ele>127.972151</ele>
        <time>2024-04-08T16:34:31.153Z</time>
      </trkpt>
      <trkpt lat="48.47886" lon="-2.76435">
        <ele>127.980294</ele>
        <time>2024-04-08T16:34:38.853Z</time>
      </trkpt>
      <trkpt lat="48.47879" lon="-2.76429">
        <ele>127.983102</ele>
        <time>2024-04-08T16:34:41.647Z</time>
      </trkpt>
      <trkpt lat="48.47876" lon="-2.76408">
        <ele>127.988097</ele>
        <time>2024-04-08T16:34:46.326Z</time>
      </trkpt>
      <trkpt lat="48.47827" lon="-2.76368">
        <ele>128.007749</ele>
        <time>2024-04-08T16:35:03.379Z</time>
      </trkpt>
      <trkpt lat="48.47815" lon="-2.7635">
        <ele>128.013753</ele>
        <time>2024-04-08T16:35:08.125Z</time>
      </trkpt>
      <trkpt lat="48.47804" lon="-2.76322">
        <ele>128.021539</ele>
        <time>2024-04-08T16:35:14.201Z</time>
      </trkpt>
      <trkpt lat="48.47774" lon="-2.7609">
        <ele>125.852207</ele>
        <time>2024-04-08T16:35:54.064Z</time>
      </trkpt>
      <trkpt lat="48.47771" lon="-2.76042">
        <ele>125.330306</ele>
        <time>2024-04-08T16:36:01.737Z</time>
      </trkpt>
      <trkpt lat="48.47771" lon="-2.76003">
        <ele>124.968878</ele>
        <time>2024-04-08T16:36:08.184Z</time>
      </trkpt>
      <trkpt lat="48.47769" lon="-2.75984">
        <ele>124.859055</ele>
        <time>2024-04-08T16:36:11.434Z</time>
      </trkpt>
      <trkpt lat="48.47752" lon="-2.75928">
        <ele>124.508084</ele>
        <time>2024-04-08T16:36:21.996Z</time>
      </trkpt>
      <trkpt lat="48.47743" lon="-2.75869">
        <ele>124.162074</ele>
        <time>2024-04-08T16:36:32.729Z</time>
      </trkpt>
      <trkpt lat="48.47741" lon="-2.7583">
        <ele>123.938639</ele>
        <time>2024-04-08T16:36:39.938Z</time>
      </trkpt>
      <trkpt lat="48.47743" lon="-2.75797">
        <ele>123.752622</ele>
        <time>2024-04-08T16:36:46.088Z</time>
      </trkpt>
      <trkpt lat="48.47792" lon="-2.75754">
        <ele>123.818442</ele>
        <time>2024-04-08T16:37:11.957Z</time>
      </trkpt>
      <trkpt lat="48.47812" lon="-2.75729">
        <ele>124.115754</ele>
        <time>2024-04-08T16:37:24.585Z</time>
      </trkpt>
      <trkpt lat="48.47836" lon="-2.75683">
        <ele>124.56836</ele>
        <time>2024-04-08T16:37:44.833Z</time>
      </trkpt>
      <trkpt lat="48.47856" lon="-2.75635">
        <ele>125.000868</ele>
        <time>2024-04-08T16:38:04.934Z</time>
      </trkpt>
      <trkpt lat="48.47911" lon="-2.75404">
        <ele>127.683022</ele>
        <time>2024-04-08T16:39:35.893Z</time>
      </trkpt>
      <trkpt lat="48.47934" lon="-2.75337">
        <ele>128.619518</ele>
        <time>2024-04-08T16:40:04.301Z</time>
      </trkpt>
      <trkpt lat="48.47943" lon="-2.75215">
        <ele>129.717083</ele>
        <time>2024-04-08T16:40:48.807Z</time>
      </trkpt>
      <trkpt lat="48.47946" lon="-2.75182">
        <ele>129.981486</ele>
        <time>2024-04-08T16:40:56.280Z</time>
      </trkpt>
      <trkpt lat="48.4796" lon="-2.75143">
        <ele>130.335893</ele>
        <time>2024-04-08T16:41:06.287Z</time>
      </trkpt>
      <trkpt lat="48.47994" lon="-2.75097">
        <ele>130.882167</ele>
        <time>2024-04-08T16:41:20.620Z</time>
      </trkpt>
      <trkpt lat="48.4803" lon="-2.75057">
        <ele>131.486053</ele>
        <time>2024-04-08T16:41:35.502Z</time>
      </trkpt>
      <trkpt lat="48.48034" lon="-2.75045">
        <ele>131.617118</ele>
        <time>2024-04-08T16:41:38.756Z</time>
      </trkpt>
      <trkpt lat="48.4805" lon="-2.75044">
        <ele>131.850551</ele>
        <time>2024-04-08T16:41:43.658Z</time>
      </trkpt>
      <trkpt lat="48.48065" lon="-2.75038">
        <ele>132.076761</ele>
        <time>2024-04-08T16:41:49.010Z</time>
      </trkpt>
      <trkpt lat="48.48097" lon="-2.75009">
        <ele>132.620075</ele>
        <time>2024-04-08T16:42:02.019Z</time>
      </trkpt>
      <trkpt lat="48.48114" lon="-2.74981">
        <ele>132.977277</ele>
        <time>2024-04-08T16:42:10.393Z</time>
      </trkpt>
      <trkpt lat="48.48116" lon="-2.7497">
        <ele>133.085941</ele>
        <time>2024-04-08T16:42:13.364Z</time>
      </trkpt>
      <trkpt lat="48.48095" lon="-2.74909">
        <ele>133.776752</ele>
        <time>2024-04-08T16:42:31.709Z</time>
      </trkpt>
      <trkpt lat="48.48082" lon="-2.74878">
        <ele>134.374978</ele>
        <time>2024-04-08T16:42:41.936Z</time>
      </trkpt>
      <trkpt lat="48.48074" lon="-2.74869">
        <ele>134.619658</ele>
        <time>2024-04-08T16:42:46.768Z</time>
      </trkpt>
      <trkpt lat="48.48041" lon="-2.74856">
        <ele>135.480825</ele>
        <time>2024-04-08T16:43:02.959Z</time>
      </trkpt>
      <trkpt lat="48.48033" lon="-2.74848">
        <ele>135.715362</ele>
        <time>2024-04-08T16:43:07.209Z</time>
      </trkpt>
      <trkpt lat="48.4803" lon="-2.74835">
        <ele>135.949205</ele>
        <time>2024-04-08T16:43:11.367Z</time>
      </trkpt>
      <trkpt lat="48.48025" lon="-2.74678">
        <ele>138.32896</ele>
        <time>2024-04-08T16:43:55.298Z</time>
      </trkpt>
      <trkpt lat="48.48025" lon="-2.74665">
        <ele>138.417634</ele>
        <time>2024-04-08T16:44:00.987Z</time>
      </trkpt>
      <trkpt lat="48.47995" lon="-2.74667">
        <ele>138.737346</ele>
        <time>2024-04-08T16:44:16.724Z</time>
      </trkpt>
      <trkpt lat="48.47973" lon="-2.74647">
        <ele>139.014303</ele>
        <time>2024-04-08T16:44:30.140Z</time>
      </trkpt>
      <trkpt lat="48.48005" lon="-2.74532">
        <ele>139.918168</ele>
        <time>2024-04-08T16:45:10.611Z</time>
      </trkpt>
      <trkpt lat="48.48043" lon="-2.74343">
        <ele>140.213753</ele>
        <time>2024-04-08T16:46:09.304Z</time>
      </trkpt>
      <trkpt lat="48.4808" lon="-2.74197">
        <ele>139.986893</ele>
        <time>2024-04-08T16:46:55.551Z</time>
      </trkpt>
      <trkpt lat="48.48087" lon="-2.74117">
        <ele>139.561574</ele>
        <time>2024-04-08T16:47:18.590Z</time>
      </trkpt>
      <trkpt lat="48.48108" lon="-2.74108">
        <ele>139.390006</ele>
        <time>2024-04-08T16:47:23.965Z</time>
      </trkpt>
      <trkpt lat="48.48138" lon="-2.7409">
        <ele>139.136356</ele>
        <time>2024-04-08T16:47:31.802Z</time>
      </trkpt>
      <trkpt lat="48.48166" lon="-2.7408">
        <ele>138.910877</ele>
        <time>2024-04-08T16:47:38.700Z</time>
      </trkpt>
      <trkpt lat="48.48202" lon="-2.74076">
        <ele>138.202216</ele>
        <time>2024-04-08T16:47:47.305Z</time>
      </trkpt>
      <trkpt lat="48.48202" lon="-2.74068">
        <ele>138.082246</ele>
        <time>2024-04-08T16:47:48.474Z</time>
      </trkpt>
      <trkpt lat="48.48202" lon="-2.74014">
        <ele>137.254757</ele>
        <time>2024-04-08T16:47:56.708Z</time>
      </trkpt>
      <trkpt lat="48.48199" lon="-2.73925">
        <ele>135.875513</ele>
        <time>2024-04-08T16:48:10.088Z</time>
      </trkpt>
      <trkpt lat="48.48199" lon="-2.73918">
        <ele>135.769284</ele>
        <time>2024-04-08T16:48:11.113Z</time>
      </trkpt>
      <trkpt lat="48.48161" lon="-2.73908">
        <ele>134.87906</ele>
        <time>2024-04-08T16:48:19.513Z</time>
      </trkpt>
      <trkpt lat="48.48136" lon="-2.73866">
        <ele>133.75349</ele>
        <time>2024-04-08T16:48:27.508Z</time>
      </trkpt>
      <trkpt lat="48.48094" lon="-2.73813">
        <ele>131.982299</ele>
        <time>2024-04-08T16:48:39.327Z</time>
      </trkpt>
      <trkpt lat="48.48069" lon="-2.73791">
        <ele>131.020651</ele>
        <time>2024-04-08T16:48:45.690Z</time>
      </trkpt>
      <trkpt lat="48.48069" lon="-2.73787">
        <ele>130.929764</ele>
        <time>2024-04-08T16:48:46.282Z</time>
      </trkpt>
      <trkpt lat="48.48072" lon="-2.73751">
        <ele>130.161323</ele>
        <time>2024-04-08T16:48:51.333Z</time>
      </trkpt>
      <trkpt lat="48.48078" lon="-2.73719">
        <ele>129.435202</ele>
        <time>2024-04-08T16:48:56.061Z</time>
      </trkpt>
      <trkpt lat="48.48118" lon="-2.73555">
        <ele>125.327892</ele>
        <time>2024-04-08T16:49:20.528Z</time>
      </trkpt>
      <trkpt lat="48.48145" lon="-2.7346">
        <ele>122.855099</ele>
        <time>2024-04-08T16:49:34.915Z</time>
      </trkpt>
      <trkpt lat="48.48123" lon="-2.73449">
        <ele>122.037359</ele>
        <time>2024-04-08T16:49:39.450Z</time>
      </trkpt>
      <trkpt lat="48.48148" lon="-2.73393">
        <ele>120.48065</ele>
        <time>2024-04-08T16:49:55.814Z</time>
      </trkpt>
      <trkpt lat="48.48166" lon="-2.73328">
        <ele>118.886702</ele>
        <time>2024-04-08T16:50:12.584Z</time>
      </trkpt>
      <trkpt lat="48.48185" lon="-2.73269">
        <ele>117.387295</ele>
        <time>2024-04-08T16:50:28.480Z</time>
      </trkpt>
      <trkpt lat="48.48201" lon="-2.73205">
        <ele>115.927876</ele>
        <time>2024-04-08T16:50:45.356Z</time>
      </trkpt>
      <trkpt lat="48.48179" lon="-2.73187">
        <ele>115.366031</ele>
        <time>2024-04-08T16:50:50.654Z</time>
      </trkpt>
      <trkpt lat="48.48131" lon="-2.73162">
        <ele>114.171127</ele>
        <time>2024-04-08T16:51:02.175Z</time>
      </trkpt>
      <trkpt lat="48.48041" lon="-2.73115">
        <ele>111.98676</ele>
        <time>2024-04-08T16:51:24.052Z</time>
      </trkpt>
      <trkpt lat="48.47998" lon="-2.73096">
        <ele>111.305305</ele>
        <time>2024-04-08T16:51:34.831Z</time>
      </trkpt>
      <trkpt lat="48.47934" lon="-2.73036">
        <ele>110.172678</ele>
        <time>2024-04-08T16:51:52.890Z</time>
      </trkpt>
      <trkpt lat="48.47874" lon="-2.72981">
        <ele>109.112973</ele>
        <time>2024-04-08T16:52:09.860Z</time>
      </trkpt>
      <trkpt lat="48.47798" lon="-2.72895">
        <ele>107.61583</ele>
        <time>2024-04-08T16:52:32.873Z</time>
      </trkpt>
      <trkpt lat="48.47725" lon="-2.72866">
        <ele>106.428731</ele>
        <time>2024-04-08T16:52:50.197Z</time>
      </trkpt>
      <trkpt lat="48.47699" lon="-2.72844">
        <ele>105.805564</ele>
        <time>2024-04-08T16:52:57.117Z</time>
      </trkpt>
      <trkpt lat="48.47696" lon="-2.72841">
        <ele>105.728517</ele>
        <time>2024-04-08T16:52:57.986Z</time>
      </trkpt>
      <trkpt lat="48.47704" lon="-2.72697">
        <ele>103.726159</ele>
        <time>2024-04-08T16:53:19.370Z</time>
      </trkpt>
      <trkpt lat="48.47681" lon="-2.72698">
        <ele>103.230283</ele>
        <time>2024-04-08T16:53:24.783Z</time>
      </trkpt>
      <trkpt lat="48.476" lon="-2.72655">
        <ele>100.638148</ele>
        <time>2024-04-08T16:53:43.721Z</time>
      </trkpt>
      <trkpt lat="48.47533" lon="-2.72661">
        <ele>98.352618</ele>
        <time>2024-04-08T16:53:58.541Z</time>
      </trkpt>
      <trkpt lat="48.47513" lon="-2.72771">
        <ele>95.102647</ele>
        <time>2024-04-08T16:54:13.681Z</time>
      </trkpt>
      <trkpt lat="48.47487" lon="-2.72869">
        <ele>90.578451</ele>
        <time>2024-04-08T16:54:27.354Z</time>
      </trkpt>
      <trkpt lat="48.47482" lon="-2.7287">
        <ele>90.309056</ele>
        <time>2024-04-08T16:54:28.106Z</time>
      </trkpt>
      <trkpt lat="48.47476" lon="-2.7287">
        <ele>89.879183</ele>
        <time>2024-04-08T16:54:29.316Z</time>
      </trkpt>
      <trkpt lat="48.47443" lon="-2.72873">
        <ele>87.798855</ele>
        <time>2024-04-08T16:54:35.377Z</time>
      </trkpt>
      <trkpt lat="48.47432" lon="-2.72879">
        <ele>87.023524</ele>
        <time>2024-04-08T16:54:39.308Z</time>
      </trkpt>
      <trkpt lat="48.47431" lon="-2.72951">
        <ele>84.176899</ele>
        <time>2024-04-08T16:54:54.826Z</time>
      </trkpt>
      <trkpt lat="48.47428" lon="-2.72971">
        <ele>83.46453</ele>
        <time>2024-04-08T16:54:59.144Z</time>
      </trkpt>
      <trkpt lat="48.47423" lon="-2.72989">
        <ele>82.76975</ele>
        <time>2024-04-08T16:55:03.648Z</time>
      </trkpt>
      <trkpt lat="48.47417" lon="-2.72999">
        <ele>82.313621</ele>
        <time>2024-04-08T16:55:06.657Z</time>
      </trkpt>
      <trkpt lat="48.4741" lon="-2.73022">
        <ele>81.416928</ele>
        <time>2024-04-08T16:55:12.136Z</time>
      </trkpt>
      <trkpt lat="48.47408" lon="-2.73045">
        <ele>80.61465</ele>
        <time>2024-04-08T16:55:17.580Z</time>
      </trkpt>
      <trkpt lat="48.47406" lon="-2.7304">
        <ele>80.391705</ele>
        <time>2024-04-08T16:55:18.970Z</time>
      </trkpt>
      <trkpt lat="48.47401" lon="-2.73041">
        <ele>80.135552</ele>
        <time>2024-04-08T16:55:20.621Z</time>
      </trkpt>
      <trkpt lat="48.47388" lon="-2.73045">
        <ele>79.461622</ele>
        <time>2024-04-08T16:55:25.045Z</time>
      </trkpt>
      <trkpt lat="48.47384" lon="-2.7304">
        <ele>79.187548</ele>
        <time>2024-04-08T16:55:26.932Z</time>
      </trkpt>
      <trkpt lat="48.47375" lon="-2.73011">
        <ele>78.059549</ele>
        <time>2024-04-08T16:55:34.554Z</time>
      </trkpt>
      <trkpt lat="48.47368" lon="-2.72931">
        <ele>75.45672</ele>
        <time>2024-04-08T16:55:53.640Z</time>
      </trkpt>
      <trkpt lat="48.4737" lon="-2.72764">
        <ele>72.973333</ele>
        <time>2024-04-08T16:56:36.512Z</time>
      </trkpt>
      <trkpt lat="48.47386" lon="-2.72554">
        <ele>70.816746</ele>
        <time>2024-04-08T16:57:32.726Z</time>
      </trkpt>
      <trkpt lat="48.47387" lon="-2.72496">
        <ele>70.437953</ele>
        <time>2024-04-08T16:57:48.404Z</time>
      </trkpt>
      <trkpt lat="48.47387" lon="-2.72473">
        <ele>70.28905</ele>
        <time>2024-04-08T16:57:54.606Z</time>
      </trkpt>
      <trkpt lat="48.47391" lon="-2.7242">
        <ele>69.941618</ele>
        <time>2024-04-08T16:58:09.527Z</time>
      </trkpt>
      <trkpt lat="48.47391" lon="-2.72381">
        <ele>69.983537</ele>
        <time>2024-04-08T16:58:20.802Z</time>
      </trkpt>
      <trkpt lat="48.47389" lon="-2.72364">
        <ele>70.133613</ele>
        <time>2024-04-08T16:58:25.619Z</time>
      </trkpt>
      <trkpt lat="48.47391" lon="-2.72262">
        <ele>71.048713</ele>
        <time>2024-04-08T16:59:03.673Z</time>
      </trkpt>
      <trkpt lat="48.47402" lon="-2.72226">
        <ele>71.406702</ele>
        <time>2024-04-08T16:59:19.293Z</time>
      </trkpt>
      <trkpt lat="48.47395" lon="-2.72222">
        <ele>71.501406</ele>
        <time>2024-04-08T16:59:23.112Z</time>
      </trkpt>
      <trkpt lat="48.4738" lon="-2.72225">
        <ele>71.709735</ele>
        <time>2024-04-08T16:59:32.802Z</time>
      </trkpt>
      <trkpt lat="48.47371" lon="-2.7223">
        <ele>71.840433</ele>
        <time>2024-04-08T16:59:37.582Z</time>
      </trkpt>
      <trkpt lat="48.47355" lon="-2.72224">
        <ele>72.071381</ele>
        <time>2024-04-08T16:59:46.835Z</time>
      </trkpt>
      <trkpt lat="48.47336" lon="-2.72212">
        <ele>72.221143</ele>
        <time>2024-04-08T16:59:57.085Z</time>
      </trkpt>
      <trkpt lat="48.47327" lon="-2.72204">
        <ele>72.189501</ele>
        <time>2024-04-08T17:00:02.258Z</time>
      </trkpt>
      <trkpt lat="48.47318" lon="-2.72191">
        <ele>72.15034</ele>
        <time>2024-04-08T17:00:09.865Z</time>
      </trkpt>
      <trkpt lat="48.47315" lon="-2.72183">
        <ele>72.131814</ele>
        <time>2024-04-08T17:00:12.609Z</time>
      </trkpt>
      <trkpt lat="48.47312" lon="-2.72165">
        <ele>72.094134</ele>
        <time>2024-04-08T17:00:17.950Z</time>
      </trkpt>
      <trkpt lat="48.47327" lon="-2.72068">
        <ele>71.891679</ele>
        <time>2024-04-08T17:00:46.528Z</time>
      </trkpt>
      <trkpt lat="48.47328" lon="-2.7206">
        <ele>71.874496</ele>
        <time>2024-04-08T17:00:49.421Z</time>
      </trkpt>
      <trkpt lat="48.47335" lon="-2.72019">
        <ele>71.788724</ele>
        <time>2024-04-08T17:00:56.207Z</time>
      </trkpt>
      <trkpt lat="48.47335" lon="-2.71995">
        <ele>71.739381</ele>
        <time>2024-04-08T17:01:00.544Z</time>
      </trkpt>
      <trkpt lat="48.47341" lon="-2.71979">
        <ele>71.702288</ele>
        <time>2024-04-08T17:01:03.245Z</time>
      </trkpt>
      <trkpt lat="48.47345" lon="-2.72009">
        <ele>71.349384</ele>
        <time>2024-04-08T17:01:08.503Z</time>
      </trkpt>
      <trkpt lat="48.47349" lon="-2.72019">
        <ele>71.186275</ele>
        <time>2024-04-08T17:01:10.056Z</time>
      </trkpt>
      <trkpt lat="48.47357" lon="-2.72027">
        <ele>71.004444</ele>
        <time>2024-04-08T17:01:11.838Z</time>
      </trkpt>
      <trkpt lat="48.47373" lon="-2.72036">
        <ele>70.641942</ele>
        <time>2024-04-08T17:01:16.500Z</time>
      </trkpt>
      <trkpt lat="48.47384" lon="-2.72019">
        <ele>70.331862</ele>
        <time>2024-04-08T17:01:21.640Z</time>
      </trkpt>
      <trkpt lat="48.47382" lon="-2.71963">
        <ele>69.571191</ele>
        <time>2024-04-08T17:01:35.826Z</time>
      </trkpt>
      <trkpt lat="48.47374" lon="-2.71878">
        <ele>68.417893</ele>
        <time>2024-04-08T17:01:58.406Z</time>
      </trkpt>
      <trkpt lat="48.47368" lon="-2.71741">
        <ele>67.550237</ele>
        <time>2024-04-08T17:02:35.989Z</time>
      </trkpt>
      <trkpt lat="48.47366" lon="-2.71723">
        <ele>67.469022</ele>
        <time>2024-04-08T17:02:41.393Z</time>
      </trkpt>
      <trkpt lat="48.4736" lon="-2.71668">
        <ele>67.220877</ele>
        <time>2024-04-08T17:02:57.574Z</time>
      </trkpt>
      <trkpt lat="48.47361" lon="-2.71657">
        <ele>67.168215</ele>
        <time>2024-04-08T17:03:00.930Z</time>
      </trkpt>
      <trkpt lat="48.47363" lon="-2.71607">
        <ele>66.947201</ele>
        <time>2024-04-08T17:03:14.958Z</time>
      </trkpt>
      <trkpt lat="48.47382" lon="-2.71509">
        <ele>66.667316</ele>
        <time>2024-04-08T17:03:43.972Z</time>
      </trkpt>
      <trkpt lat="48.47384" lon="-2.71477">
        <ele>66.600078</ele>
        <time>2024-04-08T17:03:53.023Z</time>
      </trkpt>
      <trkpt lat="48.47378" lon="-2.7142">
        <ele>66.4783</ele>
        <time>2024-04-08T17:04:09.583Z</time>
      </trkpt>
      <trkpt lat="48.47391" lon="-2.71378">
        <ele>66.380773</ele>
        <time>2024-04-08T17:04:22.918Z</time>
      </trkpt>
      <trkpt lat="48.47399" lon="-2.71374">
        <ele>66.353562</ele>
        <time>2024-04-08T17:04:26.566Z</time>
      </trkpt>
      <trkpt lat="48.47406" lon="-2.71362">
        <ele>66.318117</ele>
        <time>2024-04-08T17:04:31.390Z</time>
      </trkpt>
      <trkpt lat="48.4741" lon="-2.71345">
        <ele>66.280813</ele>
        <time>2024-04-08T17:04:36.474Z</time>
      </trkpt>
      <trkpt lat="48.47404" lon="-2.71313">
        <ele>66.232641</ele>
        <time>2024-04-08T17:04:46.216Z</time>
      </trkpt>
      <trkpt lat="48.47407" lon="-2.71226">
        <ele>66.148916</ele>
        <time>2024-04-08T17:05:12.128Z</time>
      </trkpt>
      <trkpt lat="48.47409" lon="-2.71208">
        <ele>66.131153</ele>
        <time>2024-04-08T17:05:17.600Z</time>
      </trkpt>
      <trkpt lat="48.47416" lon="-2.71193">
        <ele>66.113454</ele>
        <time>2024-04-08T17:05:22.997Z</time>
      </trkpt>
      <trkpt lat="48.47419" lon="-2.71163">
        <ele>66.083862</ele>
        <time>2024-04-08T17:05:32.017Z</time>
      </trkpt>
      <trkpt lat="48.47448" lon="-2.71088">
        <ele>66.00087</ele>
        <time>2024-04-08T17:05:56.969Z</time>
      </trkpt>
      <trkpt lat="48.47485" lon="-2.71049">
        <ele>65.6628</ele>
        <time>2024-04-08T17:06:16.825Z</time>
      </trkpt>
      <trkpt lat="48.47522" lon="-2.70995">
        <ele>65.224947</ele>
        <time>2024-04-08T17:06:38.978Z</time>
      </trkpt>
      <trkpt lat="48.47519" lon="-2.70972">
        <ele>65.093436</ele>
        <time>2024-04-08T17:06:45.567Z</time>
      </trkpt>
      <trkpt lat="48.47505" lon="-2.70949">
        <ele>64.918139</ele>
        <time>2024-04-08T17:06:54.003Z</time>
      </trkpt>
      <trkpt lat="48.47496" lon="-2.70926">
        <ele>64.769748</ele>
        <time>2024-04-08T17:07:01.136Z</time>
      </trkpt>
      <trkpt lat="48.47497" lon="-2.70915">
        <ele>64.709157</ele>
        <time>2024-04-08T17:07:03.977Z</time>
      </trkpt>
      <trkpt lat="48.47523" lon="-2.70885">
        <ele>64.396149</ele>
        <time>2024-04-08T17:07:17.104Z</time>
      </trkpt>
      <trkpt lat="48.47522" lon="-2.7086">
        <ele>64.098454</ele>
        <time>2024-04-08T17:07:23.686Z</time>
      </trkpt>
      <trkpt lat="48.47512" lon="-2.70847">
        <ele>63.866196</ele>
        <time>2024-04-08T17:07:28.861Z</time>
      </trkpt>
      <trkpt lat="48.47485" lon="-2.70828">
        <ele>63.33564</ele>
        <time>2024-04-08T17:07:40.753Z</time>
      </trkpt>
      <trkpt lat="48.47468" lon="-2.70818">
        <ele>63.017869</ele>
        <time>2024-04-08T17:07:47.868Z</time>
      </trkpt>
      <trkpt lat="48.47434" lon="-2.70808">
        <ele>62.407126</ele>
        <time>2024-04-08T17:08:01.626Z</time>
      </trkpt>
      <trkpt lat="48.47429" lon="-2.70796">
        <ele>62.233441</ele>
        <time>2024-04-08T17:08:05.470Z</time>
      </trkpt>
      <trkpt lat="48.47413" lon="-2.70775">
        <ele>61.855972</ele>
        <time>2024-04-08T17:08:13.665Z</time>
      </trkpt>
      <trkpt lat="48.47392" lon="-2.70741">
        <ele>61.310284</ele>
        <time>2024-04-08T17:08:25.666Z</time>
      </trkpt>
      <trkpt lat="48.47384" lon="-2.70712">
        <ele>61.031019</ele>
        <time>2024-04-08T17:08:33.610Z</time>
      </trkpt>
      <trkpt lat="48.47379" lon="-2.70653">
        <ele>60.518002</ele>
        <time>2024-04-08T17:08:49.099Z</time>
      </trkpt>
      <trkpt lat="48.47383" lon="-2.70622">
        <ele>60.251142</ele>
        <time>2024-04-08T17:08:57.138Z</time>
      </trkpt>
      <trkpt lat="48.47391" lon="-2.70587">
        <ele>59.935728</ele>
        <time>2024-04-08T17:09:06.977Z</time>
      </trkpt>
      <trkpt lat="48.47399" lon="-2.70567">
        <ele>59.735955</ele>
        <time>2024-04-08T17:09:13.062Z</time>
      </trkpt>
      <trkpt lat="48.47379" lon="-2.70582">
        <ele>59.451271</ele>
        <time>2024-04-08T17:09:22.390Z</time>
      </trkpt>
      <trkpt lat="48.47339" lon="-2.70601">
        <ele>58.989966</ele>
        <time>2024-04-08T17:09:40.193Z</time>
      </trkpt>
      <trkpt lat="48.47321" lon="-2.70607">
        <ele>59.383224</ele>
        <time>2024-04-08T17:09:49.147Z</time>
      </trkpt>
      <trkpt lat="48.47277" lon="-2.70601">
        <ele>60.288307</ele>
        <time>2024-04-08T17:10:11.241Z</time>
      </trkpt>
      <trkpt lat="48.47266" lon="-2.70606">
        <ele>60.521811</ele>
        <time>2024-04-08T17:10:17.087Z</time>
      </trkpt>
      <trkpt lat="48.47221" lon="-2.70646">
        <ele>61.59721</ele>
        <time>2024-04-08T17:10:48.262Z</time>
      </trkpt>
      <trkpt lat="48.4721" lon="-2.7065">
        <ele>61.816459</ele>
        <time>2024-04-08T17:10:54.737Z</time>
      </trkpt>
      <trkpt lat="48.47197" lon="-2.70649">
        <ele>62.083874</ele>
        <time>2024-04-08T17:11:03.343Z</time>
      </trkpt>
      <trkpt lat="48.47149" lon="-2.70648">
        <ele>63.677611</ele>
        <time>2024-04-08T17:11:36.130Z</time>
      </trkpt>
      <trkpt lat="48.47029" lon="-2.70635">
        <ele>69.507656</ele>
        <time>2024-04-08T17:13:05.892Z</time>
      </trkpt>
      <trkpt lat="48.4699" lon="-2.70616">
        <ele>71.532623</ele>
        <time>2024-04-08T17:13:37.398Z</time>
      </trkpt>
      <trkpt lat="48.46883" lon="-2.70551">
        <ele>77.607267</ele>
        <time>2024-04-08T17:14:47.001Z</time>
      </trkpt>
      <trkpt lat="48.46889" lon="-2.70545">
        <ele>77.963858</ele>
        <time>2024-04-08T17:14:52.329Z</time>
      </trkpt>
      <trkpt lat="48.46905" lon="-2.70526">
        <ele>79.035805</ele>
        <time>2024-04-08T17:15:08.359Z</time>
      </trkpt>
      <trkpt lat="48.46914" lon="-2.70508">
        <ele>79.82887</ele>
        <time>2024-04-08T17:15:19.949Z</time>
      </trkpt>
      <trkpt lat="48.46981" lon="-2.70288">
        <ele>86.625405</ele>
        <time>2024-04-08T17:17:15.576Z</time>
      </trkpt>
      <trkpt lat="48.46995" lon="-2.70251">
        <ele>87.770636</ele>
        <time>2024-04-08T17:17:32.824Z</time>
      </trkpt>
      <trkpt lat="48.47001" lon="-2.7024">
        <ele>88.136386</ele>
        <time>2024-04-08T17:17:38.277Z</time>
      </trkpt>
      <trkpt lat="48.47028" lon="-2.70205">
        <ele>88.642374</ele>
        <time>2024-04-08T17:17:58.834Z</time>
      </trkpt>
      <trkpt lat="48.47061" lon="-2.70153">
        <ele>89.225647</ele>
        <time>2024-04-08T17:18:24.141Z</time>
      </trkpt>
      <trkpt lat="48.471" lon="-2.70079">
        <ele>89.991831</ele>
        <time>2024-04-08T17:18:54.738Z</time>
      </trkpt>
      <trkpt lat="48.47124" lon="-2.70005">
        <ele>90.583321</ele>
        <time>2024-04-08T17:19:19.679Z</time>
      </trkpt>
      <trkpt lat="48.47124" lon="-2.69967">
        <ele>90.797547</ele>
        <time>2024-04-08T17:19:31.183Z</time>
      </trkpt>
      <trkpt lat="48.47127" lon="-2.69955">
        <ele>90.867113</ele>
        <time>2024-04-08T17:19:34.856Z</time>
      </trkpt>
      <trkpt lat="48.47183" lon="-2.69857">
        <ele>91.591903</ele>
        <time>2024-04-08T17:20:17.632Z</time>
      </trkpt>
      <trkpt lat="48.47237" lon="-2.69783">
        <ele>92.285315</ele>
        <time>2024-04-08T17:20:56.031Z</time>
      </trkpt>
      <trkpt lat="48.47248" lon="-2.69768">
        <ele>92.451627</ele>
        <time>2024-04-08T17:21:05.158Z</time>
      </trkpt>
      <trkpt lat="48.47333" lon="-2.69654">
        <ele>93.69569</ele>
        <time>2024-04-08T17:22:03.547Z</time>
      </trkpt>
      <trkpt lat="48.47344" lon="-2.69648">
        <ele>93.826054</ele>
        <time>2024-04-08T17:22:08.919Z</time>
      </trkpt>
      <trkpt lat="48.4736" lon="-2.6963">
        <ele>93.849112</ele>
        <time>2024-04-08T17:22:19.735Z</time>
      </trkpt>
      <trkpt lat="48.47456" lon="-2.69482">
        <ele>93.043229</ele>
        <time>2024-04-08T17:23:17.720Z</time>
      </trkpt>
      <trkpt lat="48.47473" lon="-2.69461">
        <ele>92.912665</ele>
        <time>2024-04-08T17:23:26.762Z</time>
      </trkpt>
      <trkpt lat="48.47538" lon="-2.69395">
        <ele>91.637869</ele>
        <time>2024-04-08T17:23:57.787Z</time>
      </trkpt>
      <trkpt lat="48.47545" lon="-2.69381">
        <ele>91.427317</ele>
        <time>2024-04-08T17:24:02.438Z</time>
      </trkpt>
      <trkpt lat="48.47545" lon="-2.69381">
        <ele>91.424381</ele>
        <time>2024-04-08T17:24:02.497Z</time>
      </trkpt>
      <trkpt lat="48.47547" lon="-2.6937">
        <ele>91.288406</ele>
        <time>2024-04-08T17:24:05.501Z</time>
      </trkpt>
      <trkpt lat="48.47563" lon="-2.69355">
        <ele>90.95679</ele>
        <time>2024-04-08T17:24:09.846Z</time>
      </trkpt>
      <trkpt lat="48.47577" lon="-2.69326">
        <ele>90.546093</ele>
        <time>2024-04-08T17:24:15.150Z</time>
      </trkpt>
      <trkpt lat="48.47587" lon="-2.69297">
        <ele>90.156485</ele>
        <time>2024-04-08T17:24:20.173Z</time>
      </trkpt>
      <trkpt lat="48.47631" lon="-2.69147">
        <ele>87.994339</ele>
        <time>2024-04-08T17:24:45.555Z</time>
      </trkpt>
      <trkpt lat="48.47644" lon="-2.69137">
        <ele>87.683952</ele>
        <time>2024-04-08T17:24:49.059Z</time>
      </trkpt>
      <trkpt lat="48.47657" lon="-2.69117">
        <ele>87.302205</ele>
        <time>2024-04-08T17:24:53.318Z</time>
      </trkpt>
      <trkpt lat="48.47673" lon="-2.69083">
        <ele>86.726102</ele>
        <time>2024-04-08T17:24:59.674Z</time>
      </trkpt>
      <trkpt lat="48.47683" lon="-2.69082">
        <ele>86.523294</ele>
        <time>2024-04-08T17:25:03.490Z</time>
      </trkpt>
      <trkpt lat="48.47723" lon="-2.69064">
        <ele>85.509255</ele>
        <time>2024-04-08T17:25:19.453Z</time>
      </trkpt>
      <trkpt lat="48.4777" lon="-2.69041">
        <ele>83.942848</ele>
        <time>2024-04-08T17:25:37.724Z</time>
      </trkpt>
      <trkpt lat="48.47791" lon="-2.69028">
        <ele>83.22221</ele>
        <time>2024-04-08T17:25:46.178Z</time>
      </trkpt>
      <trkpt lat="48.47802" lon="-2.69021">
        <ele>82.845823</ele>
        <time>2024-04-08T17:25:50.477Z</time>
      </trkpt>
      <trkpt lat="48.47821" lon="-2.69003">
        <ele>82.126908</ele>
        <time>2024-04-08T17:25:58.789Z</time>
      </trkpt>
      <trkpt lat="48.47831" lon="-2.68985">
        <ele>81.618157</ele>
        <time>2024-04-08T17:26:04.552Z</time>
      </trkpt>
      <trkpt lat="48.47844" lon="-2.68955">
        <ele>80.865047</ele>
        <time>2024-04-08T17:26:13.161Z</time>
      </trkpt>
      <trkpt lat="48.47866" lon="-2.68929">
        <ele>79.970935</ele>
        <time>2024-04-08T17:26:19.004Z</time>
      </trkpt>
      <trkpt lat="48.47874" lon="-2.68923">
        <ele>79.703976</ele>
        <time>2024-04-08T17:26:20.838Z</time>
      </trkpt>
      <trkpt lat="48.47869" lon="-2.69106">
        <ele>75.939617</ele>
        <time>2024-04-08T17:26:46.627Z</time>
      </trkpt>
      <trkpt lat="48.47865" lon="-2.69163">
        <ele>74.768316</ele>
        <time>2024-04-08T17:26:55.316Z</time>
      </trkpt>
      <trkpt lat="48.47857" lon="-2.69215">
        <ele>73.623317</ele>
        <time>2024-04-08T17:27:03.914Z</time>
      </trkpt>
      <trkpt lat="48.47843" lon="-2.69282">
        <ele>72.123272</ele>
        <time>2024-04-08T17:27:14.404Z</time>
      </trkpt>
      <trkpt lat="48.4781" lon="-2.694">
        <ele>69.363454</ele>
        <time>2024-04-08T17:27:32.649Z</time>
      </trkpt>
      <trkpt lat="48.47815" lon="-2.69398">
        <ele>69.207896</ele>
        <time>2024-04-08T17:27:34.380Z</time>
      </trkpt>
      <trkpt lat="48.47819" lon="-2.69391">
        <ele>68.995572</ele>
        <time>2024-04-08T17:27:36.617Z</time>
      </trkpt>
      <trkpt lat="48.47826" lon="-2.69369">
        <ele>67.983819</ele>
        <time>2024-04-08T17:27:41.949Z</time>
      </trkpt>
      <trkpt lat="48.47864" lon="-2.69375">
        <ele>65.002456</ele>
        <time>2024-04-08T17:27:54.690Z</time>
      </trkpt>
      <trkpt lat="48.47873" lon="-2.69369">
        <ele>64.245719</ele>
        <time>2024-04-08T17:27:57.911Z</time>
      </trkpt>
      <trkpt lat="48.47889" lon="-2.69317">
        <ele>61.240903</ele>
        <time>2024-04-08T17:28:10.341Z</time>
      </trkpt>
      <trkpt lat="48.47904" lon="-2.69286">
        <ele>59.313463</ele>
        <time>2024-04-08T17:28:18.134Z</time>
      </trkpt>
      <trkpt lat="48.47918" lon="-2.69273">
        <ele>58.016478</ele>
        <time>2024-04-08T17:28:23.326Z</time>
      </trkpt>
      <trkpt lat="48.47982" lon="-2.69262">
        <ele>52.904609</ele>
        <time>2024-04-08T17:28:43.333Z</time>
      </trkpt>
      <trkpt lat="48.47995" lon="-2.69247">
        <ele>51.584005</ele>
        <time>2024-04-08T17:28:48.362Z</time>
      </trkpt>
      <trkpt lat="48.47999" lon="-2.69227">
        <ele>50.500885</ele>
        <time>2024-04-08T17:28:52.513Z</time>
      </trkpt>
      <trkpt lat="48.47991" lon="-2.69208">
        <ele>49.29681</ele>
        <time>2024-04-08T17:28:57.101Z</time>
      </trkpt>
      <trkpt lat="48.47982" lon="-2.69198">
        <ele>48.379287</ele>
        <time>2024-04-08T17:29:00.637Z</time>
      </trkpt>
      <trkpt lat="48.47981" lon="-2.69181">
        <ele>47.445822</ele>
        <time>2024-04-08T17:29:04.255Z</time>
      </trkpt>
      <trkpt lat="48.48012" lon="-2.69173">
        <ele>44.898411</ele>
        <time>2024-04-08T17:29:14.239Z</time>
      </trkpt>
      <trkpt lat="48.48026" lon="-2.69176">
        <ele>43.685059</ele>
        <time>2024-04-08T17:29:19.050Z</time>
      </trkpt>
      <trkpt lat="48.48046" lon="-2.6924">
        <ele>40.168103</ele>
        <time>2024-04-08T17:29:34.768Z</time>
      </trkpt>
      <trkpt lat="48.48045" lon="-2.69286">
        <ele>39.26251</ele>
        <time>2024-04-08T17:29:45.925Z</time>
      </trkpt>
      <trkpt lat="48.48039" lon="-2.69319">
        <ele>38.603027</ele>
        <time>2024-04-08T17:29:54.344Z</time>
      </trkpt>
      <trkpt lat="48.48065" lon="-2.69356">
        <ele>37.549253</ele>
        <time>2024-04-08T17:30:07.688Z</time>
      </trkpt>
      <trkpt lat="48.48057" lon="-2.6938">
        <ele>37.036026</ele>
        <time>2024-04-08T17:30:14.140Z</time>
      </trkpt>
      <trkpt lat="48.48065" lon="-2.69414">
        <ele>36.331946</ele>
        <time>2024-04-08T17:30:23.715Z</time>
      </trkpt>
      <trkpt lat="48.48112" lon="-2.69356">
        <ele>34.923124</ele>
        <time>2024-04-08T17:30:37.634Z</time>
      </trkpt>
      <trkpt lat="48.48118" lon="-2.69341">
        <ele>34.850573</ele>
        <time>2024-04-08T17:30:40.560Z</time>
      </trkpt>
      <trkpt lat="48.48131" lon="-2.69273">
        <ele>34.537799</ele>
        <time>2024-04-08T17:30:52.394Z</time>
      </trkpt>
      <trkpt lat="48.48139" lon="-2.69203">
        <ele>34.229117</ele>
        <time>2024-04-08T17:31:04.447Z</time>
      </trkpt>
      <trkpt lat="48.48153" lon="-2.69139">
        <ele>33.932547</ele>
        <time>2024-04-08T17:31:15.227Z</time>
      </trkpt>
      <trkpt lat="48.48152" lon="-2.6908">
        <ele>34.010044</ele>
        <time>2024-04-08T17:31:24.947Z</time>
      </trkpt>
      <trkpt lat="48.48155" lon="-2.69028">
        <ele>34.226431</ele>
        <time>2024-04-08T17:31:34.382Z</time>
      </trkpt>
      <trkpt lat="48.48158" lon="-2.69007">
        <ele>34.313544</ele>
        <time>2024-04-08T17:31:38.442Z</time>
      </trkpt>
      <trkpt lat="48.48166" lon="-2.68974">
        <ele>34.462794</ele>
        <time>2024-04-08T17:31:45.278Z</time>
      </trkpt>
      <trkpt lat="48.48177" lon="-2.6894">
        <ele>34.619459</ele>
        <time>2024-04-08T17:31:52.548Z</time>
      </trkpt>
      <trkpt lat="48.48185" lon="-2.68924">
        <ele>34.701494</ele>
        <time>2024-04-08T17:31:55.946Z</time>
      </trkpt>
      <trkpt lat="48.482" lon="-2.68913">
        <ele>34.801511</ele>
        <time>2024-04-08T17:32:01.986Z</time>
      </trkpt>
      <trkpt lat="48.48215" lon="-2.68914">
        <ele>34.895976</ele>
        <time>2024-04-08T17:32:08.632Z</time>
      </trkpt>
      <trkpt lat="48.48223" lon="-2.68918">
        <ele>34.951318</ele>
        <time>2024-04-08T17:32:11.594Z</time>
      </trkpt>
      <trkpt lat="48.48228" lon="-2.68923">
        <ele>35.019548</ele>
        <time>2024-04-08T17:32:13.551Z</time>
      </trkpt>
      <trkpt lat="48.48234" lon="-2.68937">
        <ele>35.242741</ele>
        <time>2024-04-08T17:32:19.206Z</time>
      </trkpt>
      <trkpt lat="48.48237" lon="-2.68952">
        <ele>35.442382</ele>
        <time>2024-04-08T17:32:23.846Z</time>
      </trkpt>
      <trkpt lat="48.48237" lon="-2.68968">
        <ele>35.646806</ele>
        <time>2024-04-08T17:32:27.354Z</time>
      </trkpt>
      <trkpt lat="48.48234" lon="-2.68983">
        <ele>35.848391</ele>
        <time>2024-04-08T17:32:31.891Z</time>
      </trkpt>
      <trkpt lat="48.48229" lon="-2.68995">
        <ele>36.02859</ele>
        <time>2024-04-08T17:32:36.336Z</time>
      </trkpt>
      <trkpt lat="48.48202" lon="-2.69035">
        <ele>36.776288</ele>
        <time>2024-04-08T17:32:53.362Z</time>
      </trkpt>
      <trkpt lat="48.482" lon="-2.69046">
        <ele>36.917837</ele>
        <time>2024-04-08T17:32:56.295Z</time>
      </trkpt>
      <trkpt lat="48.48205" lon="-2.6906">
        <ele>37.124025</ele>
        <time>2024-04-08T17:33:00.176Z</time>
      </trkpt>
      <trkpt lat="48.48221" lon="-2.69032">
        <ele>37.584238</ele>
        <time>2024-04-08T17:33:10.397Z</time>
      </trkpt>
      <trkpt lat="48.48292" lon="-2.68943">
        <ele>37.652929</ele>
        <time>2024-04-08T17:33:38.971Z</time>
      </trkpt>
      <trkpt lat="48.48292" lon="-2.68928">
        <ele>37.472315</ele>
        <time>2024-04-08T17:33:41.790Z</time>
      </trkpt>
      <trkpt lat="48.48297" lon="-2.68921">
        <ele>37.350373</ele>
        <time>2024-04-08T17:33:43.486Z</time>
      </trkpt>
      <trkpt lat="48.48306" lon="-2.68921">
        <ele>37.192966</ele>
        <time>2024-04-08T17:33:45.526Z</time>
      </trkpt>
      <trkpt lat="48.48311" lon="-2.68927">
        <ele>37.08542</ele>
        <time>2024-04-08T17:33:47.305Z</time>
      </trkpt>
      <trkpt lat="48.48357" lon="-2.6887">
        <ele>36.036841</ele>
        <time>2024-04-08T17:34:00.302Z</time>
      </trkpt>
      <trkpt lat="48.48373" lon="-2.68845">
        <ele>35.632811</ele>
        <time>2024-04-08T17:34:04.829Z</time>
      </trkpt>
      <trkpt lat="48.48383" lon="-2.68828">
        <ele>35.35786</ele>
        <time>2024-04-08T17:34:07.802Z</time>
      </trkpt>
      <trkpt lat="48.48402" lon="-2.68791">
        <ele>33.671717</ele>
        <time>2024-04-08T17:34:13.650Z</time>
      </trkpt>
      <trkpt lat="48.48412" lon="-2.68764">
        <ele>32.491504</ele>
        <time>2024-04-08T17:34:17.398Z</time>
      </trkpt>
      <trkpt lat="48.48457" lon="-2.68597">
        <ele>25.563393</ele>
        <time>2024-04-08T17:34:39.252Z</time>
      </trkpt>
      <trkpt lat="48.48466" lon="-2.68568">
        <ele>24.461322</ele>
        <time>2024-04-08T17:34:43.198Z</time>
      </trkpt>
      <trkpt lat="48.48498" lon="-2.68501">
        <ele>22.204101</ele>
        <time>2024-04-08T17:34:53.321Z</time>
      </trkpt>
      <trkpt lat="48.48561" lon="-2.6839">
        <ele>18.15739</ele>
        <time>2024-04-08T17:35:12.768Z</time>
      </trkpt>
      <trkpt lat="48.48567" lon="-2.68381">
        <ele>17.830837</ele>
        <time>2024-04-08T17:35:14.405Z</time>
      </trkpt>
      <trkpt lat="48.48564" lon="-2.68368">
        <ele>17.463486</ele>
        <time>2024-04-08T17:35:16.364Z</time>
      </trkpt>
      <trkpt lat="48.4857" lon="-2.68358">
        <ele>17.365606</ele>
        <time>2024-04-08T17:35:18.273Z</time>
      </trkpt>
      <trkpt lat="48.48578" lon="-2.6836">
        <ele>17.367285</ele>
        <time>2024-04-08T17:35:20.013Z</time>
      </trkpt>
      <trkpt lat="48.48582" lon="-2.68366">
        <ele>17.368409</ele>
        <time>2024-04-08T17:35:21.194Z</time>
      </trkpt>
      <trkpt lat="48.48605" lon="-2.6835">
        <ele>17.373817</ele>
        <time>2024-04-08T17:35:27.452Z</time>
      </trkpt>
      <trkpt lat="48.48624" lon="-2.68369">
        <ele>17.378711</ele>
        <time>2024-04-08T17:35:33.581Z</time>
      </trkpt>
      <trkpt lat="48.48675" lon="-2.68448">
        <ele>17.393984</ele>
        <time>2024-04-08T17:35:56.523Z</time>
      </trkpt>
      <trkpt lat="48.48681" lon="-2.68465">
        <ele>17.396674</ele>
        <time>2024-04-08T17:36:01.104Z</time>
      </trkpt>
      <trkpt lat="48.48692" lon="-2.68488">
        <ele>17.400719</ele>
        <time>2024-04-08T17:36:09.025Z</time>
      </trkpt>
      <trkpt lat="48.48706" lon="-2.68505">
        <ele>17.529456</ele>
        <time>2024-04-08T17:36:16.013Z</time>
      </trkpt>
      <trkpt lat="48.48745" lon="-2.68528">
        <ele>18.00761</ele>
        <time>2024-04-08T17:36:32.670Z</time>
      </trkpt>
      <trkpt lat="48.48847" lon="-2.68587">
        <ele>19.240182</ele>
        <time>2024-04-08T17:37:10.865Z</time>
      </trkpt>
      <trkpt lat="48.48911" lon="-2.68639">
        <ele>19.610311</ele>
        <time>2024-04-08T17:37:30.512Z</time>
      </trkpt>
      <trkpt lat="48.48997" lon="-2.6869">
        <ele>19.887185</ele>
        <time>2024-04-08T17:37:55.831Z</time>
      </trkpt>
      <trkpt lat="48.49035" lon="-2.68716">
        <ele>20.27189</ele>
        <time>2024-04-08T17:38:10.178Z</time>
      </trkpt>
      <trkpt lat="48.49059" lon="-2.68723">
        <ele>20.968572</ele>
        <time>2024-04-08T17:38:19.260Z</time>
      </trkpt>
      <trkpt lat="48.49054" lon="-2.68786">
        <ele>22.20021</ele>
        <time>2024-04-08T17:38:43.387Z</time>
      </trkpt>
      <trkpt lat="48.49031" lon="-2.68934">
        <ele>25.141165</ele>
        <time>2024-04-08T17:39:50.791Z</time>
      </trkpt>
      <trkpt lat="48.49023" lon="-2.68977">
        <ele>26.317398</ele>
        <time>2024-04-08T17:40:12.736Z</time>
      </trkpt>
      <trkpt lat="48.49015" lon="-2.68995">
        <ele>26.907837</ele>
        <time>2024-04-08T17:40:22.727Z</time>
      </trkpt>
      <trkpt lat="48.49002" lon="-2.69007">
        <ele>27.532716</ele>
        <time>2024-04-08T17:40:34.077Z</time>
      </trkpt>
      <trkpt lat="48.48999" lon="-2.6902">
        <ele>27.891934</ele>
        <time>2024-04-08T17:40:40.231Z</time>
      </trkpt>
      <trkpt lat="48.48998" lon="-2.69122">
        <ele>30.639615</ele>
        <time>2024-04-08T17:41:26.909Z</time>
      </trkpt>
      <trkpt lat="48.49017" lon="-2.69242">
        <ele>33.773905</ele>
        <time>2024-04-08T17:42:21.935Z</time>
      </trkpt>
      <trkpt lat="48.49024" lon="-2.69278">
        <ele>34.645671</ele>
        <time>2024-04-08T17:42:38.455Z</time>
      </trkpt>
      <trkpt lat="48.49095" lon="-2.69468">
        <ele>39.452506</ele>
        <time>2024-04-08T17:44:12.928Z</time>
      </trkpt>
      <trkpt lat="48.49108" lon="-2.69501">
        <ele>40.046935</ele>
        <time>2024-04-08T17:44:23.793Z</time>
      </trkpt>
      <trkpt lat="48.49117" lon="-2.69543">
        <ele>40.740399</ele>
        <time>2024-04-08T17:44:36.056Z</time>
      </trkpt>
      <trkpt lat="48.49123" lon="-2.69604">
        <ele>41.707697</ele>
        <time>2024-04-08T17:44:53.182Z</time>
      </trkpt>
      <trkpt lat="48.49135" lon="-2.69659">
        <ele>42.617847</ele>
        <time>2024-04-08T17:45:07.493Z</time>
      </trkpt>
      <trkpt lat="48.49166" lon="-2.69688">
        <ele>43.285028</ele>
        <time>2024-04-08T17:45:20.277Z</time>
      </trkpt>
      <trkpt lat="48.49182" lon="-2.69694">
        <ele>43.454591</ele>
        <time>2024-04-08T17:45:25.920Z</time>
      </trkpt>
      <trkpt lat="48.49204" lon="-2.69715">
        <ele>43.733124</ele>
        <time>2024-04-08T17:45:33.714Z</time>
      </trkpt>
      <trkpt lat="48.49235" lon="-2.69763">
        <ele>44.207779</ele>
        <time>2024-04-08T17:45:47.219Z</time>
      </trkpt>
      <trkpt lat="48.49243" lon="-2.69754">
        <ele>44.314283</ele>
        <time>2024-04-08T17:45:49.686Z</time>
      </trkpt>
      <trkpt lat="48.49264" lon="-2.69778">
        <ele>44.596565</ele>
        <time>2024-04-08T17:45:58.966Z</time>
      </trkpt>
      <trkpt lat="48.49281" lon="-2.69776">
        <ele>44.777513</ele>
        <time>2024-04-08T17:46:03.983Z</time>
      </trkpt>
      <trkpt lat="48.49314" lon="-2.69795">
        <ele>45.34068</ele>
        <time>2024-04-08T17:46:16.593Z</time>
      </trkpt>
      <trkpt lat="48.49359" lon="-2.69839">
        <ele>46.859602</ele>
        <time>2024-04-08T17:46:38.384Z</time>
      </trkpt>
      <trkpt lat="48.49368" lon="-2.6991">
        <ele>48.218994</ele>
        <time>2024-04-08T17:47:07.422Z</time>
      </trkpt>
      <trkpt lat="48.49391" lon="-2.69967">
        <ele>49.463472</ele>
        <time>2024-04-08T17:47:36.524Z</time>
      </trkpt>
      <trkpt lat="48.49399" lon="-2.70003">
        <ele>50.20253</ele>
        <time>2024-04-08T17:47:53.720Z</time>
      </trkpt>
      <trkpt lat="48.49442" lon="-2.70103">
        <ele>53.328246</ele>
        <time>2024-04-08T17:48:49.448Z</time>
      </trkpt>
      <trkpt lat="48.49457" lon="-2.70127">
        <ele>54.208489</ele>
        <time>2024-04-08T17:49:05.174Z</time>
      </trkpt>
      <trkpt lat="48.49513" lon="-2.70197">
        <ele>57.09252</ele>
        <time>2024-04-08T17:49:54.549Z</time>
      </trkpt>
      <trkpt lat="48.49587" lon="-2.70219">
        <ele>59.467745</ele>
        <time>2024-04-08T17:50:41.863Z</time>
      </trkpt>
      <trkpt lat="48.49627" lon="-2.70222">
        <ele>60.714383</ele>
        <time>2024-04-08T17:51:06.387Z</time>
      </trkpt>
      <trkpt lat="48.49631" lon="-2.70223">
        <ele>60.835737</ele>
        <time>2024-04-08T17:51:08.827Z</time>
      </trkpt>
      <trkpt lat="48.49629" lon="-2.70305">
        <ele>62.530105</ele>
        <time>2024-04-08T17:51:33.926Z</time>
      </trkpt>
      <trkpt lat="48.49621" lon="-2.70432">
        <ele>65.496612</ele>
        <time>2024-04-08T17:52:14.097Z</time>
      </trkpt>
      <trkpt lat="48.49626" lon="-2.70522">
        <ele>67.612492</ele>
        <time>2024-04-08T17:52:43.835Z</time>
      </trkpt>
      <trkpt lat="48.49622" lon="-2.70588">
        <ele>69.169876</ele>
        <time>2024-04-08T17:53:06.684Z</time>
      </trkpt>
      <trkpt lat="48.49617" lon="-2.70604">
        <ele>69.574538</ele>
        <time>2024-04-08T17:53:12.689Z</time>
      </trkpt>
      <trkpt lat="48.49585" lon="-2.7068">
        <ele>71.615736</ele>
        <time>2024-04-08T17:53:42.953Z</time>
      </trkpt>
      <trkpt lat="48.49588" lon="-2.70703">
        <ele>72.137311</ele>
        <time>2024-04-08T17:53:50.593Z</time>
      </trkpt>
      <trkpt lat="48.49634" lon="-2.70759">
        <ele>74.156226</ele>
        <time>2024-04-08T17:54:19.069Z</time>
      </trkpt>
      <trkpt lat="48.49654" lon="-2.70783">
        <ele>75.053908</ele>
        <time>2024-04-08T17:54:31.121Z</time>
      </trkpt>
      <trkpt lat="48.49666" lon="-2.70796">
        <ele>75.464883</ele>
        <time>2024-04-08T17:54:37.314Z</time>
      </trkpt>
      <trkpt lat="48.49694" lon="-2.70824">
        <ele>76.091353</ele>
        <time>2024-04-08T17:54:51.645Z</time>
      </trkpt>
      <trkpt lat="48.49733" lon="-2.70859">
        <ele>76.937691</ele>
        <time>2024-04-08T17:55:09.732Z</time>
      </trkpt>
      <trkpt lat="48.49734" lon="-2.70854">
        <ele>76.994893</ele>
        <time>2024-04-08T17:55:10.873Z</time>
      </trkpt>
      <trkpt lat="48.49781" lon="-2.70868">
        <ele>77.884359</ele>
        <time>2024-04-08T17:55:28.271Z</time>
      </trkpt>
      <trkpt lat="48.49846" lon="-2.70911">
        <ele>79.043663</ele>
        <time>2024-04-08T17:55:52.370Z</time>
      </trkpt>
      <trkpt lat="48.49818" lon="-2.71002">
        <ele>79.882489</ele>
        <time>2024-04-08T17:56:25.777Z</time>
      </trkpt>
      <trkpt lat="48.49808" lon="-2.7103">
        <ele>80.147992</ele>
        <time>2024-04-08T17:56:36.168Z</time>
      </trkpt>
      <trkpt lat="48.49795" lon="-2.71073">
        <ele>80.545292</ele>
        <time>2024-04-08T17:56:52.454Z</time>
      </trkpt>
      <trkpt lat="48.49785" lon="-2.71101">
        <ele>80.805659</ele>
        <time>2024-04-08T17:57:03.758Z</time>
      </trkpt>
      <trkpt lat="48.49776" lon="-2.71129">
        <ele>81.138141</ele>
        <time>2024-04-08T17:57:15.043Z</time>
      </trkpt>
      <trkpt lat="48.4977" lon="-2.71149">
        <ele>81.486437</ele>
        <time>2024-04-08T17:57:23.666Z</time>
      </trkpt>
      <trkpt lat="48.49757" lon="-2.71191">
        <ele>82.196278</ele>
        <time>2024-04-08T17:57:40.596Z</time>
      </trkpt>
      <trkpt lat="48.49738" lon="-2.71252">
        <ele>83.248791</ele>
        <time>2024-04-08T17:58:05.885Z</time>
      </trkpt>
      <trkpt lat="48.49719" lon="-2.71313">
        <ele>84.298332</ele>
        <time>2024-04-08T17:58:32.529Z</time>
      </trkpt>
      <trkpt lat="48.49705" lon="-2.71357">
        <ele>85.050404</ele>
        <time>2024-04-08T17:58:52.934Z</time>
      </trkpt>
      <trkpt lat="48.49687" lon="-2.71415">
        <ele>86.308261</ele>
        <time>2024-04-08T17:59:20.191Z</time>
      </trkpt>
      <trkpt lat="48.49678" lon="-2.71441">
        <ele>86.90448</ele>
        <time>2024-04-08T17:59:32.984Z</time>
      </trkpt>
      <trkpt lat="48.49659" lon="-2.71503">
        <ele>88.292416</ele>
        <time>2024-04-08T18:00:01.405Z</time>
      </trkpt>
      <trkpt lat="48.49653" lon="-2.71524">
        <ele>88.753498</ele>
        <time>2024-04-08T18:00:10.884Z</time>
      </trkpt>
      <trkpt lat="48.49645" lon="-2.71549">
        <ele>89.321483</ele>
        <time>2024-04-08T18:00:22.706Z</time>
      </trkpt>
      <trkpt lat="48.49626" lon="-2.71538">
        <ele>89.942656</ele>
        <time>2024-04-08T18:00:35.305Z</time>
      </trkpt>
      <trkpt lat="48.49592" lon="-2.71525">
        <ele>90.911096</ele>
        <time>2024-04-08T18:00:56.935Z</time>
      </trkpt>
      <trkpt lat="48.49572" lon="-2.7152">
        <ele>91.341956</ele>
        <time>2024-04-08T18:01:07.597Z</time>
      </trkpt>
      <trkpt lat="48.49574" lon="-2.7157">
        <ele>92.047499</ele>
        <time>2024-04-08T18:01:22.389Z</time>
      </trkpt>
      <trkpt lat="48.4957" lon="-2.71573">
        <ele>92.133868</ele>
        <time>2024-04-08T18:01:24.023Z</time>
      </trkpt>
      <trkpt lat="48.49562" lon="-2.71577">
        <ele>92.303561</ele>
        <time>2024-04-08T18:01:27.984Z</time>
      </trkpt>
      <trkpt lat="48.49557" lon="-2.71576">
        <ele>92.410813</ele>
        <time>2024-04-08T18:01:29.990Z</time>
      </trkpt>
      <trkpt lat="48.49554" lon="-2.71576">
        <ele>92.471758</ele>
        <time>2024-04-08T18:01:31.198Z</time>
      </trkpt>
      <trkpt lat="48.49498" lon="-2.716">
        <ele>93.697978</ele>
        <time>2024-04-08T18:01:54.036Z</time>
      </trkpt>
      <trkpt lat="48.49496" lon="-2.71593">
        <ele>93.798957</ele>
        <time>2024-04-08T18:01:56.255Z</time>
      </trkpt>
      <trkpt lat="48.49473" lon="-2.71592">
        <ele>94.289765</ele>
        <time>2024-04-08T18:02:03.266Z</time>
      </trkpt>
      <trkpt lat="48.49449" lon="-2.71582">
        <ele>94.63074</ele>
        <time>2024-04-08T18:02:11.513Z</time>
      </trkpt>
      <trkpt lat="48.49444" lon="-2.71568">
        <ele>94.736725</ele>
        <time>2024-04-08T18:02:14.529Z</time>
      </trkpt>
      <trkpt lat="48.4943" lon="-2.71524">
        <ele>95.050278</ele>
        <time>2024-04-08T18:02:26.513Z</time>
      </trkpt>
      <trkpt lat="48.49428" lon="-2.71518">
        <ele>95.093983</ele>
        <time>2024-04-08T18:02:27.932Z</time>
      </trkpt>
      <trkpt lat="48.49411" lon="-2.71561">
        <ele>95.419392</ele>
        <time>2024-04-08T18:02:39.096Z</time>
      </trkpt>
      <trkpt lat="48.49405" lon="-2.71575">
        <ele>95.524909</ele>
        <time>2024-04-08T18:02:42.624Z</time>
      </trkpt>
      <trkpt lat="48.49398" lon="-2.71594">
        <ele>95.661651</ele>
        <time>2024-04-08T18:02:47.495Z</time>
      </trkpt>
      <trkpt lat="48.49385" lon="-2.71636">
        <ele>95.95939</ele>
        <time>2024-04-08T18:02:57.228Z</time>
      </trkpt>
      <trkpt lat="48.49382" lon="-2.71658">
        <ele>96.105327</ele>
        <time>2024-04-08T18:03:01.890Z</time>
      </trkpt>
      <trkpt lat="48.49383" lon="-2.71664">
        <ele>96.142826</ele>
        <time>2024-04-08T18:03:03.028Z</time>
      </trkpt>
      <trkpt lat="48.49381" lon="-2.71671">
        <ele>96.197856</ele>
        <time>2024-04-08T18:03:04.724Z</time>
      </trkpt>
      <trkpt lat="48.49373" lon="-2.71672">
        <ele>96.288268</ele>
        <time>2024-04-08T18:03:07.646Z</time>
      </trkpt>
      <trkpt lat="48.49371" lon="-2.71667">
        <ele>96.340365</ele>
        <time>2024-04-08T18:03:08.989Z</time>
      </trkpt>
      <trkpt lat="48.49362" lon="-2.71658">
        <ele>96.486832</ele>
        <time>2024-04-08T18:03:12.670Z</time>
      </trkpt>
      <trkpt lat="48.49352" lon="-2.71652">
        <ele>96.625689</ele>
        <time>2024-04-08T18:03:15.908Z</time>
      </trkpt>
      <trkpt lat="48.49323" lon="-2.71637">
        <ele>97.019366</ele>
        <time>2024-04-08T18:03:26.297Z</time>
      </trkpt>
      <trkpt lat="48.49289" lon="-2.7162">
        <ele>97.493075</ele>
        <time>2024-04-08T18:03:39.595Z</time>
      </trkpt>
      <trkpt lat="48.49263" lon="-2.71611">
        <ele>97.841204</ele>
        <time>2024-04-08T18:03:49.619Z</time>
      </trkpt>
      <trkpt lat="48.49255" lon="-2.71597">
        <ele>98.001671</ele>
        <time>2024-04-08T18:03:54.109Z</time>
      </trkpt>
      <trkpt lat="48.4925" lon="-2.71602">
        <ele>98.083763</ele>
        <time>2024-04-08T18:03:56.335Z</time>
      </trkpt>
      <trkpt lat="48.49234" lon="-2.71601">
        <ele>98.293517</ele>
        <time>2024-04-08T18:04:02.627Z</time>
      </trkpt>
      <trkpt lat="48.49202" lon="-2.71586">
        <ele>98.684133</ele>
        <time>2024-04-08T18:04:14.595Z</time>
      </trkpt>
      <trkpt lat="48.49154" lon="-2.71565">
        <ele>99.132941</ele>
        <time>2024-04-08T18:04:32.167Z</time>
      </trkpt>
      <trkpt lat="48.49131" lon="-2.71555">
        <ele>99.34893</ele>
        <time>2024-04-08T18:04:40.285Z</time>
      </trkpt>
      <trkpt lat="48.49126" lon="-2.71556">
        <ele>99.390078</ele>
        <time>2024-04-08T18:04:41.793Z</time>
      </trkpt>
      <trkpt lat="48.49112" lon="-2.71555">
        <ele>99.521361</ele>
        <time>2024-04-08T18:04:46.472Z</time>
      </trkpt>
      <trkpt lat="48.49066" lon="-2.71518">
        <ele>99.98318</ele>
        <time>2024-04-08T18:05:11.206Z</time>
      </trkpt>
      <trkpt lat="48.49023" lon="-2.71476">
        <ele>100.063921</ele>
        <time>2024-04-08T18:05:34.124Z</time>
      </trkpt>
      <trkpt lat="48.48976" lon="-2.7142">
        <ele>99.791114</ele>
        <time>2024-04-08T18:05:59.904Z</time>
      </trkpt>
      <trkpt lat="48.48973" lon="-2.71416">
        <ele>99.774067</ele>
        <time>2024-04-08T18:06:01.523Z</time>
      </trkpt>
      <trkpt lat="48.48967" lon="-2.71408">
        <ele>99.736162</ele>
        <time>2024-04-08T18:06:05.083Z</time>
      </trkpt>
      <trkpt lat="48.48971" lon="-2.71374">
        <ele>99.631588</ele>
        <time>2024-04-08T18:06:10.761Z</time>
      </trkpt>
      <trkpt lat="48.4895" lon="-2.7136">
        <ele>99.528688</ele>
        <time>2024-04-08T18:06:16.580Z</time>
      </trkpt>
      <trkpt lat="48.48893" lon="-2.71386">
        <ele>99.132541</ele>
        <time>2024-04-08T18:06:41.599Z</time>
      </trkpt>
      <trkpt lat="48.48859" lon="-2.71386">
        <ele>98.807575</ele>
        <time>2024-04-08T18:06:55.670Z</time>
      </trkpt>
      <trkpt lat="48.48845" lon="-2.71382">
        <ele>98.668511</ele>
        <time>2024-04-08T18:07:01.582Z</time>
      </trkpt>
      <trkpt lat="48.488" lon="-2.71357">
        <ele>98.214577</ele>
        <time>2024-04-08T18:07:21.212Z</time>
      </trkpt>
      <trkpt lat="48.48745" lon="-2.71334">
        <ele>97.672848</ele>
        <time>2024-04-08T18:07:45.248Z</time>
      </trkpt>
      <trkpt lat="48.48697" lon="-2.71308">
        <ele>97.251277</ele>
        <time>2024-04-08T18:08:06.243Z</time>
      </trkpt>
      <trkpt lat="48.48692" lon="-2.71305">
        <ele>97.20885</ele>
        <time>2024-04-08T18:08:08.298Z</time>
      </trkpt>
      <trkpt lat="48.4869" lon="-2.71314">
        <ele>97.153778</ele>
        <time>2024-04-08T18:08:10.333Z</time>
      </trkpt>
      <trkpt lat="48.48655" lon="-2.71414">
        <ele>96.535599</ele>
        <time>2024-04-08T18:08:28.340Z</time>
      </trkpt>
      <trkpt lat="48.48649" lon="-2.71446">
        <ele>96.349837</ele>
        <time>2024-04-08T18:08:33.577Z</time>
      </trkpt>
      <trkpt lat="48.48646" lon="-2.71529">
        <ele>96.184463</ele>
        <time>2024-04-08T18:08:47.261Z</time>
      </trkpt>
      <trkpt lat="48.48635" lon="-2.71535">
        <ele>96.187404</ele>
        <time>2024-04-08T18:08:50.152Z</time>
      </trkpt>
      <trkpt lat="48.48626" lon="-2.71541">
        <ele>96.190062</ele>
        <time>2024-04-08T18:08:52.608Z</time>
      </trkpt>
      <trkpt lat="48.48587" lon="-2.71567">
        <ele>96.201309</ele>
        <time>2024-04-08T18:09:03.396Z</time>
      </trkpt>
      <trkpt lat="48.48576" lon="-2.71575">
        <ele>96.204552</ele>
        <time>2024-04-08T18:09:06.921Z</time>
      </trkpt>
      <trkpt lat="48.48577" lon="-2.71583">
        <ele>96.205925</ele>
        <time>2024-04-08T18:09:08.409Z</time>
      </trkpt>
      <trkpt lat="48.48573" lon="-2.71589">
        <ele>96.207279</ele>
        <time>2024-04-08T18:09:09.784Z</time>
      </trkpt>
      <trkpt lat="48.48568" lon="-2.71587">
        <ele>96.208631</ele>
        <time>2024-04-08T18:09:11.074Z</time>
      </trkpt>
      <trkpt lat="48.48566" lon="-2.71582">
        <ele>96.209549</ele>
        <time>2024-04-08T18:09:11.905Z</time>
      </trkpt>
      <trkpt lat="48.48547" lon="-2.7159">
        <ele>96.214784</ele>
        <time>2024-04-08T18:09:18.165Z</time>
      </trkpt>
      <trkpt lat="48.48537" lon="-2.71593">
        <ele>96.217553</ele>
        <time>2024-04-08T18:09:21.216Z</time>
      </trkpt>
      <trkpt lat="48.48503" lon="-2.71607">
        <ele>96.505188</ele>
        <time>2024-04-08T18:09:33.078Z</time>
      </trkpt>
      <trkpt lat="48.48476" lon="-2.71625">
        <ele>97.054355</ele>
        <time>2024-04-08T18:09:43.603Z</time>
      </trkpt>
      <trkpt lat="48.4847" lon="-2.71629">
        <ele>97.169138</ele>
        <time>2024-04-08T18:09:45.830Z</time>
      </trkpt>
      <trkpt lat="48.48455" lon="-2.71635">
        <ele>97.462508</ele>
        <time>2024-04-08T18:09:51.452Z</time>
      </trkpt>
      <trkpt lat="48.48407" lon="-2.71755">
        <ele>99.178112</ele>
        <time>2024-04-08T18:10:29.623Z</time>
      </trkpt>
      <trkpt lat="48.48413" lon="-2.71758">
        <ele>99.295383</ele>
        <time>2024-04-08T18:10:33.047Z</time>
      </trkpt>
      <trkpt lat="48.48422" lon="-2.71764">
        <ele>99.471115</ele>
        <time>2024-04-08T18:10:38.228Z</time>
      </trkpt>
      <trkpt lat="48.48426" lon="-2.71824">
        <ele>99.953926</ele>
        <time>2024-04-08T18:11:01.620Z</time>
      </trkpt>
      <trkpt lat="48.48434" lon="-2.71835">
        <ele>100.070426</ele>
        <time>2024-04-08T18:11:08.071Z</time>
      </trkpt>
      <trkpt lat="48.48437" lon="-2.7184">
        <ele>100.127611</ele>
        <time>2024-04-08T18:11:10.955Z</time>
      </trkpt>
      <trkpt lat="48.48597" lon="-2.71934">
        <ele>101.713737</ele>
        <time>2024-04-08T18:12:33.533Z</time>
      </trkpt>
      <trkpt lat="48.48627" lon="-2.72019">
        <ele>101.91892</ele>
        <time>2024-04-08T18:13:01.738Z</time>
      </trkpt>
      <trkpt lat="48.48657" lon="-2.72074">
        <ele>102.071036</ele>
        <time>2024-04-08T18:13:23.358Z</time>
      </trkpt>
      <trkpt lat="48.48668" lon="-2.72103">
        <ele>102.14245</ele>
        <time>2024-04-08T18:13:33.944Z</time>
      </trkpt>
      <trkpt lat="48.48717" lon="-2.72192">
        <ele>102.570948</ele>
        <time>2024-04-08T18:14:11.224Z</time>
      </trkpt>
      <trkpt lat="48.48749" lon="-2.7224">
        <ele>102.831651</ele>
        <time>2024-04-08T18:14:33.387Z</time>
      </trkpt>
      <trkpt lat="48.48765" lon="-2.72268">
        <ele>102.970127</ele>
        <time>2024-04-08T18:14:45.302Z</time>
      </trkpt>
      <trkpt lat="48.48768" lon="-2.72284">
        <ele>103.030824</ele>
        <time>2024-04-08T18:14:50.449Z</time>
      </trkpt>
      <trkpt lat="48.48775" lon="-2.72351">
        <ele>103.14749</ele>
        <time>2024-04-08T18:15:11.870Z</time>
      </trkpt>
      <trkpt lat="48.48778" lon="-2.72359">
        <ele>103.137019</ele>
        <time>2024-04-08T18:15:14.533Z</time>
      </trkpt>
      <trkpt lat="48.48784" lon="-2.72362">
        <ele>103.125534</ele>
        <time>2024-04-08T18:15:17.379Z</time>
      </trkpt>
      <trkpt lat="48.48804" lon="-2.72388">
        <ele>103.076686</ele>
        <time>2024-04-08T18:15:29.629Z</time>
      </trkpt>
      <trkpt lat="48.48825" lon="-2.72402">
        <ele>103.035548</ele>
        <time>2024-04-08T18:15:39.642Z</time>
      </trkpt>
      <trkpt lat="48.48832" lon="-2.72415">
        <ele>103.015923</ele>
        <time>2024-04-08T18:15:44.432Z</time>
      </trkpt>
      <trkpt lat="48.48889" lon="-2.72456">
        <ele>102.900705</ele>
        <time>2024-04-08T18:16:11.547Z</time>
      </trkpt>
      <trkpt lat="48.4889" lon="-2.72461">
        <ele>102.894235</ele>
        <time>2024-04-08T18:16:13.071Z</time>
      </trkpt>
      <trkpt lat="48.48883" lon="-2.7249">
        <ele>102.856881</ele>
        <time>2024-04-08T18:16:21.707Z</time>
      </trkpt>
      <trkpt lat="48.48886" lon="-2.72495">
        <ele>102.830958</ele>
        <time>2024-04-08T18:16:23.800Z</time>
      </trkpt>
      <trkpt lat="48.48913" lon="-2.72536">
        <ele>102.597359</ele>
        <time>2024-04-08T18:16:39.917Z</time>
      </trkpt>
      <trkpt lat="48.48921" lon="-2.7254">
        <ele>102.54704</ele>
        <time>2024-04-08T18:16:42.171Z</time>
      </trkpt>
      <trkpt lat="48.4897" lon="-2.72608">
        <ele>102.144493</ele>
        <time>2024-04-08T18:17:00.257Z</time>
      </trkpt>
      <trkpt lat="48.48975" lon="-2.72619">
        <ele>102.087689</ele>
        <time>2024-04-08T18:17:02.830Z</time>
      </trkpt>
      <trkpt lat="48.4898" lon="-2.7263">
        <ele>102.032457</ele>
        <time>2024-04-08T18:17:05.378Z</time>
      </trkpt>
      <trkpt lat="48.48985" lon="-2.72656">
        <ele>101.922638</ele>
        <time>2024-04-08T18:17:10.448Z</time>
      </trkpt>
      <trkpt lat="48.49001" lon="-2.72666">
        <ele>101.818479</ele>
        <time>2024-04-08T18:17:15.364Z</time>
      </trkpt>
      <trkpt lat="48.49018" lon="-2.72682">
        <ele>101.750311</ele>
        <time>2024-04-08T18:17:21.051Z</time>
      </trkpt>
      <trkpt lat="48.49054" lon="-2.7273">
        <ele>101.700389</ele>
        <time>2024-04-08T18:17:34.844Z</time>
      </trkpt>
      <trkpt lat="48.4907" lon="-2.72756">
        <ele>101.675428</ele>
        <time>2024-04-08T18:17:41.864Z</time>
      </trkpt>
      <trkpt lat="48.49074" lon="-2.72773">
        <ele>101.662766</ele>
        <time>2024-04-08T18:17:45.433Z</time>
      </trkpt>
      <trkpt lat="48.49077" lon="-2.72805">
        <ele>101.640808</ele>
        <time>2024-04-08T18:17:51.739Z</time>
      </trkpt>
      <trkpt lat="48.49077" lon="-2.72848">
        <ele>101.61095</ele>
        <time>2024-04-08T18:18:00.235Z</time>
      </trkpt>
      <trkpt lat="48.49072" lon="-2.7286">
        <ele>101.601176</ele>
        <time>2024-04-08T18:18:03.000Z</time>
      </trkpt>
      <trkpt lat="48.49067" lon="-2.72862">
        <ele>101.596102</ele>
        <time>2024-04-08T18:18:04.494Z</time>
      </trkpt>
      <trkpt lat="48.49072" lon="-2.72885">
        <ele>101.579329</ele>
        <time>2024-04-08T18:18:09.293Z</time>
      </trkpt>
      <trkpt lat="48.49123" lon="-2.72844">
        <ele>101.619186</ele>
        <time>2024-04-08T18:18:35.719Z</time>
      </trkpt>
      <trkpt lat="48.49133" lon="-2.72843">
        <ele>101.627928</ele>
        <time>2024-04-08T18:18:40.296Z</time>
      </trkpt>
      <trkpt lat="48.49139" lon="-2.72847">
        <ele>101.63408</ele>
        <time>2024-04-08T18:18:43.523Z</time>
      </trkpt>
      <trkpt lat="48.49153" lon="-2.72863">
        <ele>101.649274</ele>
        <time>2024-04-08T18:18:51.572Z</time>
      </trkpt>
      <trkpt lat="48.49163" lon="-2.72881">
        <ele>101.662231</ele>
        <time>2024-04-08T18:18:58.272Z</time>
      </trkpt>
      <trkpt lat="48.49172" lon="-2.72909">
        <ele>101.680327</ele>
        <time>2024-04-08T18:19:07.700Z</time>
      </trkpt>
      <trkpt lat="48.49179" lon="-2.7292">
        <ele>101.689476</ele>
        <time>2024-04-08T18:19:12.301Z</time>
      </trkpt>
      <trkpt lat="48.49199" lon="-2.72945">
        <ele>101.711686</ele>
        <time>2024-04-08T18:19:23.592Z</time>
      </trkpt>
      <trkpt lat="48.49225" lon="-2.72963">
        <ele>101.740989</ele>
        <time>2024-04-08T18:19:36.510Z</time>
      </trkpt>
      <trkpt lat="48.49241" lon="-2.7298">
        <ele>101.768082</ele>
        <time>2024-04-08T18:19:45.227Z</time>
      </trkpt>
      <trkpt lat="48.49253" lon="-2.73002">
        <ele>101.793466</ele>
        <time>2024-04-08T18:19:53.672Z</time>
      </trkpt>
      <trkpt lat="48.49259" lon="-2.73021">
        <ele>101.813443</ele>
        <time>2024-04-08T18:20:00.233Z</time>
      </trkpt>
      <trkpt lat="48.49258" lon="-2.73035">
        <ele>101.82589</ele>
        <time>2024-04-08T18:20:04.194Z</time>
      </trkpt>
      <trkpt lat="48.49255" lon="-2.73047">
        <ele>101.837366</ele>
        <time>2024-04-08T18:20:07.831Z</time>
      </trkpt>
      <trkpt lat="48.49245" lon="-2.73061">
        <ele>101.856334</ele>
        <time>2024-04-08T18:20:14.051Z</time>
      </trkpt>
      <trkpt lat="48.49241" lon="-2.73076">
        <ele>101.871052</ele>
        <time>2024-04-08T18:20:18.995Z</time>
      </trkpt>
      <trkpt lat="48.49247" lon="-2.73085">
        <ele>101.882626</ele>
        <time>2024-04-08T18:20:22.692Z</time>
      </trkpt>
      <trkpt lat="48.49262" lon="-2.731">
        <ele>101.907822</ele>
        <time>2024-04-08T18:20:30.855Z</time>
      </trkpt>
      <trkpt lat="48.49267" lon="-2.73121">
        <ele>101.928405</ele>
        <time>2024-04-08T18:20:37.696Z</time>
      </trkpt>
      <trkpt lat="48.49268" lon="-2.73141">
        <ele>101.946991</ele>
        <time>2024-04-08T18:20:43.781Z</time>
      </trkpt>
      <trkpt lat="48.49283" lon="-2.73146">
        <ele>101.967622</ele>
        <time>2024-04-08T18:20:48.258Z</time>
      </trkpt>
      <trkpt lat="48.49293" lon="-2.73161">
        <ele>101.960486</ele>
        <time>2024-04-08T18:20:52.290Z</time>
      </trkpt>
      <trkpt lat="48.49302" lon="-2.7318">
        <ele>101.921053</ele>
        <time>2024-04-08T18:20:56.793Z</time>
      </trkpt>
      <trkpt lat="48.49303" lon="-2.73189">
        <ele>101.906367</ele>
        <time>2024-04-08T18:20:58.616Z</time>
      </trkpt>
      <trkpt lat="48.4932" lon="-2.73188">
        <ele>101.860505</ele>
        <time>2024-04-08T18:21:06.752Z</time>
      </trkpt>
      <trkpt lat="48.49329" lon="-2.73193">
        <ele>101.83594</ele>
        <time>2024-04-08T18:21:10.950Z</time>
      </trkpt>
      <trkpt lat="48.49338" lon="-2.7321">
        <ele>101.799252</ele>
        <time>2024-04-08T18:21:17.272Z</time>
      </trkpt>
      <trkpt lat="48.49349" lon="-2.73238">
        <ele>101.743504</ele>
        <time>2024-04-08T18:21:26.585Z</time>
      </trkpt>
      <trkpt lat="48.49356" lon="-2.7327">
        <ele>101.684526</ele>
        <time>2024-04-08T18:21:36.372Z</time>
      </trkpt>
      <trkpt lat="48.49361" lon="-2.73314">
        <ele>101.607907</ele>
        <time>2024-04-08T18:21:49.141Z</time>
      </trkpt>
      <trkpt lat="48.49365" lon="-2.73313">
        <ele>101.597374</ele>
        <time>2024-04-08T18:21:50.083Z</time>
      </trkpt>
      <trkpt lat="48.49377" lon="-2.73324">
        <ele>101.560174</ele>
        <time>2024-04-08T18:21:53.646Z</time>
      </trkpt>
      <trkpt lat="48.49392" lon="-2.73353">
        <ele>101.431656</ele>
        <time>2024-04-08T18:21:59.391Z</time>
      </trkpt>
      <trkpt lat="48.49394" lon="-2.73362">
        <ele>101.321023</ele>
        <time>2024-04-08T18:22:01.051Z</time>
      </trkpt>
      <trkpt lat="48.49421" lon="-2.73369">
        <ele>100.883686</ele>
        <time>2024-04-08T18:22:08.233Z</time>
      </trkpt>
      <trkpt lat="48.49439" lon="-2.73383">
        <ele>100.551624</ele>
        <time>2024-04-08T18:22:13.727Z</time>
      </trkpt>
      <trkpt lat="48.49445" lon="-2.73396">
        <ele>100.383096</ele>
        <time>2024-04-08T18:22:16.491Z</time>
      </trkpt>
      <trkpt lat="48.49448" lon="-2.73417">
        <ele>100.157642</ele>
        <time>2024-04-08T18:22:20.058Z</time>
      </trkpt>
      <trkpt lat="48.49448" lon="-2.73457">
        <ele>99.728954</ele>
        <time>2024-04-08T18:22:26.752Z</time>
      </trkpt>
      <trkpt lat="48.49457" lon="-2.73465">
        <ele>99.556808</ele>
        <time>2024-04-08T18:22:29.064Z</time>
      </trkpt>
      <trkpt lat="48.49484" lon="-2.73519">
        <ele>98.835662</ele>
        <time>2024-04-08T18:22:38.851Z</time>
      </trkpt>
      <trkpt lat="48.49505" lon="-2.73562">
        <ele>98.159989</ele>
        <time>2024-04-08T18:22:46.299Z</time>
      </trkpt>
      <trkpt lat="48.49511" lon="-2.73583">
        <ele>97.834433</ele>
        <time>2024-04-08T18:22:49.779Z</time>
      </trkpt>
      <trkpt lat="48.49525" lon="-2.73583">
        <ele>97.516536</ele>
        <time>2024-04-08T18:22:53.919Z</time>
      </trkpt>
      <trkpt lat="48.49546" lon="-2.7359">
        <ele>97.066041</ele>
        <time>2024-04-08T18:23:00.511Z</time>
      </trkpt>
      <trkpt lat="48.4956" lon="-2.73599">
        <ele>96.739333</ele>
        <time>2024-04-08T18:23:04.753Z</time>
      </trkpt>
      <trkpt lat="48.49563" lon="-2.73628">
        <ele>96.327507</ele>
        <time>2024-04-08T18:23:10.535Z</time>
      </trkpt>
      <trkpt lat="48.49564" lon="-2.73634">
        <ele>96.240325</ele>
        <time>2024-04-08T18:23:11.735Z</time>
      </trkpt>
      <trkpt lat="48.49588" lon="-2.73613">
        <ele>95.646337</ele>
        <time>2024-04-08T18:23:17.731Z</time>
      </trkpt>
      <trkpt lat="48.49592" lon="-2.73618">
        <ele>95.524468</ele>
        <time>2024-04-08T18:23:19.075Z</time>
      </trkpt>
      <trkpt lat="48.49606" lon="-2.73619">
        <ele>95.23825</ele>
        <time>2024-04-08T18:23:21.889Z</time>
      </trkpt>
      <trkpt lat="48.49628" lon="-2.73655">
        <ele>94.75865</ele>
        <time>2024-04-08T18:23:29.279Z</time>
      </trkpt>
      <trkpt lat="48.4963" lon="-2.73668">
        <ele>94.747669</ele>
        <time>2024-04-08T18:23:31.303Z</time>
      </trkpt>
      <trkpt lat="48.49642" lon="-2.73696">
        <ele>94.721947</ele>
        <time>2024-04-08T18:23:36.531Z</time>
      </trkpt>
      <trkpt lat="48.49646" lon="-2.73704">
        <ele>94.713963</ele>
        <time>2024-04-08T18:23:38.140Z</time>
      </trkpt>
      <trkpt lat="48.49657" lon="-2.73713">
        <ele>94.699031</ele>
        <time>2024-04-08T18:23:41.177Z</time>
      </trkpt>
      <trkpt lat="48.49664" lon="-2.73724">
        <ele>94.686561</ele>
        <time>2024-04-08T18:23:43.979Z</time>
      </trkpt>
      <trkpt lat="48.49667" lon="-2.7376">
        <ele>94.65821</ele>
        <time>2024-04-08T18:23:50.198Z</time>
      </trkpt>
      <trkpt lat="48.49691" lon="-2.73808">
        <ele>94.611203</ele>
        <time>2024-04-08T18:24:01.453Z</time>
      </trkpt>
      <trkpt lat="48.49691" lon="-2.7381">
        <ele>94.609466</ele>
        <time>2024-04-08T18:24:02.468Z</time>
      </trkpt>
      <trkpt lat="48.49694" lon="-2.73814">
        <ele>94.604443</ele>
        <time>2024-04-08T18:24:04.478Z</time>
      </trkpt>
      <trkpt lat="48.49701" lon="-2.73823">
        <ele>94.594141</ele>
        <time>2024-04-08T18:24:07.274Z</time>
      </trkpt>
      <trkpt lat="48.49719" lon="-2.7386">
        <ele>94.557434</ele>
        <time>2024-04-08T18:24:17.402Z</time>
      </trkpt>
      <trkpt lat="48.4974" lon="-2.73885">
        <ele>94.950759</ele>
        <time>2024-04-08T18:24:26.505Z</time>
      </trkpt>
      <trkpt lat="48.49758" lon="-2.73919">
        <ele>95.396802</ele>
        <time>2024-04-08T18:24:37.290Z</time>
      </trkpt>
      <trkpt lat="48.49764" lon="-2.73927">
        <ele>95.521756</ele>
        <time>2024-04-08T18:24:40.691Z</time>
      </trkpt>
      <trkpt lat="48.49775" lon="-2.73955">
        <ele>95.847133</ele>
        <time>2024-04-08T18:24:48.586Z</time>
      </trkpt>
      <trkpt lat="48.49778" lon="-2.73953">
        <ele>95.900303</ele>
        <time>2024-04-08T18:24:49.781Z</time>
      </trkpt>
      <trkpt lat="48.49786" lon="-2.73956">
        <ele>96.027884</ele>
        <time>2024-04-08T18:24:53.073Z</time>
      </trkpt>
      <trkpt lat="48.498" lon="-2.73978">
        <ele>96.324755</ele>
        <time>2024-04-08T18:25:00.369Z</time>
      </trkpt>
      <trkpt lat="48.49812" lon="-2.74">
        <ele>96.623353</ele>
        <time>2024-04-08T18:25:07.835Z</time>
      </trkpt>
      <trkpt lat="48.49829" lon="-2.74041">
        <ele>97.101607</ele>
        <time>2024-04-08T18:25:18.965Z</time>
      </trkpt>
      <trkpt lat="48.4983" lon="-2.7405">
        <ele>97.195308</ele>
        <time>2024-04-08T18:25:21.069Z</time>
      </trkpt>
      <trkpt lat="48.49833" lon="-2.74064">
        <ele>97.320709</ele>
        <time>2024-04-08T18:25:24.707Z</time>
      </trkpt>
      <trkpt lat="48.49818" lon="-2.74139">
        <ele>97.724422</ele>
        <time>2024-04-08T18:25:41.902Z</time>
      </trkpt>
      <trkpt lat="48.49885" lon="-2.74172">
        <ele>98.269819</ele>
        <time>2024-04-08T18:26:03.256Z</time>
      </trkpt>
      <trkpt lat="48.49889" lon="-2.74164">
        <ele>98.321012</ele>
        <time>2024-04-08T18:26:04.923Z</time>
      </trkpt>
      <trkpt lat="48.49895" lon="-2.74161">
        <ele>98.372303</ele>
        <time>2024-04-08T18:26:06.779Z</time>
      </trkpt>
      <trkpt lat="48.49898" lon="-2.74162">
        <ele>98.398621</ele>
        <time>2024-04-08T18:26:07.913Z</time>
      </trkpt>
      <trkpt lat="48.49903" lon="-2.74168">
        <ele>98.449677</ele>
        <time>2024-04-08T18:26:10.312Z</time>
      </trkpt>
      <trkpt lat="48.49905" lon="-2.74178">
        <ele>98.501103</ele>
        <time>2024-04-08T18:26:12.329Z</time>
      </trkpt>
      <trkpt lat="48.49912" lon="-2.74179">
        <ele>98.556739</ele>
        <time>2024-04-08T18:26:14.367Z</time>
      </trkpt>
      <trkpt lat="48.49919" lon="-2.74188">
        <ele>98.628227</ele>
        <time>2024-04-08T18:26:16.759Z</time>
      </trkpt>
      <trkpt lat="48.49949" lon="-2.74242">
        <ele>98.742375</ele>
        <time>2024-04-08T18:26:30.818Z</time>
      </trkpt>
      <trkpt lat="48.49961" lon="-2.74263">
        <ele>98.762983</ele>
        <time>2024-04-08T18:26:35.828Z</time>
      </trkpt>
      <trkpt lat="48.49973" lon="-2.74286">
        <ele>98.78581</ele>
        <time>2024-04-08T18:26:41.873Z</time>
      </trkpt>
      <trkpt lat="48.49983" lon="-2.74304">
        <ele>98.803537</ele>
        <time>2024-04-08T18:26:46.201Z</time>
      </trkpt>
      <trkpt lat="48.49987" lon="-2.74312">
        <ele>98.811242</ele>
        <time>2024-04-08T18:26:47.789Z</time>
      </trkpt>
      <trkpt lat="48.49993" lon="-2.74322">
        <ele>98.821521</ele>
        <time>2024-04-08T18:26:50.160Z</time>
      </trkpt>
      <trkpt lat="48.49992" lon="-2.74341">
        <ele>98.836005</ele>
        <time>2024-04-08T18:26:54.454Z</time>
      </trkpt>
      <trkpt lat="48.5001" lon="-2.74383">
        <ele>98.873811</ele>
        <time>2024-04-08T18:27:03.476Z</time>
      </trkpt>
      <trkpt lat="48.49999" lon="-2.74372">
        <ele>98.888366</ele>
        <time>2024-04-08T18:27:06.767Z</time>
      </trkpt>
      <trkpt lat="48.49981" lon="-2.74353">
        <ele>98.833668</ele>
        <time>2024-04-08T18:27:12.772Z</time>
      </trkpt>
      <trkpt lat="48.49975" lon="-2.74353">
        <ele>98.779805</ele>
        <time>2024-04-08T18:27:14.314Z</time>
      </trkpt>
      <trkpt lat="48.4997" lon="-2.74322">
        <ele>98.577258</ele>
        <time>2024-04-08T18:27:28.984Z</time>
      </trkpt>
      <trkpt lat="48.49958" lon="-2.74308">
        <ele>98.429447</ele>
        <time>2024-04-08T18:27:39.705Z</time>
      </trkpt>
      <trkpt lat="48.49969" lon="-2.74288">
        <ele>98.25666</ele>
        <time>2024-04-08T18:27:46.941Z</time>
      </trkpt>
      <trkpt lat="48.49984" lon="-2.74263">
        <ele>98.045992</ele>
        <time>2024-04-08T18:27:56.255Z</time>
      </trkpt>
      <trkpt lat="48.50054" lon="-2.7415">
        <ele>97.00477</ele>
        <time>2024-04-08T18:28:38.117Z</time>
      </trkpt>
      <trkpt lat="48.50063" lon="-2.74143">
        <ele>96.86985</ele>
        <time>2024-04-08T18:28:41.928Z</time>
      </trkpt>
      <trkpt lat="48.50075" lon="-2.7414">
        <ele>96.697324</ele>
        <time>2024-04-08T18:28:46.724Z</time>
      </trkpt>
      <trkpt lat="48.50084" lon="-2.74141">
        <ele>96.563999</ele>
        <time>2024-04-08T18:28:50.520Z</time>
      </trkpt>
      <trkpt lat="48.50086" lon="-2.74138">
        <ele>96.525916</ele>
        <time>2024-04-08T18:28:51.558Z</time>
      </trkpt>
      <trkpt lat="48.5009" lon="-2.74131">
        <ele>96.441359</ele>
        <time>2024-04-08T18:28:53.986Z</time>
      </trkpt>
      <trkpt lat="48.50094" lon="-2.74129">
        <ele>96.37857</ele>
        <time>2024-04-08T18:28:55.087Z</time>
      </trkpt>
      <trkpt lat="48.50199" lon="-2.74304">
        <ele>94.215406</ele>
        <time>2024-04-08T18:29:32.851Z</time>
      </trkpt>
      <trkpt lat="48.50318" lon="-2.74496">
        <ele>92.052868</ele>
        <time>2024-04-08T18:30:15.043Z</time>
      </trkpt>
      <trkpt lat="48.50334" lon="-2.74529">
        <ele>91.799373</ele>
        <time>2024-04-08T18:30:21.911Z</time>
      </trkpt>
      <trkpt lat="48.50348" lon="-2.74572">
        <ele>91.516179</ele>
        <time>2024-04-08T18:30:29.807Z</time>
      </trkpt>
      <trkpt lat="48.50355" lon="-2.74639">
        <ele>91.107062</ele>
        <time>2024-04-08T18:30:41.012Z</time>
      </trkpt>
      <trkpt lat="48.50362" lon="-2.74646">
        <ele>91.030928</ele>
        <time>2024-04-08T18:30:43.194Z</time>
      </trkpt>
      <trkpt lat="48.50356" lon="-2.74705">
        <ele>90.672425</ele>
        <time>2024-04-08T18:30:52.899Z</time>
      </trkpt>
      <trkpt lat="48.50347" lon="-2.74712">
        <ele>90.593707</ele>
        <time>2024-04-08T18:30:55.893Z</time>
      </trkpt>
      <trkpt lat="48.50356" lon="-2.74705">
        <ele>90.516598</ele>
        <time>2024-04-08T18:30:58.101Z</time>
      </trkpt>
      <trkpt lat="48.50362" lon="-2.74646">
        <ele>90.210247</ele>
        <time>2024-04-08T18:31:07.998Z</time>
      </trkpt>
      <trkpt lat="48.50374" lon="-2.74575">
        <ele>89.830048</ele>
        <time>2024-04-08T18:31:20.328Z</time>
      </trkpt>
      <trkpt lat="48.50387" lon="-2.74524">
        <ele>89.552112</ele>
        <time>2024-04-08T18:31:28.953Z</time>
      </trkpt>
      <trkpt lat="48.50406" lon="-2.74469">
        <ele>89.190899</ele>
        <time>2024-04-08T18:31:38.733Z</time>
      </trkpt>
      <trkpt lat="48.5043" lon="-2.74417">
        <ele>88.511309</ele>
        <time>2024-04-08T18:31:48.315Z</time>
      </trkpt>
      <trkpt lat="48.50453" lon="-2.74375">
        <ele>87.932189</ele>
        <time>2024-04-08T18:31:56.374Z</time>
      </trkpt>
      <trkpt lat="48.50495" lon="-2.74321">
        <ele>87.045232</ele>
        <time>2024-04-08T18:32:08.633Z</time>
      </trkpt>
      <trkpt lat="48.50533" lon="-2.74283">
        <ele>86.312756</ele>
        <time>2024-04-08T18:32:18.922Z</time>
      </trkpt>
      <trkpt lat="48.50566" lon="-2.74256">
        <ele>85.889435</ele>
        <time>2024-04-08T18:32:27.258Z</time>
      </trkpt>
      <trkpt lat="48.50585" lon="-2.74246">
        <ele>85.657869</ele>
        <time>2024-04-08T18:32:31.889Z</time>
      </trkpt>
      <trkpt lat="48.50788" lon="-2.74138">
        <ele>83.612425</ele>
        <time>2024-04-08T18:33:24.010Z</time>
      </trkpt>
      <trkpt lat="48.50834" lon="-2.74105">
        <ele>83.24185</ele>
        <time>2024-04-08T18:33:37.011Z</time>
      </trkpt>
      <trkpt lat="48.50879" lon="-2.74063">
        <ele>82.757439</ele>
        <time>2024-04-08T18:33:50.034Z</time>
      </trkpt>
      <trkpt lat="48.50924" lon="-2.74004">
        <ele>82.006546</ele>
        <time>2024-04-08T18:34:04.577Z</time>
      </trkpt>
      <trkpt lat="48.50967" lon="-2.73928">
        <ele>81.181048</ele>
        <time>2024-04-08T18:34:19.818Z</time>
      </trkpt>
      <trkpt lat="48.50988" lon="-2.73887">
        <ele>80.757023</ele>
        <time>2024-04-08T18:34:27.353Z</time>
      </trkpt>
      <trkpt lat="48.50993" lon="-2.73872">
        <ele>80.566233</ele>
        <time>2024-04-08T18:34:29.870Z</time>
      </trkpt>
      <trkpt lat="48.51008" lon="-2.73826">
        <ele>79.993756</ele>
        <time>2024-04-08T18:34:37.210Z</time>
      </trkpt>
      <trkpt lat="48.51026" lon="-2.73752">
        <ele>79.119295</ele>
        <time>2024-04-08T18:34:48.266Z</time>
      </trkpt>
      <trkpt lat="48.51053" lon="-2.73613">
        <ele>77.73204</ele>
        <time>2024-04-08T18:35:10.669Z</time>
      </trkpt>
      <trkpt lat="48.51062" lon="-2.73579">
        <ele>77.73204</ele>
        <time>2024-04-08T18:35:16.766Z</time>
      </trkpt>
      <trkpt lat="48.51042" lon="-2.73561">
        <ele>77.73204</ele>
        <time>2024-04-08T18:35:22.727Z</time>
      </trkpt>
      <trkpt lat="48.51032" lon="-2.73551">
        <ele>77.73204</ele>
        <time>2024-04-08T18:35:26.554Z</time>
      </trkpt>
      <trkpt lat="48.51013" lon="-2.73533">
        <ele>77.73204</ele>
        <time>2024-04-08T18:35:32.764Z</time>
      </trkpt>
      <trkpt lat="48.50957" lon="-2.73477">
        <ele>77.73204</ele>
        <time>2024-04-08T18:35:55.751Z</time>
      </trkpt>
      <trkpt lat="48.50871" lon="-2.73393">
        <ele>77.73204</ele>
        <time>2024-04-08T18:36:33.921Z</time>
      </trkpt>
    </trkseg>
  </trk>
</gpx>